<?xml version="1.0" encoding="UTF-8" standalone="no" ?>
<gpx xmlns="http://www.topografix.com/GPX/1/1" xmlns:xsi="http://www.w3.org/2001/XMLSchema-instance" xsi:schemaLocation="http://www.topografix.com/GPX/1/1 http://www.topografix.com/GPX/1/1/gpx.xsd" version="1.1" creator="VisuGPX - https://www.visugpx.com">
  <metadata>
    <name>Nantes - Névellière</name>
    <desc><![CDATA[Route vélo de l'agglo nantaise au hameau de la Névellière]]></desc>
  </metadata>
  <trk>
    <name><![CDATA[--Saint-Sébastien-sur-Loire-- OR-5919818:Grandlieu]]></name>
    <trkseg>
      <trkpt lat="47.193" lon="-1.51382">
        <ele>18</ele>
        <time>2016-04-07T12:08:27Z</time>
      </trkpt>
      <trkpt lat="47.19275" lon="-1.51381">
        <ele>18</ele>
        <time>2016-04-07T12:10:27Z</time>
      </trkpt>
      <trkpt lat="47.19213" lon="-1.51377">
        <ele>19</ele>
        <time>2016-04-07T12:12:27Z</time>
      </trkpt>
      <trkpt lat="47.19203" lon="-1.51376">
        <ele>19</ele>
        <time>2016-04-07T12:14:27Z</time>
      </trkpt>
      <trkpt lat="47.19163" lon="-1.51368">
        <ele>21</ele>
        <time>2016-04-07T12:16:27Z</time>
      </trkpt>
      <trkpt lat="47.19127" lon="-1.51362">
        <ele>21</ele>
        <time>2016-04-07T12:18:27Z</time>
      </trkpt>
      <trkpt lat="47.19105" lon="-1.51359">
        <ele>22</ele>
        <time>2016-04-07T12:20:27Z</time>
      </trkpt>
      <trkpt lat="47.19099" lon="-1.51357">
        <ele>22</ele>
        <time>2016-04-07T12:22:27Z</time>
      </trkpt>
      <trkpt lat="47.19094" lon="-1.51357">
        <ele>22</ele>
        <time>2016-04-07T12:24:27Z</time>
      </trkpt>
      <trkpt lat="47.19072" lon="-1.51352">
        <ele>23</ele>
        <time>2016-04-07T12:26:27Z</time>
      </trkpt>
      <trkpt lat="47.19063" lon="-1.51349">
        <ele>23</ele>
        <time>2016-04-07T12:28:27Z</time>
      </trkpt>
      <trkpt lat="47.19056" lon="-1.51346">
        <ele>23</ele>
        <time>2016-04-07T12:30:27Z</time>
      </trkpt>
      <trkpt lat="47.19056" lon="-1.51346">
        <ele>23</ele>
        <time>2016-04-07T12:32:27Z</time>
      </trkpt>
      <trkpt lat="47.19053" lon="-1.51339">
        <ele>23</ele>
        <time>2016-04-07T12:34:27Z</time>
      </trkpt>
      <trkpt lat="47.19052" lon="-1.51334">
        <ele>23</ele>
        <time>2016-04-07T12:36:27Z</time>
      </trkpt>
      <trkpt lat="47.19042" lon="-1.51272">
        <ele>23</ele>
        <time>2016-04-07T12:38:27Z</time>
      </trkpt>
      <trkpt lat="47.19042" lon="-1.5127">
        <ele>23</ele>
        <time>2016-04-07T12:40:27Z</time>
      </trkpt>
      <trkpt lat="47.19038" lon="-1.51234">
        <ele>24</ele>
        <time>2016-04-07T12:42:27Z</time>
      </trkpt>
      <trkpt lat="47.19037" lon="-1.51228">
        <ele>24</ele>
        <time>2016-04-07T12:44:27Z</time>
      </trkpt>
      <trkpt lat="47.19034" lon="-1.5117">
        <ele>24</ele>
        <time>2016-04-07T12:46:27Z</time>
      </trkpt>
      <trkpt lat="47.19032" lon="-1.51123">
        <ele>24</ele>
        <time>2016-04-07T12:48:27Z</time>
      </trkpt>
      <trkpt lat="47.1903" lon="-1.51074">
        <ele>24</ele>
        <time>2016-04-07T12:50:27Z</time>
      </trkpt>
      <trkpt lat="47.1903" lon="-1.51074">
        <ele>24</ele>
        <time>2016-04-07T12:52:27Z</time>
      </trkpt>
      <trkpt lat="47.19022" lon="-1.51071">
        <ele>24</ele>
        <time>2016-04-07T12:54:27Z</time>
      </trkpt>
      <trkpt lat="47.19016" lon="-1.51068">
        <ele>24</ele>
        <time>2016-04-07T12:56:27Z</time>
      </trkpt>
      <trkpt lat="47.19008" lon="-1.51068">
        <ele>24</ele>
        <time>2016-04-07T12:58:27Z</time>
      </trkpt>
      <trkpt lat="47.19" lon="-1.51068">
        <ele>24</ele>
        <time>2016-04-07T13:00:27Z</time>
      </trkpt>
      <trkpt lat="47.18993" lon="-1.51069">
        <ele>24</ele>
        <time>2016-04-07T13:02:27Z</time>
      </trkpt>
      <trkpt lat="47.18981" lon="-1.51073">
        <ele>24</ele>
        <time>2016-04-07T13:04:27Z</time>
      </trkpt>
      <trkpt lat="47.18963" lon="-1.51078">
        <ele>25</ele>
        <time>2016-04-07T13:06:27Z</time>
      </trkpt>
      <trkpt lat="47.18937" lon="-1.5109">
        <ele>25</ele>
        <time>2016-04-07T13:08:27Z</time>
      </trkpt>
      <trkpt lat="47.18926" lon="-1.51096">
        <ele>25</ele>
        <time>2016-04-07T13:10:27Z</time>
      </trkpt>
      <trkpt lat="47.18926" lon="-1.51096">
        <ele>25</ele>
        <time>2016-04-07T13:12:27Z</time>
      </trkpt>
      <trkpt lat="47.1893" lon="-1.51171">
        <ele>26</ele>
        <time>2016-04-07T13:14:27Z</time>
      </trkpt>
      <trkpt lat="47.18934" lon="-1.51233">
        <ele>26</ele>
        <time>2016-04-07T13:16:27Z</time>
      </trkpt>
      <trkpt lat="47.18937" lon="-1.51279">
        <ele>25</ele>
        <time>2016-04-07T13:18:27Z</time>
      </trkpt>
      <trkpt lat="47.18937" lon="-1.51282">
        <ele>25</ele>
        <time>2016-04-07T13:20:27Z</time>
      </trkpt>
      <trkpt lat="47.18941" lon="-1.51345">
        <ele>25</ele>
        <time>2016-04-07T13:22:27Z</time>
      </trkpt>
      <trkpt lat="47.18942" lon="-1.51368">
        <ele>25</ele>
        <time>2016-04-07T13:24:27Z</time>
      </trkpt>
      <trkpt lat="47.18942" lon="-1.51368">
        <ele>25</ele>
        <time>2016-04-07T13:26:27Z</time>
      </trkpt>
      <trkpt lat="47.18942" lon="-1.51369">
        <ele>25</ele>
        <time>2016-04-07T13:28:27Z</time>
      </trkpt>
      <trkpt lat="47.18943" lon="-1.51369">
        <ele>25</ele>
        <time>2016-04-07T13:30:27Z</time>
      </trkpt>
      <trkpt lat="47.18943" lon="-1.5137">
        <ele>25</ele>
        <time>2016-04-07T13:32:27Z</time>
      </trkpt>
      <trkpt lat="47.18943" lon="-1.51371">
        <ele>25</ele>
        <time>2016-04-07T13:34:27Z</time>
      </trkpt>
      <trkpt lat="47.18943" lon="-1.51372">
        <ele>25</ele>
        <time>2016-04-07T13:36:27Z</time>
      </trkpt>
      <trkpt lat="47.18943" lon="-1.51373">
        <ele>25</ele>
        <time>2016-04-07T13:38:27Z</time>
      </trkpt>
      <trkpt lat="47.18943" lon="-1.51374">
        <ele>25</ele>
        <time>2016-04-07T13:40:27Z</time>
      </trkpt>
      <trkpt lat="47.18943" lon="-1.51375">
        <ele>25</ele>
        <time>2016-04-07T13:42:27Z</time>
      </trkpt>
      <trkpt lat="47.18943" lon="-1.51376">
        <ele>26</ele>
        <time>2016-04-07T13:44:27Z</time>
      </trkpt>
      <trkpt lat="47.18943" lon="-1.51377">
        <ele>26</ele>
        <time>2016-04-07T13:46:27Z</time>
      </trkpt>
      <trkpt lat="47.18943" lon="-1.51378">
        <ele>26</ele>
        <time>2016-04-07T13:48:27Z</time>
      </trkpt>
      <trkpt lat="47.18942" lon="-1.51378">
        <ele>26</ele>
        <time>2016-04-07T13:50:27Z</time>
      </trkpt>
      <trkpt lat="47.18942" lon="-1.51379">
        <ele>26</ele>
        <time>2016-04-07T13:52:27Z</time>
      </trkpt>
      <trkpt lat="47.18941" lon="-1.5138">
        <ele>26</ele>
        <time>2016-04-07T13:54:27Z</time>
      </trkpt>
      <trkpt lat="47.18941" lon="-1.51381">
        <ele>26</ele>
        <time>2016-04-07T13:56:27Z</time>
      </trkpt>
      <trkpt lat="47.1894" lon="-1.51381">
        <ele>26</ele>
        <time>2016-04-07T13:58:27Z</time>
      </trkpt>
      <trkpt lat="47.18939" lon="-1.51381">
        <ele>26</ele>
        <time>2016-04-07T14:00:27Z</time>
      </trkpt>
      <trkpt lat="47.18939" lon="-1.51382">
        <ele>26</ele>
        <time>2016-04-07T14:02:27Z</time>
      </trkpt>
      <trkpt lat="47.18938" lon="-1.51382">
        <ele>26</ele>
        <time>2016-04-07T14:04:27Z</time>
      </trkpt>
      <trkpt lat="47.18937" lon="-1.51382">
        <ele>26</ele>
        <time>2016-04-07T14:06:27Z</time>
      </trkpt>
      <trkpt lat="47.18937" lon="-1.51381">
        <ele>26</ele>
        <time>2016-04-07T14:08:27Z</time>
      </trkpt>
      <trkpt lat="47.18936" lon="-1.51381">
        <ele>26</ele>
        <time>2016-04-07T14:10:27Z</time>
      </trkpt>
      <trkpt lat="47.18935" lon="-1.51381">
        <ele>26</ele>
        <time>2016-04-07T14:12:27Z</time>
      </trkpt>
      <trkpt lat="47.18935" lon="-1.5138">
        <ele>26</ele>
        <time>2016-04-07T14:14:27Z</time>
      </trkpt>
      <trkpt lat="47.18934" lon="-1.5138">
        <ele>26</ele>
        <time>2016-04-07T14:16:27Z</time>
      </trkpt>
      <trkpt lat="47.18934" lon="-1.51379">
        <ele>26</ele>
        <time>2016-04-07T14:18:27Z</time>
      </trkpt>
      <trkpt lat="47.18933" lon="-1.51379">
        <ele>26</ele>
        <time>2016-04-07T14:20:27Z</time>
      </trkpt>
      <trkpt lat="47.18933" lon="-1.51378">
        <ele>26</ele>
        <time>2016-04-07T14:22:27Z</time>
      </trkpt>
      <trkpt lat="47.18933" lon="-1.51377">
        <ele>26</ele>
        <time>2016-04-07T14:24:27Z</time>
      </trkpt>
      <trkpt lat="47.18925" lon="-1.51382">
        <ele>26</ele>
        <time>2016-04-07T14:26:27Z</time>
      </trkpt>
      <trkpt lat="47.18921" lon="-1.51384">
        <ele>26</ele>
        <time>2016-04-07T14:28:27Z</time>
      </trkpt>
      <trkpt lat="47.18916" lon="-1.51388">
        <ele>26</ele>
        <time>2016-04-07T14:30:27Z</time>
      </trkpt>
      <trkpt lat="47.18904" lon="-1.51399">
        <ele>26</ele>
        <time>2016-04-07T14:32:27Z</time>
      </trkpt>
      <trkpt lat="47.18896" lon="-1.51407">
        <ele>26</ele>
        <time>2016-04-07T14:34:27Z</time>
      </trkpt>
      <trkpt lat="47.18892" lon="-1.51411">
        <ele>26</ele>
        <time>2016-04-07T14:36:27Z</time>
      </trkpt>
      <trkpt lat="47.18879" lon="-1.51424">
        <ele>25</ele>
        <time>2016-04-07T14:38:27Z</time>
      </trkpt>
      <trkpt lat="47.18874" lon="-1.51429">
        <ele>25</ele>
        <time>2016-04-07T14:40:27Z</time>
      </trkpt>
      <trkpt lat="47.18871" lon="-1.51434">
        <ele>25</ele>
        <time>2016-04-07T14:42:27Z</time>
      </trkpt>
      <trkpt lat="47.18867" lon="-1.51439">
        <ele>25</ele>
        <time>2016-04-07T14:44:27Z</time>
      </trkpt>
      <trkpt lat="47.18863" lon="-1.51446">
        <ele>25</ele>
        <time>2016-04-07T14:46:27Z</time>
      </trkpt>
      <trkpt lat="47.1886" lon="-1.51452">
        <ele>25</ele>
        <time>2016-04-07T14:48:27Z</time>
      </trkpt>
      <trkpt lat="47.18857" lon="-1.51458">
        <ele>25</ele>
        <time>2016-04-07T14:50:27Z</time>
      </trkpt>
      <trkpt lat="47.18849" lon="-1.51471">
        <ele>25</ele>
        <time>2016-04-07T14:52:27Z</time>
      </trkpt>
      <trkpt lat="47.18822" lon="-1.51518">
        <ele>24</ele>
        <time>2016-04-07T14:54:27Z</time>
      </trkpt>
      <trkpt lat="47.18807" lon="-1.51545">
        <ele>24</ele>
        <time>2016-04-07T14:56:27Z</time>
      </trkpt>
      <trkpt lat="47.18802" lon="-1.51554">
        <ele>24</ele>
        <time>2016-04-07T14:58:27Z</time>
      </trkpt>
      <trkpt lat="47.18794" lon="-1.51569">
        <ele>24</ele>
        <time>2016-04-07T15:00:27Z</time>
      </trkpt>
      <trkpt lat="47.18786" lon="-1.51582">
        <ele>24</ele>
        <time>2016-04-07T15:02:27Z</time>
      </trkpt>
      <trkpt lat="47.18785" lon="-1.51585">
        <ele>24</ele>
        <time>2016-04-07T15:04:27Z</time>
      </trkpt>
      <trkpt lat="47.18776" lon="-1.51599">
        <ele>24</ele>
        <time>2016-04-07T15:06:27Z</time>
      </trkpt>
      <trkpt lat="47.18765" lon="-1.51615">
        <ele>23</ele>
        <time>2016-04-07T15:08:27Z</time>
      </trkpt>
      <trkpt lat="47.18725" lon="-1.51682">
        <ele>22</ele>
        <time>2016-04-07T15:10:27Z</time>
      </trkpt>
      <trkpt lat="47.18712" lon="-1.51704">
        <ele>22</ele>
        <time>2016-04-07T15:12:27Z</time>
      </trkpt>
      <trkpt lat="47.1871" lon="-1.51709">
        <ele>22</ele>
        <time>2016-04-07T15:14:27Z</time>
      </trkpt>
      <trkpt lat="47.18707" lon="-1.5172">
        <ele>22</ele>
        <time>2016-04-07T15:16:27Z</time>
      </trkpt>
      <trkpt lat="47.18706" lon="-1.51727">
        <ele>22</ele>
        <time>2016-04-07T15:18:27Z</time>
      </trkpt>
      <trkpt lat="47.18705" lon="-1.51735">
        <ele>23</ele>
        <time>2016-04-07T15:20:27Z</time>
      </trkpt>
      <trkpt lat="47.18706" lon="-1.51763">
        <ele>23</ele>
        <time>2016-04-07T15:22:27Z</time>
      </trkpt>
      <trkpt lat="47.18708" lon="-1.51779">
        <ele>23</ele>
        <time>2016-04-07T15:24:27Z</time>
      </trkpt>
      <trkpt lat="47.18711" lon="-1.51806">
        <ele>23</ele>
        <time>2016-04-07T15:26:27Z</time>
      </trkpt>
      <trkpt lat="47.18713" lon="-1.51823">
        <ele>23</ele>
        <time>2016-04-07T15:28:27Z</time>
      </trkpt>
      <trkpt lat="47.18713" lon="-1.51828">
        <ele>23</ele>
        <time>2016-04-07T15:30:27Z</time>
      </trkpt>
      <trkpt lat="47.18712" lon="-1.51832">
        <ele>23</ele>
        <time>2016-04-07T15:32:27Z</time>
      </trkpt>
      <trkpt lat="47.18712" lon="-1.51834">
        <ele>23</ele>
        <time>2016-04-07T15:34:27Z</time>
      </trkpt>
      <trkpt lat="47.18709" lon="-1.5184">
        <ele>23</ele>
        <time>2016-04-07T15:36:27Z</time>
      </trkpt>
      <trkpt lat="47.18709" lon="-1.5184">
        <ele>23</ele>
        <time>2016-04-07T15:38:27Z</time>
      </trkpt>
      <trkpt lat="47.18718" lon="-1.5186">
        <ele>24</ele>
        <time>2016-04-07T15:40:27Z</time>
      </trkpt>
      <trkpt lat="47.18726" lon="-1.51886">
        <ele>24</ele>
        <time>2016-04-07T15:42:27Z</time>
      </trkpt>
      <trkpt lat="47.18742" lon="-1.51948">
        <ele>25</ele>
        <time>2016-04-07T15:44:27Z</time>
      </trkpt>
      <trkpt lat="47.18751" lon="-1.51978">
        <ele>25</ele>
        <time>2016-04-07T15:46:27Z</time>
      </trkpt>
      <trkpt lat="47.18765" lon="-1.52016">
        <ele>25</ele>
        <time>2016-04-07T15:48:27Z</time>
      </trkpt>
      <trkpt lat="47.18776" lon="-1.52028">
        <ele>25</ele>
        <time>2016-04-07T15:50:27Z</time>
      </trkpt>
      <trkpt lat="47.18776" lon="-1.52028">
        <ele>25</ele>
        <time>2016-04-07T15:52:27Z</time>
      </trkpt>
      <trkpt lat="47.18777" lon="-1.52028">
        <ele>25</ele>
        <time>2016-04-07T15:54:27Z</time>
      </trkpt>
      <trkpt lat="47.18778" lon="-1.52028">
        <ele>25</ele>
        <time>2016-04-07T15:56:27Z</time>
      </trkpt>
      <trkpt lat="47.1878" lon="-1.52028">
        <ele>25</ele>
        <time>2016-04-07T15:58:27Z</time>
      </trkpt>
      <trkpt lat="47.18781" lon="-1.52028">
        <ele>25</ele>
        <time>2016-04-07T16:00:27Z</time>
      </trkpt>
      <trkpt lat="47.18782" lon="-1.52029">
        <ele>25</ele>
        <time>2016-04-07T16:02:27Z</time>
      </trkpt>
      <trkpt lat="47.18783" lon="-1.5203">
        <ele>25</ele>
        <time>2016-04-07T16:04:27Z</time>
      </trkpt>
      <trkpt lat="47.18784" lon="-1.5203">
        <ele>25</ele>
        <time>2016-04-07T16:06:27Z</time>
      </trkpt>
      <trkpt lat="47.18785" lon="-1.52031">
        <ele>25</ele>
        <time>2016-04-07T16:08:27Z</time>
      </trkpt>
      <trkpt lat="47.18786" lon="-1.52033">
        <ele>25</ele>
        <time>2016-04-07T16:10:27Z</time>
      </trkpt>
      <trkpt lat="47.18787" lon="-1.52034">
        <ele>25</ele>
        <time>2016-04-07T16:12:27Z</time>
      </trkpt>
      <trkpt lat="47.18787" lon="-1.52035">
        <ele>25</ele>
        <time>2016-04-07T16:14:27Z</time>
      </trkpt>
      <trkpt lat="47.18788" lon="-1.52036">
        <ele>25</ele>
        <time>2016-04-07T16:16:27Z</time>
      </trkpt>
      <trkpt lat="47.18788" lon="-1.52038">
        <ele>25</ele>
        <time>2016-04-07T16:18:27Z</time>
      </trkpt>
      <trkpt lat="47.18789" lon="-1.52039">
        <ele>25</ele>
        <time>2016-04-07T16:20:27Z</time>
      </trkpt>
      <trkpt lat="47.18789" lon="-1.52041">
        <ele>25</ele>
        <time>2016-04-07T16:22:27Z</time>
      </trkpt>
      <trkpt lat="47.18789" lon="-1.52043">
        <ele>24</ele>
        <time>2016-04-07T16:24:27Z</time>
      </trkpt>
      <trkpt lat="47.18789" lon="-1.52045">
        <ele>24</ele>
        <time>2016-04-07T16:26:27Z</time>
      </trkpt>
      <trkpt lat="47.18789" lon="-1.52046">
        <ele>24</ele>
        <time>2016-04-07T16:28:27Z</time>
      </trkpt>
      <trkpt lat="47.18789" lon="-1.52048">
        <ele>24</ele>
        <time>2016-04-07T16:30:27Z</time>
      </trkpt>
      <trkpt lat="47.18788" lon="-1.52049">
        <ele>24</ele>
        <time>2016-04-07T16:32:27Z</time>
      </trkpt>
      <trkpt lat="47.18788" lon="-1.5205">
        <ele>24</ele>
        <time>2016-04-07T16:34:27Z</time>
      </trkpt>
      <trkpt lat="47.18788" lon="-1.52052">
        <ele>24</ele>
        <time>2016-04-07T16:36:27Z</time>
      </trkpt>
      <trkpt lat="47.18787" lon="-1.52053">
        <ele>24</ele>
        <time>2016-04-07T16:38:27Z</time>
      </trkpt>
      <trkpt lat="47.18786" lon="-1.52054">
        <ele>24</ele>
        <time>2016-04-07T16:40:27Z</time>
      </trkpt>
      <trkpt lat="47.18786" lon="-1.52055">
        <ele>24</ele>
        <time>2016-04-07T16:42:27Z</time>
      </trkpt>
      <trkpt lat="47.18785" lon="-1.52056">
        <ele>24</ele>
        <time>2016-04-07T16:44:27Z</time>
      </trkpt>
      <trkpt lat="47.18784" lon="-1.52057">
        <ele>24</ele>
        <time>2016-04-07T16:46:27Z</time>
      </trkpt>
      <trkpt lat="47.18783" lon="-1.52058">
        <ele>24</ele>
        <time>2016-04-07T16:48:27Z</time>
      </trkpt>
      <trkpt lat="47.18782" lon="-1.52058">
        <ele>24</ele>
        <time>2016-04-07T16:50:27Z</time>
      </trkpt>
      <trkpt lat="47.18781" lon="-1.52059">
        <ele>24</ele>
        <time>2016-04-07T16:52:27Z</time>
      </trkpt>
      <trkpt lat="47.1878" lon="-1.52059">
        <ele>24</ele>
        <time>2016-04-07T16:54:27Z</time>
      </trkpt>
      <trkpt lat="47.18779" lon="-1.52059">
        <ele>24</ele>
        <time>2016-04-07T16:56:27Z</time>
      </trkpt>
      <trkpt lat="47.18778" lon="-1.52059">
        <ele>24</ele>
        <time>2016-04-07T16:58:27Z</time>
      </trkpt>
      <trkpt lat="47.18777" lon="-1.52059">
        <ele>24</ele>
        <time>2016-04-07T17:00:27Z</time>
      </trkpt>
      <trkpt lat="47.18776" lon="-1.52059">
        <ele>24</ele>
        <time>2016-04-07T17:02:27Z</time>
      </trkpt>
      <trkpt lat="47.18775" lon="-1.52058">
        <ele>24</ele>
        <time>2016-04-07T17:04:27Z</time>
      </trkpt>
      <trkpt lat="47.18767" lon="-1.52069">
        <ele>24</ele>
        <time>2016-04-07T17:06:27Z</time>
      </trkpt>
      <trkpt lat="47.18764" lon="-1.52073">
        <ele>24</ele>
        <time>2016-04-07T17:08:27Z</time>
      </trkpt>
      <trkpt lat="47.18761" lon="-1.52076">
        <ele>24</ele>
        <time>2016-04-07T17:10:27Z</time>
      </trkpt>
      <trkpt lat="47.18758" lon="-1.52079">
        <ele>24</ele>
        <time>2016-04-07T17:12:27Z</time>
      </trkpt>
      <trkpt lat="47.18754" lon="-1.52083">
        <ele>24</ele>
        <time>2016-04-07T17:14:27Z</time>
      </trkpt>
      <trkpt lat="47.18751" lon="-1.52086">
        <ele>24</ele>
        <time>2016-04-07T17:16:27Z</time>
      </trkpt>
      <trkpt lat="47.18748" lon="-1.5209">
        <ele>24</ele>
        <time>2016-04-07T17:18:27Z</time>
      </trkpt>
      <trkpt lat="47.18744" lon="-1.52094">
        <ele>24</ele>
        <time>2016-04-07T17:20:27Z</time>
      </trkpt>
      <trkpt lat="47.1874" lon="-1.52097">
        <ele>24</ele>
        <time>2016-04-07T17:22:27Z</time>
      </trkpt>
      <trkpt lat="47.18737" lon="-1.52101">
        <ele>24</ele>
        <time>2016-04-07T17:24:27Z</time>
      </trkpt>
      <trkpt lat="47.18733" lon="-1.52105">
        <ele>24</ele>
        <time>2016-04-07T17:26:27Z</time>
      </trkpt>
      <trkpt lat="47.1873" lon="-1.52109">
        <ele>24</ele>
        <time>2016-04-07T17:28:27Z</time>
      </trkpt>
      <trkpt lat="47.18726" lon="-1.52112">
        <ele>23</ele>
        <time>2016-04-07T17:30:27Z</time>
      </trkpt>
      <trkpt lat="47.18723" lon="-1.52116">
        <ele>23</ele>
        <time>2016-04-07T17:32:27Z</time>
      </trkpt>
      <trkpt lat="47.1872" lon="-1.52119">
        <ele>23</ele>
        <time>2016-04-07T17:34:27Z</time>
      </trkpt>
      <trkpt lat="47.18717" lon="-1.52123">
        <ele>23</ele>
        <time>2016-04-07T17:36:27Z</time>
      </trkpt>
      <trkpt lat="47.18713" lon="-1.52126">
        <ele>23</ele>
        <time>2016-04-07T17:38:27Z</time>
      </trkpt>
      <trkpt lat="47.1871" lon="-1.52129">
        <ele>23</ele>
        <time>2016-04-07T17:40:27Z</time>
      </trkpt>
      <trkpt lat="47.18706" lon="-1.52132">
        <ele>23</ele>
        <time>2016-04-07T17:42:27Z</time>
      </trkpt>
      <trkpt lat="47.18703" lon="-1.52134">
        <ele>22</ele>
        <time>2016-04-07T17:44:27Z</time>
      </trkpt>
      <trkpt lat="47.18698" lon="-1.52138">
        <ele>22</ele>
        <time>2016-04-07T17:46:27Z</time>
      </trkpt>
      <trkpt lat="47.18694" lon="-1.52142">
        <ele>22</ele>
        <time>2016-04-07T17:48:27Z</time>
      </trkpt>
      <trkpt lat="47.1869" lon="-1.52147">
        <ele>22</ele>
        <time>2016-04-07T17:50:27Z</time>
      </trkpt>
      <trkpt lat="47.18686" lon="-1.52151">
        <ele>21</ele>
        <time>2016-04-07T17:52:27Z</time>
      </trkpt>
      <trkpt lat="47.18682" lon="-1.52155">
        <ele>21</ele>
        <time>2016-04-07T17:54:27Z</time>
      </trkpt>
      <trkpt lat="47.18679" lon="-1.5216">
        <ele>21</ele>
        <time>2016-04-07T17:56:27Z</time>
      </trkpt>
      <trkpt lat="47.18676" lon="-1.52163">
        <ele>21</ele>
        <time>2016-04-07T17:58:27Z</time>
      </trkpt>
      <trkpt lat="47.18673" lon="-1.52168">
        <ele>20</ele>
        <time>2016-04-07T18:00:27Z</time>
      </trkpt>
      <trkpt lat="47.1867" lon="-1.52172">
        <ele>20</ele>
        <time>2016-04-07T18:02:27Z</time>
      </trkpt>
      <trkpt lat="47.18667" lon="-1.52177">
        <ele>20</ele>
        <time>2016-04-07T18:04:27Z</time>
      </trkpt>
      <trkpt lat="47.18663" lon="-1.52182">
        <ele>20</ele>
        <time>2016-04-07T18:06:27Z</time>
      </trkpt>
      <trkpt lat="47.18658" lon="-1.5219">
        <ele>19</ele>
        <time>2016-04-07T18:08:27Z</time>
      </trkpt>
      <trkpt lat="47.18655" lon="-1.52194">
        <ele>19</ele>
        <time>2016-04-07T18:10:27Z</time>
      </trkpt>
      <trkpt lat="47.1865" lon="-1.52201">
        <ele>19</ele>
        <time>2016-04-07T18:12:27Z</time>
      </trkpt>
      <trkpt lat="47.18645" lon="-1.52208">
        <ele>19</ele>
        <time>2016-04-07T18:14:27Z</time>
      </trkpt>
      <trkpt lat="47.18641" lon="-1.52214">
        <ele>19</ele>
        <time>2016-04-07T18:16:27Z</time>
      </trkpt>
      <trkpt lat="47.18636" lon="-1.52222">
        <ele>18</ele>
        <time>2016-04-07T18:18:27Z</time>
      </trkpt>
      <trkpt lat="47.18632" lon="-1.52229">
        <ele>18</ele>
        <time>2016-04-07T18:20:27Z</time>
      </trkpt>
      <trkpt lat="47.18628" lon="-1.52234">
        <ele>18</ele>
        <time>2016-04-07T18:22:27Z</time>
      </trkpt>
      <trkpt lat="47.18628" lon="-1.52235">
        <ele>18</ele>
        <time>2016-04-07T18:24:27Z</time>
      </trkpt>
      <trkpt lat="47.18627" lon="-1.52237">
        <ele>18</ele>
        <time>2016-04-07T18:26:27Z</time>
      </trkpt>
      <trkpt lat="47.18624" lon="-1.5224">
        <ele>18</ele>
        <time>2016-04-07T18:28:27Z</time>
      </trkpt>
      <trkpt lat="47.1862" lon="-1.52246">
        <ele>17</ele>
        <time>2016-04-07T18:30:27Z</time>
      </trkpt>
      <trkpt lat="47.18618" lon="-1.5225">
        <ele>17</ele>
        <time>2016-04-07T18:32:27Z</time>
      </trkpt>
      <trkpt lat="47.18614" lon="-1.52257">
        <ele>17</ele>
        <time>2016-04-07T18:34:27Z</time>
      </trkpt>
      <trkpt lat="47.18611" lon="-1.52262">
        <ele>17</ele>
        <time>2016-04-07T18:36:27Z</time>
      </trkpt>
      <trkpt lat="47.18608" lon="-1.52267">
        <ele>17</ele>
        <time>2016-04-07T18:38:27Z</time>
      </trkpt>
      <trkpt lat="47.18606" lon="-1.52273">
        <ele>17</ele>
        <time>2016-04-07T18:40:27Z</time>
      </trkpt>
      <trkpt lat="47.18602" lon="-1.52287">
        <ele>16</ele>
        <time>2016-04-07T18:42:27Z</time>
      </trkpt>
      <trkpt lat="47.18602" lon="-1.52288">
        <ele>16</ele>
        <time>2016-04-07T18:44:27Z</time>
      </trkpt>
      <trkpt lat="47.18602" lon="-1.52289">
        <ele>16</ele>
        <time>2016-04-07T18:46:27Z</time>
      </trkpt>
      <trkpt lat="47.18602" lon="-1.5229">
        <ele>16</ele>
        <time>2016-04-07T18:48:27Z</time>
      </trkpt>
      <trkpt lat="47.18602" lon="-1.52291">
        <ele>16</ele>
        <time>2016-04-07T18:50:27Z</time>
      </trkpt>
      <trkpt lat="47.18602" lon="-1.52292">
        <ele>16</ele>
        <time>2016-04-07T18:52:27Z</time>
      </trkpt>
      <trkpt lat="47.18601" lon="-1.52293">
        <ele>16</ele>
        <time>2016-04-07T18:54:27Z</time>
      </trkpt>
      <trkpt lat="47.18601" lon="-1.52294">
        <ele>16</ele>
        <time>2016-04-07T18:56:27Z</time>
      </trkpt>
      <trkpt lat="47.18601" lon="-1.52295">
        <ele>16</ele>
        <time>2016-04-07T18:58:27Z</time>
      </trkpt>
      <trkpt lat="47.18601" lon="-1.52296">
        <ele>16</ele>
        <time>2016-04-07T19:00:27Z</time>
      </trkpt>
      <trkpt lat="47.18601" lon="-1.52297">
        <ele>16</ele>
        <time>2016-04-07T19:02:27Z</time>
      </trkpt>
      <trkpt lat="47.186" lon="-1.52298">
        <ele>16</ele>
        <time>2016-04-07T19:04:27Z</time>
      </trkpt>
      <trkpt lat="47.186" lon="-1.52299">
        <ele>16</ele>
        <time>2016-04-07T19:06:27Z</time>
      </trkpt>
      <trkpt lat="47.18599" lon="-1.523">
        <ele>16</ele>
        <time>2016-04-07T19:08:27Z</time>
      </trkpt>
      <trkpt lat="47.18599" lon="-1.52301">
        <ele>16</ele>
        <time>2016-04-07T19:10:27Z</time>
      </trkpt>
      <trkpt lat="47.18598" lon="-1.52302">
        <ele>16</ele>
        <time>2016-04-07T19:12:27Z</time>
      </trkpt>
      <trkpt lat="47.18598" lon="-1.52303">
        <ele>16</ele>
        <time>2016-04-07T19:14:27Z</time>
      </trkpt>
      <trkpt lat="47.18597" lon="-1.52303">
        <ele>16</ele>
        <time>2016-04-07T19:16:27Z</time>
      </trkpt>
      <trkpt lat="47.18597" lon="-1.52304">
        <ele>16</ele>
        <time>2016-04-07T19:18:27Z</time>
      </trkpt>
      <trkpt lat="47.18596" lon="-1.52304">
        <ele>16</ele>
        <time>2016-04-07T19:20:27Z</time>
      </trkpt>
      <trkpt lat="47.18596" lon="-1.52305">
        <ele>16</ele>
        <time>2016-04-07T19:22:27Z</time>
      </trkpt>
      <trkpt lat="47.18595" lon="-1.52305">
        <ele>16</ele>
        <time>2016-04-07T19:24:27Z</time>
      </trkpt>
      <trkpt lat="47.18595" lon="-1.52306">
        <ele>16</ele>
        <time>2016-04-07T19:26:27Z</time>
      </trkpt>
      <trkpt lat="47.18594" lon="-1.52306">
        <ele>16</ele>
        <time>2016-04-07T19:28:27Z</time>
      </trkpt>
      <trkpt lat="47.18593" lon="-1.52306">
        <ele>16</ele>
        <time>2016-04-07T19:30:27Z</time>
      </trkpt>
      <trkpt lat="47.18592" lon="-1.52307">
        <ele>16</ele>
        <time>2016-04-07T19:32:27Z</time>
      </trkpt>
      <trkpt lat="47.18591" lon="-1.52307">
        <ele>16</ele>
        <time>2016-04-07T19:34:27Z</time>
      </trkpt>
      <trkpt lat="47.1859" lon="-1.52307">
        <ele>16</ele>
        <time>2016-04-07T19:36:27Z</time>
      </trkpt>
      <trkpt lat="47.18589" lon="-1.52307">
        <ele>16</ele>
        <time>2016-04-07T19:38:27Z</time>
      </trkpt>
      <trkpt lat="47.18588" lon="-1.52307">
        <ele>16</ele>
        <time>2016-04-07T19:40:27Z</time>
      </trkpt>
      <trkpt lat="47.18587" lon="-1.52306">
        <ele>16</ele>
        <time>2016-04-07T19:42:27Z</time>
      </trkpt>
      <trkpt lat="47.18586" lon="-1.52306">
        <ele>15</ele>
        <time>2016-04-07T19:44:27Z</time>
      </trkpt>
      <trkpt lat="47.18563" lon="-1.52339">
        <ele>15</ele>
        <time>2016-04-07T19:46:27Z</time>
      </trkpt>
      <trkpt lat="47.18545" lon="-1.52366">
        <ele>16</ele>
        <time>2016-04-07T19:48:27Z</time>
      </trkpt>
      <trkpt lat="47.18535" lon="-1.52381">
        <ele>16</ele>
        <time>2016-04-07T19:50:27Z</time>
      </trkpt>
      <trkpt lat="47.18516" lon="-1.52418">
        <ele>15</ele>
        <time>2016-04-07T19:52:27Z</time>
      </trkpt>
      <trkpt lat="47.18508" lon="-1.52433">
        <ele>15</ele>
        <time>2016-04-07T19:54:27Z</time>
      </trkpt>
      <trkpt lat="47.18502" lon="-1.52441">
        <ele>14</ele>
        <time>2016-04-07T19:56:27Z</time>
      </trkpt>
      <trkpt lat="47.18496" lon="-1.52449">
        <ele>14</ele>
        <time>2016-04-07T19:58:27Z</time>
      </trkpt>
      <trkpt lat="47.18484" lon="-1.52461">
        <ele>14</ele>
        <time>2016-04-07T20:00:27Z</time>
      </trkpt>
      <trkpt lat="47.18479" lon="-1.52468">
        <ele>14</ele>
        <time>2016-04-07T20:02:27Z</time>
      </trkpt>
      <trkpt lat="47.18479" lon="-1.52468">
        <ele>14</ele>
        <time>2016-04-07T20:04:27Z</time>
      </trkpt>
      <trkpt lat="47.1848" lon="-1.5247">
        <ele>14</ele>
        <time>2016-04-07T20:06:27Z</time>
      </trkpt>
      <trkpt lat="47.1848" lon="-1.52473">
        <ele>14</ele>
        <time>2016-04-07T20:08:27Z</time>
      </trkpt>
      <trkpt lat="47.1848" lon="-1.52475">
        <ele>14</ele>
        <time>2016-04-07T20:10:27Z</time>
      </trkpt>
      <trkpt lat="47.1848" lon="-1.52478">
        <ele>14</ele>
        <time>2016-04-07T20:12:27Z</time>
      </trkpt>
      <trkpt lat="47.1848" lon="-1.5248">
        <ele>14</ele>
        <time>2016-04-07T20:14:27Z</time>
      </trkpt>
      <trkpt lat="47.18479" lon="-1.52483">
        <ele>14</ele>
        <time>2016-04-07T20:16:27Z</time>
      </trkpt>
      <trkpt lat="47.18477" lon="-1.52485">
        <ele>14</ele>
        <time>2016-04-07T20:18:27Z</time>
      </trkpt>
      <trkpt lat="47.18474" lon="-1.52486">
        <ele>14</ele>
        <time>2016-04-07T20:20:27Z</time>
      </trkpt>
      <trkpt lat="47.18472" lon="-1.52486">
        <ele>14</ele>
        <time>2016-04-07T20:22:27Z</time>
      </trkpt>
      <trkpt lat="47.18471" lon="-1.52486">
        <ele>14</ele>
        <time>2016-04-07T20:24:27Z</time>
      </trkpt>
      <trkpt lat="47.18469" lon="-1.52485">
        <ele>14</ele>
        <time>2016-04-07T20:26:27Z</time>
      </trkpt>
      <trkpt lat="47.18467" lon="-1.52483">
        <ele>14</ele>
        <time>2016-04-07T20:28:27Z</time>
      </trkpt>
      <trkpt lat="47.18459" lon="-1.52477">
        <ele>14</ele>
        <time>2016-04-07T20:30:27Z</time>
      </trkpt>
      <trkpt lat="47.18457" lon="-1.52474">
        <ele>14</ele>
        <time>2016-04-07T20:32:27Z</time>
      </trkpt>
      <trkpt lat="47.18457" lon="-1.52474">
        <ele>14</ele>
        <time>2016-04-07T20:34:27Z</time>
      </trkpt>
      <trkpt lat="47.18455" lon="-1.52476">
        <ele>14</ele>
        <time>2016-04-07T20:36:27Z</time>
      </trkpt>
      <trkpt lat="47.18453" lon="-1.52476">
        <ele>14</ele>
        <time>2016-04-07T20:38:27Z</time>
      </trkpt>
      <trkpt lat="47.18452" lon="-1.52477">
        <ele>14</ele>
        <time>2016-04-07T20:40:27Z</time>
      </trkpt>
      <trkpt lat="47.18451" lon="-1.52476">
        <ele>14</ele>
        <time>2016-04-07T20:42:27Z</time>
      </trkpt>
      <trkpt lat="47.18449" lon="-1.52476">
        <ele>14</ele>
        <time>2016-04-07T20:44:27Z</time>
      </trkpt>
      <trkpt lat="47.18447" lon="-1.52474">
        <ele>14</ele>
        <time>2016-04-07T20:46:27Z</time>
      </trkpt>
      <trkpt lat="47.18446" lon="-1.52473">
        <ele>14</ele>
        <time>2016-04-07T20:48:27Z</time>
      </trkpt>
      <trkpt lat="47.18445" lon="-1.52472">
        <ele>14</ele>
        <time>2016-04-07T20:50:27Z</time>
      </trkpt>
      <trkpt lat="47.18444" lon="-1.52468">
        <ele>14</ele>
        <time>2016-04-07T20:52:27Z</time>
      </trkpt>
      <trkpt lat="47.18443" lon="-1.52466">
        <ele>15</ele>
        <time>2016-04-07T20:54:27Z</time>
      </trkpt>
      <trkpt lat="47.18443" lon="-1.52465">
        <ele>15</ele>
        <time>2016-04-07T20:56:27Z</time>
      </trkpt>
      <trkpt lat="47.18443" lon="-1.52462">
        <ele>15</ele>
        <time>2016-04-07T20:58:27Z</time>
      </trkpt>
      <trkpt lat="47.18443" lon="-1.52459">
        <ele>15</ele>
        <time>2016-04-07T21:00:27Z</time>
      </trkpt>
      <trkpt lat="47.18425" lon="-1.52466">
        <ele>15</ele>
        <time>2016-04-07T21:02:27Z</time>
      </trkpt>
      <trkpt lat="47.18399" lon="-1.52473">
        <ele>14</ele>
        <time>2016-04-07T21:04:27Z</time>
      </trkpt>
      <trkpt lat="47.1838" lon="-1.52481">
        <ele>12</ele>
        <time>2016-04-07T21:06:27Z</time>
      </trkpt>
      <trkpt lat="47.18364" lon="-1.52489">
        <ele>11</ele>
        <time>2016-04-07T21:08:27Z</time>
      </trkpt>
      <trkpt lat="47.18334" lon="-1.52501">
        <ele>9</ele>
        <time>2016-04-07T21:10:27Z</time>
      </trkpt>
      <trkpt lat="47.18324" lon="-1.52503">
        <ele>9</ele>
        <time>2016-04-07T21:12:27Z</time>
      </trkpt>
      <trkpt lat="47.18324" lon="-1.52503">
        <ele>9</ele>
        <time>2016-04-07T21:14:27Z</time>
      </trkpt>
      <trkpt lat="47.18316" lon="-1.52504">
        <ele>8</ele>
        <time>2016-04-07T21:16:27Z</time>
      </trkpt>
      <trkpt lat="47.18311" lon="-1.52505">
        <ele>8</ele>
        <time>2016-04-07T21:18:27Z</time>
      </trkpt>
      <trkpt lat="47.18306" lon="-1.52506">
        <ele>8</ele>
        <time>2016-04-07T21:20:27Z</time>
      </trkpt>
      <trkpt lat="47.18274" lon="-1.52512">
        <ele>6</ele>
        <time>2016-04-07T21:22:27Z</time>
      </trkpt>
      <trkpt lat="47.18248" lon="-1.52516">
        <ele>5</ele>
        <time>2016-04-07T21:24:27Z</time>
      </trkpt>
      <trkpt lat="47.18219" lon="-1.52522">
        <ele>5</ele>
        <time>2016-04-07T21:26:27Z</time>
      </trkpt>
      <trkpt lat="47.18198" lon="-1.52525">
        <ele>5</ele>
        <time>2016-04-07T21:28:27Z</time>
      </trkpt>
      <trkpt lat="47.18196" lon="-1.52526">
        <ele>5</ele>
        <time>2016-04-07T21:30:27Z</time>
      </trkpt>
      <trkpt lat="47.1819" lon="-1.52527">
        <ele>5</ele>
        <time>2016-04-07T21:32:27Z</time>
      </trkpt>
      <trkpt lat="47.18187" lon="-1.52527">
        <ele>5</ele>
        <time>2016-04-07T21:34:27Z</time>
      </trkpt>
      <trkpt lat="47.18183" lon="-1.52528">
        <ele>5</ele>
        <time>2016-04-07T21:36:27Z</time>
      </trkpt>
      <trkpt lat="47.18168" lon="-1.52531">
        <ele>5</ele>
        <time>2016-04-07T21:38:27Z</time>
      </trkpt>
      <trkpt lat="47.18162" lon="-1.52532">
        <ele>5</ele>
        <time>2016-04-07T21:40:27Z</time>
      </trkpt>
      <trkpt lat="47.18148" lon="-1.52534">
        <ele>5</ele>
        <time>2016-04-07T21:42:27Z</time>
      </trkpt>
      <trkpt lat="47.18141" lon="-1.52535">
        <ele>5</ele>
        <time>2016-04-07T21:44:27Z</time>
      </trkpt>
      <trkpt lat="47.18137" lon="-1.52535">
        <ele>5</ele>
        <time>2016-04-07T21:46:27Z</time>
      </trkpt>
      <trkpt lat="47.18136" lon="-1.52536">
        <ele>5</ele>
        <time>2016-04-07T21:48:27Z</time>
      </trkpt>
      <trkpt lat="47.18111" lon="-1.5254">
        <ele>6</ele>
        <time>2016-04-07T21:50:27Z</time>
      </trkpt>
      <trkpt lat="47.18099" lon="-1.52542">
        <ele>6</ele>
        <time>2016-04-07T21:52:27Z</time>
      </trkpt>
      <trkpt lat="47.18096" lon="-1.52543">
        <ele>6</ele>
        <time>2016-04-07T21:54:27Z</time>
      </trkpt>
      <trkpt lat="47.18083" lon="-1.52548">
        <ele>6</ele>
        <time>2016-04-07T21:56:27Z</time>
      </trkpt>
      <trkpt lat="47.18067" lon="-1.52554">
        <ele>6</ele>
        <time>2016-04-07T21:58:27Z</time>
      </trkpt>
      <trkpt lat="47.18059" lon="-1.52559">
        <ele>7</ele>
        <time>2016-04-07T22:00:27Z</time>
      </trkpt>
      <trkpt lat="47.18045" lon="-1.52567">
        <ele>7</ele>
        <time>2016-04-07T22:02:27Z</time>
      </trkpt>
      <trkpt lat="47.18037" lon="-1.52574">
        <ele>7</ele>
        <time>2016-04-07T22:04:27Z</time>
      </trkpt>
      <trkpt lat="47.18026" lon="-1.52584">
        <ele>8</ele>
        <time>2016-04-07T22:06:27Z</time>
      </trkpt>
      <trkpt lat="47.18012" lon="-1.52598">
        <ele>8</ele>
        <time>2016-04-07T22:08:27Z</time>
      </trkpt>
      <trkpt lat="47.18008" lon="-1.52605">
        <ele>8</ele>
        <time>2016-04-07T22:10:27Z</time>
      </trkpt>
      <trkpt lat="47.18005" lon="-1.52608">
        <ele>8</ele>
        <time>2016-04-07T22:12:27Z</time>
      </trkpt>
      <trkpt lat="47.18005" lon="-1.52609">
        <ele>9</ele>
        <time>2016-04-07T22:14:27Z</time>
      </trkpt>
      <trkpt lat="47.18" lon="-1.52615">
        <ele>9</ele>
        <time>2016-04-07T22:16:27Z</time>
      </trkpt>
      <trkpt lat="47.17989" lon="-1.52632">
        <ele>10</ele>
        <time>2016-04-07T22:18:27Z</time>
      </trkpt>
      <trkpt lat="47.17978" lon="-1.52651">
        <ele>10</ele>
        <time>2016-04-07T22:20:27Z</time>
      </trkpt>
      <trkpt lat="47.17973" lon="-1.52661">
        <ele>11</ele>
        <time>2016-04-07T22:22:27Z</time>
      </trkpt>
      <trkpt lat="47.17973" lon="-1.52661">
        <ele>11</ele>
        <time>2016-04-07T22:24:27Z</time>
      </trkpt>
      <trkpt lat="47.17965" lon="-1.52679">
        <ele>12</ele>
        <time>2016-04-07T22:26:27Z</time>
      </trkpt>
      <trkpt lat="47.17963" lon="-1.52682">
        <ele>12</ele>
        <time>2016-04-07T22:28:27Z</time>
      </trkpt>
      <trkpt lat="47.17932" lon="-1.52751">
        <ele>13</ele>
        <time>2016-04-07T22:30:27Z</time>
      </trkpt>
      <trkpt lat="47.17923" lon="-1.52773">
        <ele>13</ele>
        <time>2016-04-07T22:32:27Z</time>
      </trkpt>
      <trkpt lat="47.17914" lon="-1.52797">
        <ele>14</ele>
        <time>2016-04-07T22:34:27Z</time>
      </trkpt>
      <trkpt lat="47.17911" lon="-1.52802">
        <ele>14</ele>
        <time>2016-04-07T22:36:27Z</time>
      </trkpt>
      <trkpt lat="47.17907" lon="-1.52809">
        <ele>14</ele>
        <time>2016-04-07T22:38:27Z</time>
      </trkpt>
      <trkpt lat="47.179" lon="-1.52819">
        <ele>15</ele>
        <time>2016-04-07T22:40:27Z</time>
      </trkpt>
      <trkpt lat="47.17894" lon="-1.52827">
        <ele>15</ele>
        <time>2016-04-07T22:42:27Z</time>
      </trkpt>
      <trkpt lat="47.17894" lon="-1.52828">
        <ele>15</ele>
        <time>2016-04-07T22:44:27Z</time>
      </trkpt>
      <trkpt lat="47.17894" lon="-1.52829">
        <ele>15</ele>
        <time>2016-04-07T22:46:27Z</time>
      </trkpt>
      <trkpt lat="47.17894" lon="-1.5283">
        <ele>15</ele>
        <time>2016-04-07T22:48:27Z</time>
      </trkpt>
      <trkpt lat="47.17894" lon="-1.52831">
        <ele>15</ele>
        <time>2016-04-07T22:50:27Z</time>
      </trkpt>
      <trkpt lat="47.17894" lon="-1.52832">
        <ele>15</ele>
        <time>2016-04-07T22:52:27Z</time>
      </trkpt>
      <trkpt lat="47.17894" lon="-1.52833">
        <ele>15</ele>
        <time>2016-04-07T22:54:27Z</time>
      </trkpt>
      <trkpt lat="47.17893" lon="-1.52833">
        <ele>15</ele>
        <time>2016-04-07T22:56:27Z</time>
      </trkpt>
      <trkpt lat="47.17893" lon="-1.52834">
        <ele>15</ele>
        <time>2016-04-07T22:58:27Z</time>
      </trkpt>
      <trkpt lat="47.17893" lon="-1.52835">
        <ele>15</ele>
        <time>2016-04-07T23:00:27Z</time>
      </trkpt>
      <trkpt lat="47.17893" lon="-1.52836">
        <ele>15</ele>
        <time>2016-04-07T23:02:27Z</time>
      </trkpt>
      <trkpt lat="47.17892" lon="-1.52836">
        <ele>15</ele>
        <time>2016-04-07T23:04:27Z</time>
      </trkpt>
      <trkpt lat="47.17892" lon="-1.52837">
        <ele>15</ele>
        <time>2016-04-07T23:06:27Z</time>
      </trkpt>
      <trkpt lat="47.17891" lon="-1.52837">
        <ele>15</ele>
        <time>2016-04-07T23:08:27Z</time>
      </trkpt>
      <trkpt lat="47.17891" lon="-1.52838">
        <ele>15</ele>
        <time>2016-04-07T23:10:27Z</time>
      </trkpt>
      <trkpt lat="47.1789" lon="-1.52838">
        <ele>15</ele>
        <time>2016-04-07T23:12:27Z</time>
      </trkpt>
      <trkpt lat="47.17888" lon="-1.52847">
        <ele>16</ele>
        <time>2016-04-07T23:14:27Z</time>
      </trkpt>
      <trkpt lat="47.17888" lon="-1.52849">
        <ele>16</ele>
        <time>2016-04-07T23:16:27Z</time>
      </trkpt>
      <trkpt lat="47.17888" lon="-1.52851">
        <ele>16</ele>
        <time>2016-04-07T23:18:27Z</time>
      </trkpt>
      <trkpt lat="47.17887" lon="-1.52853">
        <ele>16</ele>
        <time>2016-04-07T23:20:27Z</time>
      </trkpt>
      <trkpt lat="47.17887" lon="-1.52855">
        <ele>16</ele>
        <time>2016-04-07T23:22:27Z</time>
      </trkpt>
      <trkpt lat="47.17886" lon="-1.52858">
        <ele>16</ele>
        <time>2016-04-07T23:24:27Z</time>
      </trkpt>
      <trkpt lat="47.17886" lon="-1.52861">
        <ele>16</ele>
        <time>2016-04-07T23:26:27Z</time>
      </trkpt>
      <trkpt lat="47.17884" lon="-1.52865">
        <ele>16</ele>
        <time>2016-04-07T23:28:27Z</time>
      </trkpt>
      <trkpt lat="47.17882" lon="-1.52869">
        <ele>17</ele>
        <time>2016-04-07T23:30:27Z</time>
      </trkpt>
      <trkpt lat="47.17879" lon="-1.52875">
        <ele>17</ele>
        <time>2016-04-07T23:32:27Z</time>
      </trkpt>
      <trkpt lat="47.17873" lon="-1.52886">
        <ele>17</ele>
        <time>2016-04-07T23:34:27Z</time>
      </trkpt>
      <trkpt lat="47.17868" lon="-1.52894">
        <ele>18</ele>
        <time>2016-04-07T23:36:27Z</time>
      </trkpt>
      <trkpt lat="47.17863" lon="-1.529">
        <ele>18</ele>
        <time>2016-04-07T23:38:27Z</time>
      </trkpt>
      <trkpt lat="47.17857" lon="-1.52906">
        <ele>18</ele>
        <time>2016-04-07T23:40:27Z</time>
      </trkpt>
      <trkpt lat="47.17845" lon="-1.52919">
        <ele>19</ele>
        <time>2016-04-07T23:42:27Z</time>
      </trkpt>
      <trkpt lat="47.17841" lon="-1.52922">
        <ele>19</ele>
        <time>2016-04-07T23:44:27Z</time>
      </trkpt>
      <trkpt lat="47.17835" lon="-1.52927">
        <ele>19</ele>
        <time>2016-04-07T23:46:27Z</time>
      </trkpt>
      <trkpt lat="47.17829" lon="-1.52931">
        <ele>19</ele>
        <time>2016-04-07T23:48:27Z</time>
      </trkpt>
      <trkpt lat="47.17823" lon="-1.52935">
        <ele>20</ele>
        <time>2016-04-07T23:50:27Z</time>
      </trkpt>
      <trkpt lat="47.17816" lon="-1.52941">
        <ele>20</ele>
        <time>2016-04-07T23:52:27Z</time>
      </trkpt>
      <trkpt lat="47.17808" lon="-1.52946">
        <ele>20</ele>
        <time>2016-04-07T23:54:27Z</time>
      </trkpt>
      <trkpt lat="47.17804" lon="-1.5295">
        <ele>20</ele>
        <time>2016-04-07T23:56:27Z</time>
      </trkpt>
      <trkpt lat="47.17802" lon="-1.52959">
        <ele>21</ele>
        <time>2016-04-07T23:58:27Z</time>
      </trkpt>
      <trkpt lat="47.17801" lon="-1.52974">
        <ele>21</ele>
        <time>2016-04-08T00:00:27Z</time>
      </trkpt>
      <trkpt lat="47.17801" lon="-1.52974">
        <ele>21</ele>
        <time>2016-04-08T00:02:27Z</time>
      </trkpt>
      <trkpt lat="47.17804" lon="-1.52978">
        <ele>21</ele>
        <time>2016-04-08T00:04:27Z</time>
      </trkpt>
      <trkpt lat="47.17812" lon="-1.52995">
        <ele>21</ele>
        <time>2016-04-08T00:06:27Z</time>
      </trkpt>
      <trkpt lat="47.17815" lon="-1.53">
        <ele>21</ele>
        <time>2016-04-08T00:08:27Z</time>
      </trkpt>
      <trkpt lat="47.17838" lon="-1.53044">
        <ele>22</ele>
        <time>2016-04-08T00:10:27Z</time>
      </trkpt>
      <trkpt lat="47.17859" lon="-1.53078">
        <ele>23</ele>
        <time>2016-04-08T00:12:27Z</time>
      </trkpt>
      <trkpt lat="47.17872" lon="-1.53097">
        <ele>23</ele>
        <time>2016-04-08T00:14:27Z</time>
      </trkpt>
      <trkpt lat="47.17872" lon="-1.53097">
        <ele>23</ele>
        <time>2016-04-08T00:16:27Z</time>
      </trkpt>
      <trkpt lat="47.17872" lon="-1.53096">
        <ele>23</ele>
        <time>2016-04-08T00:18:27Z</time>
      </trkpt>
      <trkpt lat="47.17873" lon="-1.53096">
        <ele>23</ele>
        <time>2016-04-08T00:20:27Z</time>
      </trkpt>
      <trkpt lat="47.17874" lon="-1.53095">
        <ele>23</ele>
        <time>2016-04-08T00:22:27Z</time>
      </trkpt>
      <trkpt lat="47.17875" lon="-1.53095">
        <ele>23</ele>
        <time>2016-04-08T00:24:27Z</time>
      </trkpt>
      <trkpt lat="47.17876" lon="-1.53094">
        <ele>23</ele>
        <time>2016-04-08T00:26:27Z</time>
      </trkpt>
      <trkpt lat="47.17877" lon="-1.53094">
        <ele>23</ele>
        <time>2016-04-08T00:28:27Z</time>
      </trkpt>
      <trkpt lat="47.17878" lon="-1.53094">
        <ele>23</ele>
        <time>2016-04-08T00:30:27Z</time>
      </trkpt>
      <trkpt lat="47.17879" lon="-1.53094">
        <ele>23</ele>
        <time>2016-04-08T00:32:27Z</time>
      </trkpt>
      <trkpt lat="47.17879" lon="-1.53095">
        <ele>23</ele>
        <time>2016-04-08T00:34:27Z</time>
      </trkpt>
      <trkpt lat="47.1788" lon="-1.53095">
        <ele>23</ele>
        <time>2016-04-08T00:36:27Z</time>
      </trkpt>
      <trkpt lat="47.17881" lon="-1.53095">
        <ele>23</ele>
        <time>2016-04-08T00:38:27Z</time>
      </trkpt>
      <trkpt lat="47.17881" lon="-1.53096">
        <ele>23</ele>
        <time>2016-04-08T00:40:27Z</time>
      </trkpt>
      <trkpt lat="47.17882" lon="-1.53096">
        <ele>23</ele>
        <time>2016-04-08T00:42:27Z</time>
      </trkpt>
      <trkpt lat="47.17883" lon="-1.53097">
        <ele>23</ele>
        <time>2016-04-08T00:44:27Z</time>
      </trkpt>
      <trkpt lat="47.17883" lon="-1.53098">
        <ele>23</ele>
        <time>2016-04-08T00:46:27Z</time>
      </trkpt>
      <trkpt lat="47.17884" lon="-1.53098">
        <ele>22</ele>
        <time>2016-04-08T00:48:27Z</time>
      </trkpt>
      <trkpt lat="47.17884" lon="-1.53099">
        <ele>23</ele>
        <time>2016-04-08T00:50:27Z</time>
      </trkpt>
      <trkpt lat="47.17885" lon="-1.531">
        <ele>23</ele>
        <time>2016-04-08T00:52:27Z</time>
      </trkpt>
      <trkpt lat="47.17885" lon="-1.53101">
        <ele>23</ele>
        <time>2016-04-08T00:54:27Z</time>
      </trkpt>
      <trkpt lat="47.17885" lon="-1.53102">
        <ele>23</ele>
        <time>2016-04-08T00:56:27Z</time>
      </trkpt>
      <trkpt lat="47.17886" lon="-1.53102">
        <ele>23</ele>
        <time>2016-04-08T00:58:27Z</time>
      </trkpt>
      <trkpt lat="47.17886" lon="-1.53103">
        <ele>23</ele>
        <time>2016-04-08T01:00:27Z</time>
      </trkpt>
      <trkpt lat="47.17886" lon="-1.53104">
        <ele>23</ele>
        <time>2016-04-08T01:02:27Z</time>
      </trkpt>
      <trkpt lat="47.17886" lon="-1.53105">
        <ele>23</ele>
        <time>2016-04-08T01:04:27Z</time>
      </trkpt>
      <trkpt lat="47.17886" lon="-1.53106">
        <ele>23</ele>
        <time>2016-04-08T01:06:27Z</time>
      </trkpt>
      <trkpt lat="47.17886" lon="-1.53107">
        <ele>23</ele>
        <time>2016-04-08T01:08:27Z</time>
      </trkpt>
      <trkpt lat="47.17886" lon="-1.53108">
        <ele>23</ele>
        <time>2016-04-08T01:10:27Z</time>
      </trkpt>
      <trkpt lat="47.17886" lon="-1.53109">
        <ele>23</ele>
        <time>2016-04-08T01:12:27Z</time>
      </trkpt>
      <trkpt lat="47.17886" lon="-1.5311">
        <ele>23</ele>
        <time>2016-04-08T01:14:27Z</time>
      </trkpt>
      <trkpt lat="47.17886" lon="-1.53111">
        <ele>23</ele>
        <time>2016-04-08T01:16:27Z</time>
      </trkpt>
      <trkpt lat="47.17886" lon="-1.53112">
        <ele>23</ele>
        <time>2016-04-08T01:18:27Z</time>
      </trkpt>
      <trkpt lat="47.17885" lon="-1.53113">
        <ele>23</ele>
        <time>2016-04-08T01:20:27Z</time>
      </trkpt>
      <trkpt lat="47.17885" lon="-1.53114">
        <ele>23</ele>
        <time>2016-04-08T01:22:27Z</time>
      </trkpt>
      <trkpt lat="47.17885" lon="-1.53115">
        <ele>23</ele>
        <time>2016-04-08T01:24:27Z</time>
      </trkpt>
      <trkpt lat="47.17884" lon="-1.53115">
        <ele>23</ele>
        <time>2016-04-08T01:26:27Z</time>
      </trkpt>
      <trkpt lat="47.17884" lon="-1.53116">
        <ele>23</ele>
        <time>2016-04-08T01:28:27Z</time>
      </trkpt>
      <trkpt lat="47.17883" lon="-1.53117">
        <ele>23</ele>
        <time>2016-04-08T01:30:27Z</time>
      </trkpt>
      <trkpt lat="47.17883" lon="-1.53118">
        <ele>23</ele>
        <time>2016-04-08T01:32:27Z</time>
      </trkpt>
      <trkpt lat="47.17882" lon="-1.53118">
        <ele>23</ele>
        <time>2016-04-08T01:34:27Z</time>
      </trkpt>
      <trkpt lat="47.17882" lon="-1.53119">
        <ele>23</ele>
        <time>2016-04-08T01:36:27Z</time>
      </trkpt>
      <trkpt lat="47.17881" lon="-1.53119">
        <ele>23</ele>
        <time>2016-04-08T01:38:27Z</time>
      </trkpt>
      <trkpt lat="47.1788" lon="-1.5312">
        <ele>23</ele>
        <time>2016-04-08T01:40:27Z</time>
      </trkpt>
      <trkpt lat="47.17879" lon="-1.5312">
        <ele>23</ele>
        <time>2016-04-08T01:42:27Z</time>
      </trkpt>
      <trkpt lat="47.17878" lon="-1.5312">
        <ele>23</ele>
        <time>2016-04-08T01:44:27Z</time>
      </trkpt>
      <trkpt lat="47.17877" lon="-1.5312">
        <ele>23</ele>
        <time>2016-04-08T01:46:27Z</time>
      </trkpt>
      <trkpt lat="47.17876" lon="-1.5312">
        <ele>23</ele>
        <time>2016-04-08T01:48:27Z</time>
      </trkpt>
      <trkpt lat="47.17875" lon="-1.5312">
        <ele>23</ele>
        <time>2016-04-08T01:50:27Z</time>
      </trkpt>
      <trkpt lat="47.17874" lon="-1.5312">
        <ele>23</ele>
        <time>2016-04-08T01:52:27Z</time>
      </trkpt>
      <trkpt lat="47.17874" lon="-1.53119">
        <ele>23</ele>
        <time>2016-04-08T01:54:27Z</time>
      </trkpt>
      <trkpt lat="47.17873" lon="-1.53119">
        <ele>23</ele>
        <time>2016-04-08T01:56:27Z</time>
      </trkpt>
      <trkpt lat="47.17866" lon="-1.53127">
        <ele>23</ele>
        <time>2016-04-08T01:58:27Z</time>
      </trkpt>
      <trkpt lat="47.17833" lon="-1.5316">
        <ele>24</ele>
        <time>2016-04-08T02:00:27Z</time>
      </trkpt>
      <trkpt lat="47.17806" lon="-1.53186">
        <ele>24</ele>
        <time>2016-04-08T02:02:27Z</time>
      </trkpt>
      <trkpt lat="47.1771" lon="-1.53267">
        <ele>26</ele>
        <time>2016-04-08T02:04:27Z</time>
      </trkpt>
      <trkpt lat="47.17681" lon="-1.53291">
        <ele>27</ele>
        <time>2016-04-08T02:06:27Z</time>
      </trkpt>
      <trkpt lat="47.17675" lon="-1.53296">
        <ele>28</ele>
        <time>2016-04-08T02:08:27Z</time>
      </trkpt>
      <trkpt lat="47.17646" lon="-1.53328">
        <ele>29</ele>
        <time>2016-04-08T02:10:27Z</time>
      </trkpt>
      <trkpt lat="47.17634" lon="-1.5334">
        <ele>29</ele>
        <time>2016-04-08T02:12:27Z</time>
      </trkpt>
      <trkpt lat="47.17571" lon="-1.53415">
        <ele>29</ele>
        <time>2016-04-08T02:14:27Z</time>
      </trkpt>
      <trkpt lat="47.17571" lon="-1.53416">
        <ele>29</ele>
        <time>2016-04-08T02:16:27Z</time>
      </trkpt>
      <trkpt lat="47.17572" lon="-1.53416">
        <ele>29</ele>
        <time>2016-04-08T02:18:27Z</time>
      </trkpt>
      <trkpt lat="47.17572" lon="-1.53417">
        <ele>29</ele>
        <time>2016-04-08T02:20:27Z</time>
      </trkpt>
      <trkpt lat="47.17572" lon="-1.53418">
        <ele>29</ele>
        <time>2016-04-08T02:22:27Z</time>
      </trkpt>
      <trkpt lat="47.17572" lon="-1.53419">
        <ele>29</ele>
        <time>2016-04-08T02:24:27Z</time>
      </trkpt>
      <trkpt lat="47.17572" lon="-1.5342">
        <ele>29</ele>
        <time>2016-04-08T02:26:27Z</time>
      </trkpt>
      <trkpt lat="47.17572" lon="-1.53421">
        <ele>29</ele>
        <time>2016-04-08T02:28:27Z</time>
      </trkpt>
      <trkpt lat="47.17572" lon="-1.53422">
        <ele>29</ele>
        <time>2016-04-08T02:30:27Z</time>
      </trkpt>
      <trkpt lat="47.17572" lon="-1.53423">
        <ele>29</ele>
        <time>2016-04-08T02:32:27Z</time>
      </trkpt>
      <trkpt lat="47.17572" lon="-1.53424">
        <ele>29</ele>
        <time>2016-04-08T02:34:27Z</time>
      </trkpt>
      <trkpt lat="47.17572" lon="-1.53425">
        <ele>29</ele>
        <time>2016-04-08T02:36:27Z</time>
      </trkpt>
      <trkpt lat="47.17572" lon="-1.53426">
        <ele>29</ele>
        <time>2016-04-08T02:38:27Z</time>
      </trkpt>
      <trkpt lat="47.17572" lon="-1.53427">
        <ele>29</ele>
        <time>2016-04-08T02:40:27Z</time>
      </trkpt>
      <trkpt lat="47.17571" lon="-1.53428">
        <ele>29</ele>
        <time>2016-04-08T02:42:27Z</time>
      </trkpt>
      <trkpt lat="47.17571" lon="-1.53429">
        <ele>29</ele>
        <time>2016-04-08T02:44:27Z</time>
      </trkpt>
      <trkpt lat="47.17571" lon="-1.5343">
        <ele>29</ele>
        <time>2016-04-08T02:46:27Z</time>
      </trkpt>
      <trkpt lat="47.1757" lon="-1.5343">
        <ele>29</ele>
        <time>2016-04-08T02:48:27Z</time>
      </trkpt>
      <trkpt lat="47.1757" lon="-1.53431">
        <ele>29</ele>
        <time>2016-04-08T02:50:27Z</time>
      </trkpt>
      <trkpt lat="47.17569" lon="-1.53431">
        <ele>29</ele>
        <time>2016-04-08T02:52:27Z</time>
      </trkpt>
      <trkpt lat="47.17569" lon="-1.53432">
        <ele>29</ele>
        <time>2016-04-08T02:54:27Z</time>
      </trkpt>
      <trkpt lat="47.17568" lon="-1.53432">
        <ele>29</ele>
        <time>2016-04-08T02:56:27Z</time>
      </trkpt>
      <trkpt lat="47.17568" lon="-1.53433">
        <ele>29</ele>
        <time>2016-04-08T02:58:27Z</time>
      </trkpt>
      <trkpt lat="47.17567" lon="-1.53433">
        <ele>29</ele>
        <time>2016-04-08T03:00:27Z</time>
      </trkpt>
      <trkpt lat="47.17567" lon="-1.53434">
        <ele>29</ele>
        <time>2016-04-08T03:02:27Z</time>
      </trkpt>
      <trkpt lat="47.17566" lon="-1.53434">
        <ele>29</ele>
        <time>2016-04-08T03:04:27Z</time>
      </trkpt>
      <trkpt lat="47.17565" lon="-1.53434">
        <ele>29</ele>
        <time>2016-04-08T03:06:27Z</time>
      </trkpt>
      <trkpt lat="47.17564" lon="-1.53434">
        <ele>29</ele>
        <time>2016-04-08T03:08:27Z</time>
      </trkpt>
      <trkpt lat="47.17563" lon="-1.53434">
        <ele>29</ele>
        <time>2016-04-08T03:10:27Z</time>
      </trkpt>
      <trkpt lat="47.17562" lon="-1.53434">
        <ele>29</ele>
        <time>2016-04-08T03:12:27Z</time>
      </trkpt>
      <trkpt lat="47.17561" lon="-1.53434">
        <ele>29</ele>
        <time>2016-04-08T03:14:27Z</time>
      </trkpt>
      <trkpt lat="47.17561" lon="-1.53433">
        <ele>29</ele>
        <time>2016-04-08T03:16:27Z</time>
      </trkpt>
      <trkpt lat="47.1756" lon="-1.53433">
        <ele>29</ele>
        <time>2016-04-08T03:18:27Z</time>
      </trkpt>
      <trkpt lat="47.17559" lon="-1.53432">
        <ele>29</ele>
        <time>2016-04-08T03:20:27Z</time>
      </trkpt>
      <trkpt lat="47.17558" lon="-1.53431">
        <ele>29</ele>
        <time>2016-04-08T03:22:27Z</time>
      </trkpt>
      <trkpt lat="47.17558" lon="-1.5343">
        <ele>29</ele>
        <time>2016-04-08T03:24:27Z</time>
      </trkpt>
      <trkpt lat="47.17557" lon="-1.5343">
        <ele>29</ele>
        <time>2016-04-08T03:26:27Z</time>
      </trkpt>
      <trkpt lat="47.17557" lon="-1.53429">
        <ele>29</ele>
        <time>2016-04-08T03:28:27Z</time>
      </trkpt>
      <trkpt lat="47.17537" lon="-1.53449">
        <ele>29</ele>
        <time>2016-04-08T03:30:27Z</time>
      </trkpt>
      <trkpt lat="47.17527" lon="-1.53459">
        <ele>29</ele>
        <time>2016-04-08T03:32:27Z</time>
      </trkpt>
      <trkpt lat="47.17515" lon="-1.53468">
        <ele>29</ele>
        <time>2016-04-08T03:34:27Z</time>
      </trkpt>
      <trkpt lat="47.17432" lon="-1.53519">
        <ele>27</ele>
        <time>2016-04-08T03:36:27Z</time>
      </trkpt>
      <trkpt lat="47.17423" lon="-1.53526">
        <ele>27</ele>
        <time>2016-04-08T03:38:27Z</time>
      </trkpt>
      <trkpt lat="47.17414" lon="-1.53538">
        <ele>26</ele>
        <time>2016-04-08T03:40:27Z</time>
      </trkpt>
      <trkpt lat="47.17407" lon="-1.53547">
        <ele>27</ele>
        <time>2016-04-08T03:42:27Z</time>
      </trkpt>
      <trkpt lat="47.17401" lon="-1.53555">
        <ele>27</ele>
        <time>2016-04-08T03:44:27Z</time>
      </trkpt>
      <trkpt lat="47.17376" lon="-1.5359">
        <ele>27</ele>
        <time>2016-04-08T03:46:27Z</time>
      </trkpt>
      <trkpt lat="47.17342" lon="-1.53635">
        <ele>28</ele>
        <time>2016-04-08T03:48:27Z</time>
      </trkpt>
      <trkpt lat="47.17342" lon="-1.53635">
        <ele>28</ele>
        <time>2016-04-08T03:50:27Z</time>
      </trkpt>
      <trkpt lat="47.17342" lon="-1.53636">
        <ele>28</ele>
        <time>2016-04-08T03:52:27Z</time>
      </trkpt>
      <trkpt lat="47.17342" lon="-1.53637">
        <ele>28</ele>
        <time>2016-04-08T03:54:27Z</time>
      </trkpt>
      <trkpt lat="47.17342" lon="-1.53638">
        <ele>28</ele>
        <time>2016-04-08T03:56:27Z</time>
      </trkpt>
      <trkpt lat="47.17343" lon="-1.53638">
        <ele>28</ele>
        <time>2016-04-08T03:58:27Z</time>
      </trkpt>
      <trkpt lat="47.17343" lon="-1.53639">
        <ele>28</ele>
        <time>2016-04-08T04:00:27Z</time>
      </trkpt>
      <trkpt lat="47.17343" lon="-1.5364">
        <ele>28</ele>
        <time>2016-04-08T04:02:27Z</time>
      </trkpt>
      <trkpt lat="47.17343" lon="-1.53641">
        <ele>28</ele>
        <time>2016-04-08T04:04:27Z</time>
      </trkpt>
      <trkpt lat="47.17343" lon="-1.53642">
        <ele>28</ele>
        <time>2016-04-08T04:06:27Z</time>
      </trkpt>
      <trkpt lat="47.17343" lon="-1.53643">
        <ele>28</ele>
        <time>2016-04-08T04:08:27Z</time>
      </trkpt>
      <trkpt lat="47.17343" lon="-1.53644">
        <ele>28</ele>
        <time>2016-04-08T04:10:27Z</time>
      </trkpt>
      <trkpt lat="47.17343" lon="-1.53645">
        <ele>28</ele>
        <time>2016-04-08T04:12:27Z</time>
      </trkpt>
      <trkpt lat="47.17343" lon="-1.53646">
        <ele>28</ele>
        <time>2016-04-08T04:14:27Z</time>
      </trkpt>
      <trkpt lat="47.17343" lon="-1.53647">
        <ele>28</ele>
        <time>2016-04-08T04:16:27Z</time>
      </trkpt>
      <trkpt lat="47.17342" lon="-1.53647">
        <ele>28</ele>
        <time>2016-04-08T04:18:27Z</time>
      </trkpt>
      <trkpt lat="47.17342" lon="-1.53648">
        <ele>28</ele>
        <time>2016-04-08T04:20:27Z</time>
      </trkpt>
      <trkpt lat="47.17342" lon="-1.53649">
        <ele>28</ele>
        <time>2016-04-08T04:22:27Z</time>
      </trkpt>
      <trkpt lat="47.17342" lon="-1.5365">
        <ele>28</ele>
        <time>2016-04-08T04:24:27Z</time>
      </trkpt>
      <trkpt lat="47.17341" lon="-1.5365">
        <ele>28</ele>
        <time>2016-04-08T04:26:27Z</time>
      </trkpt>
      <trkpt lat="47.17341" lon="-1.53651">
        <ele>28</ele>
        <time>2016-04-08T04:28:27Z</time>
      </trkpt>
      <trkpt lat="47.17341" lon="-1.53652">
        <ele>28</ele>
        <time>2016-04-08T04:30:27Z</time>
      </trkpt>
      <trkpt lat="47.1734" lon="-1.53652">
        <ele>28</ele>
        <time>2016-04-08T04:32:27Z</time>
      </trkpt>
      <trkpt lat="47.1734" lon="-1.53653">
        <ele>28</ele>
        <time>2016-04-08T04:34:27Z</time>
      </trkpt>
      <trkpt lat="47.17339" lon="-1.53653">
        <ele>28</ele>
        <time>2016-04-08T04:36:27Z</time>
      </trkpt>
      <trkpt lat="47.17339" lon="-1.53654">
        <ele>28</ele>
        <time>2016-04-08T04:38:27Z</time>
      </trkpt>
      <trkpt lat="47.17338" lon="-1.53654">
        <ele>28</ele>
        <time>2016-04-08T04:40:27Z</time>
      </trkpt>
      <trkpt lat="47.17338" lon="-1.53655">
        <ele>28</ele>
        <time>2016-04-08T04:42:27Z</time>
      </trkpt>
      <trkpt lat="47.17337" lon="-1.53655">
        <ele>28</ele>
        <time>2016-04-08T04:44:27Z</time>
      </trkpt>
      <trkpt lat="47.17336" lon="-1.53655">
        <ele>28</ele>
        <time>2016-04-08T04:46:27Z</time>
      </trkpt>
      <trkpt lat="47.17336" lon="-1.53656">
        <ele>28</ele>
        <time>2016-04-08T04:48:27Z</time>
      </trkpt>
      <trkpt lat="47.17335" lon="-1.53656">
        <ele>28</ele>
        <time>2016-04-08T04:50:27Z</time>
      </trkpt>
      <trkpt lat="47.17334" lon="-1.53656">
        <ele>28</ele>
        <time>2016-04-08T04:52:27Z</time>
      </trkpt>
      <trkpt lat="47.17333" lon="-1.53656">
        <ele>28</ele>
        <time>2016-04-08T04:54:27Z</time>
      </trkpt>
      <trkpt lat="47.17332" lon="-1.53656">
        <ele>28</ele>
        <time>2016-04-08T04:56:27Z</time>
      </trkpt>
      <trkpt lat="47.17331" lon="-1.53655">
        <ele>28</ele>
        <time>2016-04-08T04:58:27Z</time>
      </trkpt>
      <trkpt lat="47.1733" lon="-1.53655">
        <ele>28</ele>
        <time>2016-04-08T05:00:27Z</time>
      </trkpt>
      <trkpt lat="47.17329" lon="-1.53654">
        <ele>28</ele>
        <time>2016-04-08T05:02:27Z</time>
      </trkpt>
      <trkpt lat="47.17329" lon="-1.53653">
        <ele>28</ele>
        <time>2016-04-08T05:04:27Z</time>
      </trkpt>
      <trkpt lat="47.17283" lon="-1.5371">
        <ele>28</ele>
        <time>2016-04-08T05:06:27Z</time>
      </trkpt>
      <trkpt lat="47.17258" lon="-1.53742">
        <ele>28</ele>
        <time>2016-04-08T05:08:27Z</time>
      </trkpt>
      <trkpt lat="47.1725" lon="-1.53755">
        <ele>28</ele>
        <time>2016-04-08T05:10:27Z</time>
      </trkpt>
      <trkpt lat="47.17165" lon="-1.53873">
        <ele>30</ele>
        <time>2016-04-08T05:12:27Z</time>
      </trkpt>
      <trkpt lat="47.17107" lon="-1.53951">
        <ele>32</ele>
        <time>2016-04-08T05:14:27Z</time>
      </trkpt>
      <trkpt lat="47.17101" lon="-1.5396">
        <ele>32</ele>
        <time>2016-04-08T05:16:27Z</time>
      </trkpt>
      <trkpt lat="47.17085" lon="-1.53979">
        <ele>32</ele>
        <time>2016-04-08T05:18:27Z</time>
      </trkpt>
      <trkpt lat="47.17048" lon="-1.54027">
        <ele>33</ele>
        <time>2016-04-08T05:20:27Z</time>
      </trkpt>
      <trkpt lat="47.17004" lon="-1.54082">
        <ele>34</ele>
        <time>2016-04-08T05:22:27Z</time>
      </trkpt>
      <trkpt lat="47.16978" lon="-1.54115">
        <ele>35</ele>
        <time>2016-04-08T05:24:27Z</time>
      </trkpt>
      <trkpt lat="47.16931" lon="-1.5418">
        <ele>37</ele>
        <time>2016-04-08T05:26:27Z</time>
      </trkpt>
      <trkpt lat="47.16872" lon="-1.54257">
        <ele>38</ele>
        <time>2016-04-08T05:28:27Z</time>
      </trkpt>
      <trkpt lat="47.16871" lon="-1.54258">
        <ele>38</ele>
        <time>2016-04-08T05:30:27Z</time>
      </trkpt>
      <trkpt lat="47.16852" lon="-1.54278">
        <ele>38</ele>
        <time>2016-04-08T05:32:27Z</time>
      </trkpt>
      <trkpt lat="47.16852" lon="-1.54278">
        <ele>38</ele>
        <time>2016-04-08T05:34:27Z</time>
      </trkpt>
      <trkpt lat="47.16853" lon="-1.54279">
        <ele>38</ele>
        <time>2016-04-08T05:36:27Z</time>
      </trkpt>
      <trkpt lat="47.16853" lon="-1.5428">
        <ele>38</ele>
        <time>2016-04-08T05:38:27Z</time>
      </trkpt>
      <trkpt lat="47.16854" lon="-1.54281">
        <ele>38</ele>
        <time>2016-04-08T05:40:27Z</time>
      </trkpt>
      <trkpt lat="47.16854" lon="-1.54282">
        <ele>38</ele>
        <time>2016-04-08T05:42:27Z</time>
      </trkpt>
      <trkpt lat="47.16854" lon="-1.54283">
        <ele>38</ele>
        <time>2016-04-08T05:44:27Z</time>
      </trkpt>
      <trkpt lat="47.16854" lon="-1.54284">
        <ele>38</ele>
        <time>2016-04-08T05:46:27Z</time>
      </trkpt>
      <trkpt lat="47.16855" lon="-1.54285">
        <ele>38</ele>
        <time>2016-04-08T05:48:27Z</time>
      </trkpt>
      <trkpt lat="47.16855" lon="-1.54286">
        <ele>38</ele>
        <time>2016-04-08T05:50:27Z</time>
      </trkpt>
      <trkpt lat="47.16855" lon="-1.54287">
        <ele>38</ele>
        <time>2016-04-08T05:52:27Z</time>
      </trkpt>
      <trkpt lat="47.16855" lon="-1.54289">
        <ele>38</ele>
        <time>2016-04-08T05:54:27Z</time>
      </trkpt>
      <trkpt lat="47.16855" lon="-1.5429">
        <ele>38</ele>
        <time>2016-04-08T05:56:27Z</time>
      </trkpt>
      <trkpt lat="47.16855" lon="-1.54291">
        <ele>38</ele>
        <time>2016-04-08T05:58:27Z</time>
      </trkpt>
      <trkpt lat="47.16855" lon="-1.54292">
        <ele>38</ele>
        <time>2016-04-08T06:00:27Z</time>
      </trkpt>
      <trkpt lat="47.16855" lon="-1.54293">
        <ele>38</ele>
        <time>2016-04-08T06:02:27Z</time>
      </trkpt>
      <trkpt lat="47.16855" lon="-1.54295">
        <ele>38</ele>
        <time>2016-04-08T06:04:27Z</time>
      </trkpt>
      <trkpt lat="47.16854" lon="-1.54296">
        <ele>38</ele>
        <time>2016-04-08T06:06:27Z</time>
      </trkpt>
      <trkpt lat="47.16854" lon="-1.54297">
        <ele>38</ele>
        <time>2016-04-08T06:08:27Z</time>
      </trkpt>
      <trkpt lat="47.16854" lon="-1.54298">
        <ele>38</ele>
        <time>2016-04-08T06:10:27Z</time>
      </trkpt>
      <trkpt lat="47.16854" lon="-1.54299">
        <ele>38</ele>
        <time>2016-04-08T06:12:27Z</time>
      </trkpt>
      <trkpt lat="47.16853" lon="-1.543">
        <ele>38</ele>
        <time>2016-04-08T06:14:27Z</time>
      </trkpt>
      <trkpt lat="47.16853" lon="-1.54301">
        <ele>38</ele>
        <time>2016-04-08T06:16:27Z</time>
      </trkpt>
      <trkpt lat="47.16852" lon="-1.54302">
        <ele>38</ele>
        <time>2016-04-08T06:18:27Z</time>
      </trkpt>
      <trkpt lat="47.16851" lon="-1.54303">
        <ele>38</ele>
        <time>2016-04-08T06:20:27Z</time>
      </trkpt>
      <trkpt lat="47.16851" lon="-1.54304">
        <ele>38</ele>
        <time>2016-04-08T06:22:27Z</time>
      </trkpt>
      <trkpt lat="47.1685" lon="-1.54305">
        <ele>38</ele>
        <time>2016-04-08T06:24:27Z</time>
      </trkpt>
      <trkpt lat="47.1685" lon="-1.54306">
        <ele>38</ele>
        <time>2016-04-08T06:26:27Z</time>
      </trkpt>
      <trkpt lat="47.16849" lon="-1.54306">
        <ele>38</ele>
        <time>2016-04-08T06:28:27Z</time>
      </trkpt>
      <trkpt lat="47.16848" lon="-1.54307">
        <ele>38</ele>
        <time>2016-04-08T06:30:27Z</time>
      </trkpt>
      <trkpt lat="47.16847" lon="-1.54308">
        <ele>38</ele>
        <time>2016-04-08T06:32:27Z</time>
      </trkpt>
      <trkpt lat="47.16846" lon="-1.54308">
        <ele>38</ele>
        <time>2016-04-08T06:34:27Z</time>
      </trkpt>
      <trkpt lat="47.16845" lon="-1.54308">
        <ele>38</ele>
        <time>2016-04-08T06:36:27Z</time>
      </trkpt>
      <trkpt lat="47.16845" lon="-1.54309">
        <ele>38</ele>
        <time>2016-04-08T06:38:27Z</time>
      </trkpt>
      <trkpt lat="47.16844" lon="-1.54309">
        <ele>38</ele>
        <time>2016-04-08T06:40:27Z</time>
      </trkpt>
      <trkpt lat="47.16843" lon="-1.54309">
        <ele>38</ele>
        <time>2016-04-08T06:42:27Z</time>
      </trkpt>
      <trkpt lat="47.16842" lon="-1.54309">
        <ele>38</ele>
        <time>2016-04-08T06:44:27Z</time>
      </trkpt>
      <trkpt lat="47.16841" lon="-1.54309">
        <ele>38</ele>
        <time>2016-04-08T06:46:27Z</time>
      </trkpt>
      <trkpt lat="47.1684" lon="-1.54309">
        <ele>38</ele>
        <time>2016-04-08T06:48:27Z</time>
      </trkpt>
      <trkpt lat="47.16839" lon="-1.54308">
        <ele>38</ele>
        <time>2016-04-08T06:50:27Z</time>
      </trkpt>
      <trkpt lat="47.16838" lon="-1.54308">
        <ele>38</ele>
        <time>2016-04-08T06:52:27Z</time>
      </trkpt>
      <trkpt lat="47.16838" lon="-1.54307">
        <ele>38</ele>
        <time>2016-04-08T06:54:27Z</time>
      </trkpt>
      <trkpt lat="47.16837" lon="-1.54307">
        <ele>38</ele>
        <time>2016-04-08T06:56:27Z</time>
      </trkpt>
      <trkpt lat="47.16836" lon="-1.54306">
        <ele>38</ele>
        <time>2016-04-08T06:58:27Z</time>
      </trkpt>
      <trkpt lat="47.16835" lon="-1.54305">
        <ele>38</ele>
        <time>2016-04-08T07:00:27Z</time>
      </trkpt>
      <trkpt lat="47.16835" lon="-1.54304">
        <ele>38</ele>
        <time>2016-04-08T07:02:27Z</time>
      </trkpt>
      <trkpt lat="47.16834" lon="-1.54304">
        <ele>38</ele>
        <time>2016-04-08T07:04:27Z</time>
      </trkpt>
      <trkpt lat="47.16834" lon="-1.54303">
        <ele>38</ele>
        <time>2016-04-08T07:06:27Z</time>
      </trkpt>
      <trkpt lat="47.16833" lon="-1.54302">
        <ele>38</ele>
        <time>2016-04-08T07:08:27Z</time>
      </trkpt>
      <trkpt lat="47.16833" lon="-1.54301">
        <ele>38</ele>
        <time>2016-04-08T07:10:27Z</time>
      </trkpt>
      <trkpt lat="47.16833" lon="-1.543">
        <ele>38</ele>
        <time>2016-04-08T07:12:27Z</time>
      </trkpt>
      <trkpt lat="47.16832" lon="-1.54299">
        <ele>38</ele>
        <time>2016-04-08T07:14:27Z</time>
      </trkpt>
      <trkpt lat="47.16832" lon="-1.54298">
        <ele>38</ele>
        <time>2016-04-08T07:16:27Z</time>
      </trkpt>
      <trkpt lat="47.16832" lon="-1.54297">
        <ele>38</ele>
        <time>2016-04-08T07:18:27Z</time>
      </trkpt>
      <trkpt lat="47.16831" lon="-1.54296">
        <ele>38</ele>
        <time>2016-04-08T07:20:27Z</time>
      </trkpt>
      <trkpt lat="47.16831" lon="-1.54295">
        <ele>38</ele>
        <time>2016-04-08T07:22:27Z</time>
      </trkpt>
      <trkpt lat="47.16831" lon="-1.54294">
        <ele>38</ele>
        <time>2016-04-08T07:24:27Z</time>
      </trkpt>
      <trkpt lat="47.16831" lon="-1.54293">
        <ele>38</ele>
        <time>2016-04-08T07:26:27Z</time>
      </trkpt>
      <trkpt lat="47.16831" lon="-1.54292">
        <ele>38</ele>
        <time>2016-04-08T07:28:27Z</time>
      </trkpt>
      <trkpt lat="47.16831" lon="-1.54291">
        <ele>38</ele>
        <time>2016-04-08T07:30:27Z</time>
      </trkpt>
      <trkpt lat="47.16831" lon="-1.5429">
        <ele>38</ele>
        <time>2016-04-08T07:32:27Z</time>
      </trkpt>
      <trkpt lat="47.16831" lon="-1.54289">
        <ele>38</ele>
        <time>2016-04-08T07:34:27Z</time>
      </trkpt>
      <trkpt lat="47.16831" lon="-1.54288">
        <ele>38</ele>
        <time>2016-04-08T07:36:27Z</time>
      </trkpt>
      <trkpt lat="47.16676" lon="-1.5427">
        <ele>38</ele>
        <time>2016-04-08T07:38:27Z</time>
      </trkpt>
      <trkpt lat="47.16662" lon="-1.5427">
        <ele>38</ele>
        <time>2016-04-08T07:40:27Z</time>
      </trkpt>
      <trkpt lat="47.16645" lon="-1.54271">
        <ele>38</ele>
        <time>2016-04-08T07:42:27Z</time>
      </trkpt>
      <trkpt lat="47.16627" lon="-1.54279">
        <ele>39</ele>
        <time>2016-04-08T07:44:27Z</time>
      </trkpt>
      <trkpt lat="47.1662" lon="-1.54282">
        <ele>39</ele>
        <time>2016-04-08T07:46:27Z</time>
      </trkpt>
      <trkpt lat="47.16614" lon="-1.5429">
        <ele>39</ele>
        <time>2016-04-08T07:48:27Z</time>
      </trkpt>
      <trkpt lat="47.16613" lon="-1.54291">
        <ele>39</ele>
        <time>2016-04-08T07:50:27Z</time>
      </trkpt>
      <trkpt lat="47.16613" lon="-1.54292">
        <ele>39</ele>
        <time>2016-04-08T07:52:27Z</time>
      </trkpt>
      <trkpt lat="47.16612" lon="-1.54293">
        <ele>39</ele>
        <time>2016-04-08T07:54:27Z</time>
      </trkpt>
      <trkpt lat="47.16611" lon="-1.54294">
        <ele>39</ele>
        <time>2016-04-08T07:56:27Z</time>
      </trkpt>
      <trkpt lat="47.1661" lon="-1.54295">
        <ele>39</ele>
        <time>2016-04-08T07:58:27Z</time>
      </trkpt>
      <trkpt lat="47.16609" lon="-1.54295">
        <ele>39</ele>
        <time>2016-04-08T08:00:27Z</time>
      </trkpt>
      <trkpt lat="47.16609" lon="-1.54296">
        <ele>39</ele>
        <time>2016-04-08T08:02:27Z</time>
      </trkpt>
      <trkpt lat="47.16608" lon="-1.54297">
        <ele>39</ele>
        <time>2016-04-08T08:04:27Z</time>
      </trkpt>
      <trkpt lat="47.16606" lon="-1.54298">
        <ele>39</ele>
        <time>2016-04-08T08:06:27Z</time>
      </trkpt>
      <trkpt lat="47.16605" lon="-1.54298">
        <ele>39</ele>
        <time>2016-04-08T08:08:27Z</time>
      </trkpt>
      <trkpt lat="47.16604" lon="-1.54298">
        <ele>39</ele>
        <time>2016-04-08T08:10:27Z</time>
      </trkpt>
      <trkpt lat="47.16603" lon="-1.54299">
        <ele>39</ele>
        <time>2016-04-08T08:12:27Z</time>
      </trkpt>
      <trkpt lat="47.16602" lon="-1.54299">
        <ele>39</ele>
        <time>2016-04-08T08:14:27Z</time>
      </trkpt>
      <trkpt lat="47.16601" lon="-1.54299">
        <ele>39</ele>
        <time>2016-04-08T08:16:27Z</time>
      </trkpt>
      <trkpt lat="47.166" lon="-1.54298">
        <ele>39</ele>
        <time>2016-04-08T08:18:27Z</time>
      </trkpt>
      <trkpt lat="47.16599" lon="-1.54298">
        <ele>39</ele>
        <time>2016-04-08T08:20:27Z</time>
      </trkpt>
      <trkpt lat="47.16598" lon="-1.54298">
        <ele>39</ele>
        <time>2016-04-08T08:22:27Z</time>
      </trkpt>
      <trkpt lat="47.16597" lon="-1.54297">
        <ele>39</ele>
        <time>2016-04-08T08:24:27Z</time>
      </trkpt>
      <trkpt lat="47.16596" lon="-1.54297">
        <ele>39</ele>
        <time>2016-04-08T08:26:27Z</time>
      </trkpt>
      <trkpt lat="47.16595" lon="-1.54296">
        <ele>39</ele>
        <time>2016-04-08T08:28:27Z</time>
      </trkpt>
      <trkpt lat="47.16594" lon="-1.54296">
        <ele>39</ele>
        <time>2016-04-08T08:30:27Z</time>
      </trkpt>
      <trkpt lat="47.16593" lon="-1.54295">
        <ele>39</ele>
        <time>2016-04-08T08:32:27Z</time>
      </trkpt>
      <trkpt lat="47.16592" lon="-1.54294">
        <ele>39</ele>
        <time>2016-04-08T08:34:27Z</time>
      </trkpt>
      <trkpt lat="47.16591" lon="-1.54293">
        <ele>39</ele>
        <time>2016-04-08T08:36:27Z</time>
      </trkpt>
      <trkpt lat="47.16591" lon="-1.54292">
        <ele>39</ele>
        <time>2016-04-08T08:38:27Z</time>
      </trkpt>
      <trkpt lat="47.1659" lon="-1.54291">
        <ele>39</ele>
        <time>2016-04-08T08:40:27Z</time>
      </trkpt>
      <trkpt lat="47.16589" lon="-1.54289">
        <ele>39</ele>
        <time>2016-04-08T08:42:27Z</time>
      </trkpt>
      <trkpt lat="47.16589" lon="-1.54288">
        <ele>39</ele>
        <time>2016-04-08T08:44:27Z</time>
      </trkpt>
      <trkpt lat="47.16588" lon="-1.54287">
        <ele>39</ele>
        <time>2016-04-08T08:46:27Z</time>
      </trkpt>
      <trkpt lat="47.16588" lon="-1.54285">
        <ele>39</ele>
        <time>2016-04-08T08:48:27Z</time>
      </trkpt>
      <trkpt lat="47.16587" lon="-1.54284">
        <ele>39</ele>
        <time>2016-04-08T08:50:27Z</time>
      </trkpt>
      <trkpt lat="47.16587" lon="-1.54282">
        <ele>39</ele>
        <time>2016-04-08T08:52:27Z</time>
      </trkpt>
      <trkpt lat="47.1657" lon="-1.54269">
        <ele>39</ele>
        <time>2016-04-08T08:54:27Z</time>
      </trkpt>
      <trkpt lat="47.16562" lon="-1.54265">
        <ele>39</ele>
        <time>2016-04-08T08:56:27Z</time>
      </trkpt>
      <trkpt lat="47.16536" lon="-1.5426">
        <ele>39</ele>
        <time>2016-04-08T08:58:27Z</time>
      </trkpt>
      <trkpt lat="47.16507" lon="-1.54257">
        <ele>38</ele>
        <time>2016-04-08T09:00:27Z</time>
      </trkpt>
      <trkpt lat="47.16496" lon="-1.54257">
        <ele>38</ele>
        <time>2016-04-08T09:02:27Z</time>
      </trkpt>
      <trkpt lat="47.16424" lon="-1.54246">
        <ele>35</ele>
        <time>2016-04-08T09:04:27Z</time>
      </trkpt>
      <trkpt lat="47.16418" lon="-1.54242">
        <ele>35</ele>
        <time>2016-04-08T09:06:27Z</time>
      </trkpt>
      <trkpt lat="47.16405" lon="-1.54239">
        <ele>35</ele>
        <time>2016-04-08T09:08:27Z</time>
      </trkpt>
      <trkpt lat="47.16356" lon="-1.54234">
        <ele>36</ele>
        <time>2016-04-08T09:10:27Z</time>
      </trkpt>
      <trkpt lat="47.16324" lon="-1.54231">
        <ele>36</ele>
        <time>2016-04-08T09:12:27Z</time>
      </trkpt>
      <trkpt lat="47.16262" lon="-1.54226">
        <ele>36</ele>
        <time>2016-04-08T09:14:27Z</time>
      </trkpt>
      <trkpt lat="47.16252" lon="-1.54229">
        <ele>36</ele>
        <time>2016-04-08T09:16:27Z</time>
      </trkpt>
      <trkpt lat="47.16246" lon="-1.54229">
        <ele>36</ele>
        <time>2016-04-08T09:18:27Z</time>
      </trkpt>
      <trkpt lat="47.16241" lon="-1.54228">
        <ele>36</ele>
        <time>2016-04-08T09:20:27Z</time>
      </trkpt>
      <trkpt lat="47.16222" lon="-1.54228">
        <ele>35</ele>
        <time>2016-04-08T09:22:27Z</time>
      </trkpt>
      <trkpt lat="47.16203" lon="-1.54227">
        <ele>35</ele>
        <time>2016-04-08T09:24:27Z</time>
      </trkpt>
      <trkpt lat="47.16184" lon="-1.54227">
        <ele>34</ele>
        <time>2016-04-08T09:26:27Z</time>
      </trkpt>
      <trkpt lat="47.16158" lon="-1.54226">
        <ele>34</ele>
        <time>2016-04-08T09:28:27Z</time>
      </trkpt>
      <trkpt lat="47.16123" lon="-1.54227">
        <ele>33</ele>
        <time>2016-04-08T09:30:27Z</time>
      </trkpt>
      <trkpt lat="47.16123" lon="-1.54227">
        <ele>33</ele>
        <time>2016-04-08T09:32:27Z</time>
      </trkpt>
      <trkpt lat="47.16121" lon="-1.5423">
        <ele>33</ele>
        <time>2016-04-08T09:34:27Z</time>
      </trkpt>
      <trkpt lat="47.16121" lon="-1.54232">
        <ele>33</ele>
        <time>2016-04-08T09:36:27Z</time>
      </trkpt>
      <trkpt lat="47.1612" lon="-1.54234">
        <ele>33</ele>
        <time>2016-04-08T09:38:27Z</time>
      </trkpt>
      <trkpt lat="47.16119" lon="-1.54236">
        <ele>33</ele>
        <time>2016-04-08T09:40:27Z</time>
      </trkpt>
      <trkpt lat="47.16118" lon="-1.54237">
        <ele>33</ele>
        <time>2016-04-08T09:42:27Z</time>
      </trkpt>
      <trkpt lat="47.1611" lon="-1.54244">
        <ele>33</ele>
        <time>2016-04-08T09:44:27Z</time>
      </trkpt>
      <trkpt lat="47.16107" lon="-1.54245">
        <ele>33</ele>
        <time>2016-04-08T09:46:27Z</time>
      </trkpt>
      <trkpt lat="47.16105" lon="-1.54245">
        <ele>33</ele>
        <time>2016-04-08T09:48:27Z</time>
      </trkpt>
      <trkpt lat="47.16103" lon="-1.54245">
        <ele>32</ele>
        <time>2016-04-08T09:50:27Z</time>
      </trkpt>
      <trkpt lat="47.16099" lon="-1.54243">
        <ele>32</ele>
        <time>2016-04-08T09:52:27Z</time>
      </trkpt>
      <trkpt lat="47.16097" lon="-1.54241">
        <ele>32</ele>
        <time>2016-04-08T09:54:27Z</time>
      </trkpt>
      <trkpt lat="47.16096" lon="-1.54241">
        <ele>32</ele>
        <time>2016-04-08T09:56:27Z</time>
      </trkpt>
      <trkpt lat="47.16094" lon="-1.54239">
        <ele>32</ele>
        <time>2016-04-08T09:58:27Z</time>
      </trkpt>
      <trkpt lat="47.16092" lon="-1.54238">
        <ele>32</ele>
        <time>2016-04-08T10:00:27Z</time>
      </trkpt>
      <trkpt lat="47.1609" lon="-1.54236">
        <ele>32</ele>
        <time>2016-04-08T10:02:27Z</time>
      </trkpt>
      <trkpt lat="47.1609" lon="-1.54235">
        <ele>32</ele>
        <time>2016-04-08T10:04:27Z</time>
      </trkpt>
      <trkpt lat="47.16089" lon="-1.54232">
        <ele>32</ele>
        <time>2016-04-08T10:06:27Z</time>
      </trkpt>
      <trkpt lat="47.16087" lon="-1.54228">
        <ele>32</ele>
        <time>2016-04-08T10:08:27Z</time>
      </trkpt>
      <trkpt lat="47.16086" lon="-1.54225">
        <ele>32</ele>
        <time>2016-04-08T10:10:27Z</time>
      </trkpt>
      <trkpt lat="47.16085" lon="-1.54217">
        <ele>32</ele>
        <time>2016-04-08T10:12:27Z</time>
      </trkpt>
      <trkpt lat="47.16073" lon="-1.54212">
        <ele>32</ele>
        <time>2016-04-08T10:14:27Z</time>
      </trkpt>
      <trkpt lat="47.16025" lon="-1.54205">
        <ele>33</ele>
        <time>2016-04-08T10:16:27Z</time>
      </trkpt>
      <trkpt lat="47.15999" lon="-1.54201">
        <ele>34</ele>
        <time>2016-04-08T10:18:27Z</time>
      </trkpt>
      <trkpt lat="47.15931" lon="-1.54193">
        <ele>34</ele>
        <time>2016-04-08T10:20:27Z</time>
      </trkpt>
      <trkpt lat="47.15913" lon="-1.54191">
        <ele>34</ele>
        <time>2016-04-08T10:22:27Z</time>
      </trkpt>
      <trkpt lat="47.15909" lon="-1.5419">
        <ele>35</ele>
        <time>2016-04-08T10:24:27Z</time>
      </trkpt>
      <trkpt lat="47.15901" lon="-1.54189">
        <ele>35</ele>
        <time>2016-04-08T10:26:27Z</time>
      </trkpt>
      <trkpt lat="47.15886" lon="-1.54188">
        <ele>35</ele>
        <time>2016-04-08T10:28:27Z</time>
      </trkpt>
      <trkpt lat="47.15867" lon="-1.54186">
        <ele>35</ele>
        <time>2016-04-08T10:30:27Z</time>
      </trkpt>
      <trkpt lat="47.15867" lon="-1.54186">
        <ele>35</ele>
        <time>2016-04-08T10:32:27Z</time>
      </trkpt>
      <trkpt lat="47.15808" lon="-1.54179">
        <ele>34</ele>
        <time>2016-04-08T10:34:27Z</time>
      </trkpt>
      <trkpt lat="47.15795" lon="-1.54178">
        <ele>33</ele>
        <time>2016-04-08T10:36:27Z</time>
      </trkpt>
      <trkpt lat="47.15785" lon="-1.54179">
        <ele>33</ele>
        <time>2016-04-08T10:38:27Z</time>
      </trkpt>
      <trkpt lat="47.15775" lon="-1.54179">
        <ele>32</ele>
        <time>2016-04-08T10:40:27Z</time>
      </trkpt>
      <trkpt lat="47.15768" lon="-1.54181">
        <ele>32</ele>
        <time>2016-04-08T10:42:27Z</time>
      </trkpt>
      <trkpt lat="47.1576" lon="-1.54185">
        <ele>31</ele>
        <time>2016-04-08T10:44:27Z</time>
      </trkpt>
      <trkpt lat="47.1576" lon="-1.54185">
        <ele>31</ele>
        <time>2016-04-08T10:46:27Z</time>
      </trkpt>
      <trkpt lat="47.15756" lon="-1.54191">
        <ele>31</ele>
        <time>2016-04-08T10:48:27Z</time>
      </trkpt>
      <trkpt lat="47.15749" lon="-1.542">
        <ele>31</ele>
        <time>2016-04-08T10:50:27Z</time>
      </trkpt>
      <trkpt lat="47.15744" lon="-1.542">
        <ele>30</ele>
        <time>2016-04-08T10:52:27Z</time>
      </trkpt>
      <trkpt lat="47.15736" lon="-1.542">
        <ele>30</ele>
        <time>2016-04-08T10:54:27Z</time>
      </trkpt>
      <trkpt lat="47.15734" lon="-1.542">
        <ele>30</ele>
        <time>2016-04-08T10:56:27Z</time>
      </trkpt>
      <trkpt lat="47.15731" lon="-1.54198">
        <ele>30</ele>
        <time>2016-04-08T10:58:27Z</time>
      </trkpt>
      <trkpt lat="47.15727" lon="-1.54197">
        <ele>30</ele>
        <time>2016-04-08T11:00:27Z</time>
      </trkpt>
      <trkpt lat="47.15723" lon="-1.54191">
        <ele>30</ele>
        <time>2016-04-08T11:02:27Z</time>
      </trkpt>
      <trkpt lat="47.15722" lon="-1.54189">
        <ele>30</ele>
        <time>2016-04-08T11:04:27Z</time>
      </trkpt>
      <trkpt lat="47.15718" lon="-1.54182">
        <ele>30</ele>
        <time>2016-04-08T11:06:27Z</time>
      </trkpt>
      <trkpt lat="47.15716" lon="-1.54174">
        <ele>30</ele>
        <time>2016-04-08T11:08:27Z</time>
      </trkpt>
      <trkpt lat="47.15716" lon="-1.54167">
        <ele>30</ele>
        <time>2016-04-08T11:10:27Z</time>
      </trkpt>
      <trkpt lat="47.15716" lon="-1.54163">
        <ele>30</ele>
        <time>2016-04-08T11:12:27Z</time>
      </trkpt>
      <trkpt lat="47.15716" lon="-1.54158">
        <ele>30</ele>
        <time>2016-04-08T11:14:27Z</time>
      </trkpt>
      <trkpt lat="47.15718" lon="-1.54151">
        <ele>30</ele>
        <time>2016-04-08T11:16:27Z</time>
      </trkpt>
      <trkpt lat="47.15721" lon="-1.54144">
        <ele>30</ele>
        <time>2016-04-08T11:18:27Z</time>
      </trkpt>
      <trkpt lat="47.15726" lon="-1.54137">
        <ele>30</ele>
        <time>2016-04-08T11:20:27Z</time>
      </trkpt>
      <trkpt lat="47.15728" lon="-1.54128">
        <ele>30</ele>
        <time>2016-04-08T11:22:27Z</time>
      </trkpt>
      <trkpt lat="47.15731" lon="-1.54119">
        <ele>30</ele>
        <time>2016-04-08T11:24:27Z</time>
      </trkpt>
      <trkpt lat="47.15731" lon="-1.54116">
        <ele>30</ele>
        <time>2016-04-08T11:26:27Z</time>
      </trkpt>
      <trkpt lat="47.1573" lon="-1.54107">
        <ele>30</ele>
        <time>2016-04-08T11:28:27Z</time>
      </trkpt>
      <trkpt lat="47.15729" lon="-1.54095">
        <ele>30</ele>
        <time>2016-04-08T11:30:27Z</time>
      </trkpt>
      <trkpt lat="47.15722" lon="-1.54076">
        <ele>30</ele>
        <time>2016-04-08T11:32:27Z</time>
      </trkpt>
      <trkpt lat="47.15716" lon="-1.54059">
        <ele>29</ele>
        <time>2016-04-08T11:34:27Z</time>
      </trkpt>
      <trkpt lat="47.15708" lon="-1.54042">
        <ele>29</ele>
        <time>2016-04-08T11:36:27Z</time>
      </trkpt>
      <trkpt lat="47.15703" lon="-1.54023">
        <ele>29</ele>
        <time>2016-04-08T11:38:27Z</time>
      </trkpt>
      <trkpt lat="47.15696" lon="-1.54">
        <ele>29</ele>
        <time>2016-04-08T11:40:27Z</time>
      </trkpt>
      <trkpt lat="47.15689" lon="-1.53968">
        <ele>28</ele>
        <time>2016-04-08T11:42:27Z</time>
      </trkpt>
      <trkpt lat="47.1568" lon="-1.53926">
        <ele>28</ele>
        <time>2016-04-08T11:44:27Z</time>
      </trkpt>
      <trkpt lat="47.15679" lon="-1.53917">
        <ele>28</ele>
        <time>2016-04-08T11:46:27Z</time>
      </trkpt>
      <trkpt lat="47.15675" lon="-1.53905">
        <ele>28</ele>
        <time>2016-04-08T11:48:27Z</time>
      </trkpt>
      <trkpt lat="47.15673" lon="-1.53902">
        <ele>28</ele>
        <time>2016-04-08T11:50:27Z</time>
      </trkpt>
      <trkpt lat="47.1567" lon="-1.53894">
        <ele>28</ele>
        <time>2016-04-08T11:52:27Z</time>
      </trkpt>
      <trkpt lat="47.15669" lon="-1.53894">
        <ele>28</ele>
        <time>2016-04-08T11:54:27Z</time>
      </trkpt>
      <trkpt lat="47.15668" lon="-1.53894">
        <ele>28</ele>
        <time>2016-04-08T11:56:27Z</time>
      </trkpt>
      <trkpt lat="47.15668" lon="-1.53893">
        <ele>28</ele>
        <time>2016-04-08T11:58:27Z</time>
      </trkpt>
      <trkpt lat="47.15667" lon="-1.53893">
        <ele>28</ele>
        <time>2016-04-08T12:00:27Z</time>
      </trkpt>
      <trkpt lat="47.15666" lon="-1.53892">
        <ele>28</ele>
        <time>2016-04-08T12:02:27Z</time>
      </trkpt>
      <trkpt lat="47.15665" lon="-1.53891">
        <ele>28</ele>
        <time>2016-04-08T12:04:27Z</time>
      </trkpt>
      <trkpt lat="47.15664" lon="-1.5389">
        <ele>28</ele>
        <time>2016-04-08T12:06:27Z</time>
      </trkpt>
      <trkpt lat="47.15664" lon="-1.53889">
        <ele>28</ele>
        <time>2016-04-08T12:08:27Z</time>
      </trkpt>
      <trkpt lat="47.15663" lon="-1.53889">
        <ele>28</ele>
        <time>2016-04-08T12:10:27Z</time>
      </trkpt>
      <trkpt lat="47.15663" lon="-1.53888">
        <ele>28</ele>
        <time>2016-04-08T12:12:27Z</time>
      </trkpt>
      <trkpt lat="47.15662" lon="-1.53887">
        <ele>28</ele>
        <time>2016-04-08T12:14:27Z</time>
      </trkpt>
      <trkpt lat="47.15662" lon="-1.53886">
        <ele>28</ele>
        <time>2016-04-08T12:16:27Z</time>
      </trkpt>
      <trkpt lat="47.15662" lon="-1.53885">
        <ele>28</ele>
        <time>2016-04-08T12:18:27Z</time>
      </trkpt>
      <trkpt lat="47.15661" lon="-1.53884">
        <ele>28</ele>
        <time>2016-04-08T12:20:27Z</time>
      </trkpt>
      <trkpt lat="47.15661" lon="-1.53883">
        <ele>28</ele>
        <time>2016-04-08T12:22:27Z</time>
      </trkpt>
      <trkpt lat="47.15661" lon="-1.53882">
        <ele>28</ele>
        <time>2016-04-08T12:24:27Z</time>
      </trkpt>
      <trkpt lat="47.15661" lon="-1.53881">
        <ele>28</ele>
        <time>2016-04-08T12:26:27Z</time>
      </trkpt>
      <trkpt lat="47.15661" lon="-1.5388">
        <ele>27</ele>
        <time>2016-04-08T12:28:27Z</time>
      </trkpt>
      <trkpt lat="47.1566" lon="-1.53879">
        <ele>27</ele>
        <time>2016-04-08T12:30:27Z</time>
      </trkpt>
      <trkpt lat="47.1566" lon="-1.53878">
        <ele>27</ele>
        <time>2016-04-08T12:32:27Z</time>
      </trkpt>
      <trkpt lat="47.1566" lon="-1.53877">
        <ele>27</ele>
        <time>2016-04-08T12:34:27Z</time>
      </trkpt>
      <trkpt lat="47.1566" lon="-1.53876">
        <ele>27</ele>
        <time>2016-04-08T12:36:27Z</time>
      </trkpt>
      <trkpt lat="47.15661" lon="-1.53875">
        <ele>27</ele>
        <time>2016-04-08T12:38:27Z</time>
      </trkpt>
      <trkpt lat="47.15661" lon="-1.53874">
        <ele>27</ele>
        <time>2016-04-08T12:40:27Z</time>
      </trkpt>
      <trkpt lat="47.15661" lon="-1.53873">
        <ele>27</ele>
        <time>2016-04-08T12:42:27Z</time>
      </trkpt>
      <trkpt lat="47.15661" lon="-1.53872">
        <ele>27</ele>
        <time>2016-04-08T12:44:27Z</time>
      </trkpt>
      <trkpt lat="47.15658" lon="-1.53864">
        <ele>27</ele>
        <time>2016-04-08T12:46:27Z</time>
      </trkpt>
      <trkpt lat="47.1565" lon="-1.53845">
        <ele>27</ele>
        <time>2016-04-08T12:48:27Z</time>
      </trkpt>
      <trkpt lat="47.15644" lon="-1.53834">
        <ele>27</ele>
        <time>2016-04-08T12:50:27Z</time>
      </trkpt>
      <trkpt lat="47.15632" lon="-1.53818">
        <ele>26</ele>
        <time>2016-04-08T12:52:27Z</time>
      </trkpt>
      <trkpt lat="47.1562" lon="-1.53804">
        <ele>26</ele>
        <time>2016-04-08T12:54:27Z</time>
      </trkpt>
      <trkpt lat="47.15608" lon="-1.53792">
        <ele>26</ele>
        <time>2016-04-08T12:56:27Z</time>
      </trkpt>
      <trkpt lat="47.15604" lon="-1.53788">
        <ele>26</ele>
        <time>2016-04-08T12:58:27Z</time>
      </trkpt>
      <trkpt lat="47.15595" lon="-1.5378">
        <ele>26</ele>
        <time>2016-04-08T13:00:27Z</time>
      </trkpt>
      <trkpt lat="47.15566" lon="-1.53757">
        <ele>26</ele>
        <time>2016-04-08T13:02:27Z</time>
      </trkpt>
      <trkpt lat="47.15542" lon="-1.53755">
        <ele>27</ele>
        <time>2016-04-08T13:04:27Z</time>
      </trkpt>
      <trkpt lat="47.1554" lon="-1.53756">
        <ele>27</ele>
        <time>2016-04-08T13:06:27Z</time>
      </trkpt>
      <trkpt lat="47.15538" lon="-1.53756">
        <ele>27</ele>
        <time>2016-04-08T13:08:27Z</time>
      </trkpt>
      <trkpt lat="47.15536" lon="-1.53755">
        <ele>27</ele>
        <time>2016-04-08T13:10:27Z</time>
      </trkpt>
      <trkpt lat="47.15534" lon="-1.53753">
        <ele>27</ele>
        <time>2016-04-08T13:12:27Z</time>
      </trkpt>
      <trkpt lat="47.15529" lon="-1.53749">
        <ele>27</ele>
        <time>2016-04-08T13:14:27Z</time>
      </trkpt>
      <trkpt lat="47.15528" lon="-1.53745">
        <ele>27</ele>
        <time>2016-04-08T13:16:27Z</time>
      </trkpt>
      <trkpt lat="47.15527" lon="-1.53742">
        <ele>27</ele>
        <time>2016-04-08T13:18:27Z</time>
      </trkpt>
      <trkpt lat="47.15506" lon="-1.53713">
        <ele>28</ele>
        <time>2016-04-08T13:20:27Z</time>
      </trkpt>
      <trkpt lat="47.15445" lon="-1.53667">
        <ele>29</ele>
        <time>2016-04-08T13:22:27Z</time>
      </trkpt>
      <trkpt lat="47.15372" lon="-1.53613">
        <ele>29</ele>
        <time>2016-04-08T13:24:27Z</time>
      </trkpt>
      <trkpt lat="47.15335" lon="-1.53585">
        <ele>29</ele>
        <time>2016-04-08T13:26:27Z</time>
      </trkpt>
      <trkpt lat="47.15286" lon="-1.53548">
        <ele>30</ele>
        <time>2016-04-08T13:28:27Z</time>
      </trkpt>
      <trkpt lat="47.15259" lon="-1.53534">
        <ele>31</ele>
        <time>2016-04-08T13:30:27Z</time>
      </trkpt>
      <trkpt lat="47.1525" lon="-1.5353">
        <ele>31</ele>
        <time>2016-04-08T13:32:27Z</time>
      </trkpt>
      <trkpt lat="47.15245" lon="-1.5353">
        <ele>31</ele>
        <time>2016-04-08T13:34:27Z</time>
      </trkpt>
      <trkpt lat="47.15239" lon="-1.5353">
        <ele>31</ele>
        <time>2016-04-08T13:36:27Z</time>
      </trkpt>
      <trkpt lat="47.15238" lon="-1.53531">
        <ele>31</ele>
        <time>2016-04-08T13:38:27Z</time>
      </trkpt>
      <trkpt lat="47.15237" lon="-1.53533">
        <ele>31</ele>
        <time>2016-04-08T13:40:27Z</time>
      </trkpt>
      <trkpt lat="47.15235" lon="-1.53534">
        <ele>31</ele>
        <time>2016-04-08T13:42:27Z</time>
      </trkpt>
      <trkpt lat="47.15229" lon="-1.53536">
        <ele>31</ele>
        <time>2016-04-08T13:44:27Z</time>
      </trkpt>
      <trkpt lat="47.15227" lon="-1.53536">
        <ele>31</ele>
        <time>2016-04-08T13:46:27Z</time>
      </trkpt>
      <trkpt lat="47.15223" lon="-1.53534">
        <ele>31</ele>
        <time>2016-04-08T13:48:27Z</time>
      </trkpt>
      <trkpt lat="47.15222" lon="-1.53533">
        <ele>31</ele>
        <time>2016-04-08T13:50:27Z</time>
      </trkpt>
      <trkpt lat="47.15219" lon="-1.5353">
        <ele>31</ele>
        <time>2016-04-08T13:52:27Z</time>
      </trkpt>
      <trkpt lat="47.15217" lon="-1.53522">
        <ele>30</ele>
        <time>2016-04-08T13:54:27Z</time>
      </trkpt>
      <trkpt lat="47.15214" lon="-1.53512">
        <ele>30</ele>
        <time>2016-04-08T13:56:27Z</time>
      </trkpt>
      <trkpt lat="47.1521" lon="-1.53503">
        <ele>30</ele>
        <time>2016-04-08T13:58:27Z</time>
      </trkpt>
      <trkpt lat="47.15203" lon="-1.53495">
        <ele>30</ele>
        <time>2016-04-08T14:00:27Z</time>
      </trkpt>
      <trkpt lat="47.152" lon="-1.53491">
        <ele>30</ele>
        <time>2016-04-08T14:02:27Z</time>
      </trkpt>
      <trkpt lat="47.15193" lon="-1.53484">
        <ele>30</ele>
        <time>2016-04-08T14:04:27Z</time>
      </trkpt>
      <trkpt lat="47.1517" lon="-1.53466">
        <ele>30</ele>
        <time>2016-04-08T14:06:27Z</time>
      </trkpt>
      <trkpt lat="47.1514" lon="-1.53444">
        <ele>30</ele>
        <time>2016-04-08T14:08:27Z</time>
      </trkpt>
      <trkpt lat="47.15116" lon="-1.53427">
        <ele>31</ele>
        <time>2016-04-08T14:10:27Z</time>
      </trkpt>
      <trkpt lat="47.15106" lon="-1.53419">
        <ele>31</ele>
        <time>2016-04-08T14:12:27Z</time>
      </trkpt>
      <trkpt lat="47.15105" lon="-1.53417">
        <ele>31</ele>
        <time>2016-04-08T14:14:27Z</time>
      </trkpt>
      <trkpt lat="47.15093" lon="-1.53404">
        <ele>32</ele>
        <time>2016-04-08T14:16:27Z</time>
      </trkpt>
      <trkpt lat="47.1505" lon="-1.53373">
        <ele>32</ele>
        <time>2016-04-08T14:18:27Z</time>
      </trkpt>
      <trkpt lat="47.15022" lon="-1.53353">
        <ele>33</ele>
        <time>2016-04-08T14:20:27Z</time>
      </trkpt>
      <trkpt lat="47.15012" lon="-1.53347">
        <ele>33</ele>
        <time>2016-04-08T14:22:27Z</time>
      </trkpt>
      <trkpt lat="47.14998" lon="-1.5334">
        <ele>33</ele>
        <time>2016-04-08T14:24:27Z</time>
      </trkpt>
      <trkpt lat="47.14998" lon="-1.5334">
        <ele>33</ele>
        <time>2016-04-08T14:26:27Z</time>
      </trkpt>
      <trkpt lat="47.14996" lon="-1.53341">
        <ele>33</ele>
        <time>2016-04-08T14:28:27Z</time>
      </trkpt>
      <trkpt lat="47.14994" lon="-1.53341">
        <ele>33</ele>
        <time>2016-04-08T14:30:27Z</time>
      </trkpt>
      <trkpt lat="47.14992" lon="-1.5334">
        <ele>33</ele>
        <time>2016-04-08T14:32:27Z</time>
      </trkpt>
      <trkpt lat="47.14989" lon="-1.53338">
        <ele>33</ele>
        <time>2016-04-08T14:34:27Z</time>
      </trkpt>
      <trkpt lat="47.14979" lon="-1.53334">
        <ele>33</ele>
        <time>2016-04-08T14:36:27Z</time>
      </trkpt>
      <trkpt lat="47.14965" lon="-1.53331">
        <ele>33</ele>
        <time>2016-04-08T14:38:27Z</time>
      </trkpt>
      <trkpt lat="47.14952" lon="-1.53326">
        <ele>32</ele>
        <time>2016-04-08T14:40:27Z</time>
      </trkpt>
      <trkpt lat="47.1492" lon="-1.53315">
        <ele>32</ele>
        <time>2016-04-08T14:42:27Z</time>
      </trkpt>
      <trkpt lat="47.14911" lon="-1.53312">
        <ele>32</ele>
        <time>2016-04-08T14:44:27Z</time>
      </trkpt>
      <trkpt lat="47.14871" lon="-1.53299">
        <ele>32</ele>
        <time>2016-04-08T14:46:27Z</time>
      </trkpt>
      <trkpt lat="47.1486" lon="-1.53296">
        <ele>32</ele>
        <time>2016-04-08T14:48:27Z</time>
      </trkpt>
      <trkpt lat="47.1486" lon="-1.53298">
        <ele>32</ele>
        <time>2016-04-08T14:50:27Z</time>
      </trkpt>
      <trkpt lat="47.14859" lon="-1.53299">
        <ele>32</ele>
        <time>2016-04-08T14:52:27Z</time>
      </trkpt>
      <trkpt lat="47.14858" lon="-1.53299">
        <ele>32</ele>
        <time>2016-04-08T14:54:27Z</time>
      </trkpt>
      <trkpt lat="47.14857" lon="-1.533">
        <ele>32</ele>
        <time>2016-04-08T14:56:27Z</time>
      </trkpt>
      <trkpt lat="47.14856" lon="-1.533">
        <ele>32</ele>
        <time>2016-04-08T14:58:27Z</time>
      </trkpt>
      <trkpt lat="47.14855" lon="-1.533">
        <ele>32</ele>
        <time>2016-04-08T15:00:27Z</time>
      </trkpt>
      <trkpt lat="47.14853" lon="-1.53299">
        <ele>32</ele>
        <time>2016-04-08T15:02:27Z</time>
      </trkpt>
      <trkpt lat="47.14852" lon="-1.53299">
        <ele>32</ele>
        <time>2016-04-08T15:04:27Z</time>
      </trkpt>
      <trkpt lat="47.14851" lon="-1.53298">
        <ele>32</ele>
        <time>2016-04-08T15:06:27Z</time>
      </trkpt>
      <trkpt lat="47.1485" lon="-1.53297">
        <ele>32</ele>
        <time>2016-04-08T15:08:27Z</time>
      </trkpt>
      <trkpt lat="47.1485" lon="-1.53296">
        <ele>32</ele>
        <time>2016-04-08T15:10:27Z</time>
      </trkpt>
      <trkpt lat="47.14849" lon="-1.53294">
        <ele>32</ele>
        <time>2016-04-08T15:12:27Z</time>
      </trkpt>
      <trkpt lat="47.14848" lon="-1.53293">
        <ele>32</ele>
        <time>2016-04-08T15:14:27Z</time>
      </trkpt>
      <trkpt lat="47.14848" lon="-1.53292">
        <ele>32</ele>
        <time>2016-04-08T15:16:27Z</time>
      </trkpt>
      <trkpt lat="47.14827" lon="-1.53284">
        <ele>32</ele>
        <time>2016-04-08T15:18:27Z</time>
      </trkpt>
      <trkpt lat="47.14823" lon="-1.53282">
        <ele>32</ele>
        <time>2016-04-08T15:20:27Z</time>
      </trkpt>
      <trkpt lat="47.14781" lon="-1.53272">
        <ele>31</ele>
        <time>2016-04-08T15:22:27Z</time>
      </trkpt>
      <trkpt lat="47.14725" lon="-1.53263">
        <ele>31</ele>
        <time>2016-04-08T15:24:27Z</time>
      </trkpt>
      <trkpt lat="47.14711" lon="-1.53262">
        <ele>31</ele>
        <time>2016-04-08T15:26:27Z</time>
      </trkpt>
      <trkpt lat="47.14676" lon="-1.53258">
        <ele>31</ele>
        <time>2016-04-08T15:28:27Z</time>
      </trkpt>
      <trkpt lat="47.14633" lon="-1.5325">
        <ele>31</ele>
        <time>2016-04-08T15:30:27Z</time>
      </trkpt>
      <trkpt lat="47.14553" lon="-1.53238">
        <ele>31</ele>
        <time>2016-04-08T15:32:27Z</time>
      </trkpt>
      <trkpt lat="47.1454" lon="-1.53236">
        <ele>30</ele>
        <time>2016-04-08T15:34:27Z</time>
      </trkpt>
      <trkpt lat="47.14531" lon="-1.53235">
        <ele>30</ele>
        <time>2016-04-08T15:36:27Z</time>
      </trkpt>
      <trkpt lat="47.14482" lon="-1.53228">
        <ele>30</ele>
        <time>2016-04-08T15:38:27Z</time>
      </trkpt>
      <trkpt lat="47.14448" lon="-1.53224">
        <ele>30</ele>
        <time>2016-04-08T15:40:27Z</time>
      </trkpt>
      <trkpt lat="47.14367" lon="-1.5321">
        <ele>32</ele>
        <time>2016-04-08T15:42:27Z</time>
      </trkpt>
      <trkpt lat="47.14285" lon="-1.53199">
        <ele>32</ele>
        <time>2016-04-08T15:44:27Z</time>
      </trkpt>
      <trkpt lat="47.1424" lon="-1.53194">
        <ele>31</ele>
        <time>2016-04-08T15:46:27Z</time>
      </trkpt>
      <trkpt lat="47.14234" lon="-1.53193">
        <ele>31</ele>
        <time>2016-04-08T15:48:27Z</time>
      </trkpt>
      <trkpt lat="47.14226" lon="-1.53193">
        <ele>31</ele>
        <time>2016-04-08T15:50:27Z</time>
      </trkpt>
      <trkpt lat="47.14178" lon="-1.5319">
        <ele>31</ele>
        <time>2016-04-08T15:52:27Z</time>
      </trkpt>
      <trkpt lat="47.14146" lon="-1.53187">
        <ele>31</ele>
        <time>2016-04-08T15:54:27Z</time>
      </trkpt>
      <trkpt lat="47.14112" lon="-1.53185">
        <ele>30</ele>
        <time>2016-04-08T15:56:27Z</time>
      </trkpt>
      <trkpt lat="47.14056" lon="-1.53181">
        <ele>30</ele>
        <time>2016-04-08T15:58:27Z</time>
      </trkpt>
      <trkpt lat="47.14003" lon="-1.53178">
        <ele>30</ele>
        <time>2016-04-08T16:00:27Z</time>
      </trkpt>
      <trkpt lat="47.13994" lon="-1.53177">
        <ele>30</ele>
        <time>2016-04-08T16:02:27Z</time>
      </trkpt>
      <trkpt lat="47.13969" lon="-1.53177">
        <ele>30</ele>
        <time>2016-04-08T16:04:27Z</time>
      </trkpt>
      <trkpt lat="47.13921" lon="-1.53173">
        <ele>31</ele>
        <time>2016-04-08T16:06:27Z</time>
      </trkpt>
      <trkpt lat="47.13867" lon="-1.5317">
        <ele>31</ele>
        <time>2016-04-08T16:08:27Z</time>
      </trkpt>
      <trkpt lat="47.13834" lon="-1.53169">
        <ele>31</ele>
        <time>2016-04-08T16:10:27Z</time>
      </trkpt>
      <trkpt lat="47.13825" lon="-1.53168">
        <ele>31</ele>
        <time>2016-04-08T16:12:27Z</time>
      </trkpt>
      <trkpt lat="47.13803" lon="-1.53166">
        <ele>30</ele>
        <time>2016-04-08T16:14:27Z</time>
      </trkpt>
      <trkpt lat="47.13763" lon="-1.53164">
        <ele>28</ele>
        <time>2016-04-08T16:16:27Z</time>
      </trkpt>
      <trkpt lat="47.13708" lon="-1.5316">
        <ele>29</ele>
        <time>2016-04-08T16:18:27Z</time>
      </trkpt>
      <trkpt lat="47.13689" lon="-1.53158">
        <ele>30</ele>
        <time>2016-04-08T16:20:27Z</time>
      </trkpt>
      <trkpt lat="47.13656" lon="-1.53156">
        <ele>30</ele>
        <time>2016-04-08T16:22:27Z</time>
      </trkpt>
      <trkpt lat="47.13642" lon="-1.53155">
        <ele>30</ele>
        <time>2016-04-08T16:24:27Z</time>
      </trkpt>
      <trkpt lat="47.13629" lon="-1.53155">
        <ele>30</ele>
        <time>2016-04-08T16:26:27Z</time>
      </trkpt>
      <trkpt lat="47.13625" lon="-1.53155">
        <ele>30</ele>
        <time>2016-04-08T16:28:27Z</time>
      </trkpt>
      <trkpt lat="47.13597" lon="-1.53153">
        <ele>29</ele>
        <time>2016-04-08T16:30:27Z</time>
      </trkpt>
      <trkpt lat="47.13559" lon="-1.5315">
        <ele>29</ele>
        <time>2016-04-08T16:32:27Z</time>
      </trkpt>
      <trkpt lat="47.13529" lon="-1.53147">
        <ele>29</ele>
        <time>2016-04-08T16:34:27Z</time>
      </trkpt>
      <trkpt lat="47.13518" lon="-1.53147">
        <ele>29</ele>
        <time>2016-04-08T16:36:27Z</time>
      </trkpt>
      <trkpt lat="47.135" lon="-1.53145">
        <ele>29</ele>
        <time>2016-04-08T16:38:27Z</time>
      </trkpt>
      <trkpt lat="47.13472" lon="-1.53144">
        <ele>29</ele>
        <time>2016-04-08T16:40:27Z</time>
      </trkpt>
      <trkpt lat="47.13466" lon="-1.53143">
        <ele>29</ele>
        <time>2016-04-08T16:42:27Z</time>
      </trkpt>
      <trkpt lat="47.13444" lon="-1.53142">
        <ele>29</ele>
        <time>2016-04-08T16:44:27Z</time>
      </trkpt>
      <trkpt lat="47.13433" lon="-1.5314">
        <ele>29</ele>
        <time>2016-04-08T16:46:27Z</time>
      </trkpt>
      <trkpt lat="47.13424" lon="-1.5314">
        <ele>28</ele>
        <time>2016-04-08T16:48:27Z</time>
      </trkpt>
      <trkpt lat="47.13408" lon="-1.53139">
        <ele>28</ele>
        <time>2016-04-08T16:50:27Z</time>
      </trkpt>
      <trkpt lat="47.1339" lon="-1.53138">
        <ele>28</ele>
        <time>2016-04-08T16:52:27Z</time>
      </trkpt>
      <trkpt lat="47.13372" lon="-1.5314">
        <ele>28</ele>
        <time>2016-04-08T16:54:27Z</time>
      </trkpt>
      <trkpt lat="47.13359" lon="-1.53142">
        <ele>28</ele>
        <time>2016-04-08T16:56:27Z</time>
      </trkpt>
      <trkpt lat="47.13341" lon="-1.53147">
        <ele>28</ele>
        <time>2016-04-08T16:58:27Z</time>
      </trkpt>
      <trkpt lat="47.13336" lon="-1.53148">
        <ele>28</ele>
        <time>2016-04-08T17:00:27Z</time>
      </trkpt>
      <trkpt lat="47.13334" lon="-1.53149">
        <ele>28</ele>
        <time>2016-04-08T17:02:27Z</time>
      </trkpt>
      <trkpt lat="47.1333" lon="-1.53151">
        <ele>28</ele>
        <time>2016-04-08T17:04:27Z</time>
      </trkpt>
      <trkpt lat="47.13319" lon="-1.53154">
        <ele>28</ele>
        <time>2016-04-08T17:06:27Z</time>
      </trkpt>
      <trkpt lat="47.13287" lon="-1.53166">
        <ele>27</ele>
        <time>2016-04-08T17:08:27Z</time>
      </trkpt>
      <trkpt lat="47.13248" lon="-1.53181">
        <ele>27</ele>
        <time>2016-04-08T17:10:27Z</time>
      </trkpt>
      <trkpt lat="47.13218" lon="-1.53193">
        <ele>27</ele>
        <time>2016-04-08T17:12:27Z</time>
      </trkpt>
      <trkpt lat="47.132" lon="-1.53199">
        <ele>27</ele>
        <time>2016-04-08T17:14:27Z</time>
      </trkpt>
      <trkpt lat="47.13156" lon="-1.53217">
        <ele>26</ele>
        <time>2016-04-08T17:16:27Z</time>
      </trkpt>
      <trkpt lat="47.13132" lon="-1.53227">
        <ele>25</ele>
        <time>2016-04-08T17:18:27Z</time>
      </trkpt>
      <trkpt lat="47.13108" lon="-1.53236">
        <ele>25</ele>
        <time>2016-04-08T17:20:27Z</time>
      </trkpt>
      <trkpt lat="47.13092" lon="-1.53243">
        <ele>24</ele>
        <time>2016-04-08T17:22:27Z</time>
      </trkpt>
      <trkpt lat="47.13074" lon="-1.5325">
        <ele>24</ele>
        <time>2016-04-08T17:24:27Z</time>
      </trkpt>
      <trkpt lat="47.1306" lon="-1.53256">
        <ele>24</ele>
        <time>2016-04-08T17:26:27Z</time>
      </trkpt>
      <trkpt lat="47.1305" lon="-1.53259">
        <ele>24</ele>
        <time>2016-04-08T17:28:27Z</time>
      </trkpt>
      <trkpt lat="47.13043" lon="-1.5326">
        <ele>24</ele>
        <time>2016-04-08T17:30:27Z</time>
      </trkpt>
      <trkpt lat="47.13033" lon="-1.5326">
        <ele>24</ele>
        <time>2016-04-08T17:32:27Z</time>
      </trkpt>
      <trkpt lat="47.13022" lon="-1.53259">
        <ele>25</ele>
        <time>2016-04-08T17:34:27Z</time>
      </trkpt>
      <trkpt lat="47.13013" lon="-1.53256">
        <ele>25</ele>
        <time>2016-04-08T17:36:27Z</time>
      </trkpt>
      <trkpt lat="47.13001" lon="-1.53251">
        <ele>25</ele>
        <time>2016-04-08T17:38:27Z</time>
      </trkpt>
      <trkpt lat="47.12996" lon="-1.53248">
        <ele>25</ele>
        <time>2016-04-08T17:40:27Z</time>
      </trkpt>
      <trkpt lat="47.12988" lon="-1.53243">
        <ele>25</ele>
        <time>2016-04-08T17:42:27Z</time>
      </trkpt>
      <trkpt lat="47.12985" lon="-1.53241">
        <ele>25</ele>
        <time>2016-04-08T17:44:27Z</time>
      </trkpt>
      <trkpt lat="47.12983" lon="-1.5324">
        <ele>25</ele>
        <time>2016-04-08T17:46:27Z</time>
      </trkpt>
      <trkpt lat="47.12974" lon="-1.53232">
        <ele>25</ele>
        <time>2016-04-08T17:48:27Z</time>
      </trkpt>
      <trkpt lat="47.12964" lon="-1.53221">
        <ele>24</ele>
        <time>2016-04-08T17:50:27Z</time>
      </trkpt>
      <trkpt lat="47.12953" lon="-1.5321">
        <ele>24</ele>
        <time>2016-04-08T17:52:27Z</time>
      </trkpt>
      <trkpt lat="47.12941" lon="-1.53196">
        <ele>24</ele>
        <time>2016-04-08T17:54:27Z</time>
      </trkpt>
      <trkpt lat="47.12921" lon="-1.53174">
        <ele>24</ele>
        <time>2016-04-08T17:56:27Z</time>
      </trkpt>
      <trkpt lat="47.129" lon="-1.53148">
        <ele>23</ele>
        <time>2016-04-08T17:58:27Z</time>
      </trkpt>
      <trkpt lat="47.12877" lon="-1.53119">
        <ele>23</ele>
        <time>2016-04-08T18:00:27Z</time>
      </trkpt>
      <trkpt lat="47.12863" lon="-1.53101">
        <ele>22</ele>
        <time>2016-04-08T18:02:27Z</time>
      </trkpt>
      <trkpt lat="47.12844" lon="-1.53078">
        <ele>22</ele>
        <time>2016-04-08T18:04:27Z</time>
      </trkpt>
      <trkpt lat="47.12837" lon="-1.53068">
        <ele>22</ele>
        <time>2016-04-08T18:06:27Z</time>
      </trkpt>
      <trkpt lat="47.12824" lon="-1.53053">
        <ele>22</ele>
        <time>2016-04-08T18:08:27Z</time>
      </trkpt>
      <trkpt lat="47.12808" lon="-1.53032">
        <ele>21</ele>
        <time>2016-04-08T18:10:27Z</time>
      </trkpt>
      <trkpt lat="47.12794" lon="-1.53015">
        <ele>21</ele>
        <time>2016-04-08T18:12:27Z</time>
      </trkpt>
      <trkpt lat="47.12781" lon="-1.52999">
        <ele>21</ele>
        <time>2016-04-08T18:14:27Z</time>
      </trkpt>
      <trkpt lat="47.12768" lon="-1.52983">
        <ele>20</ele>
        <time>2016-04-08T18:16:27Z</time>
      </trkpt>
      <trkpt lat="47.12752" lon="-1.52962">
        <ele>20</ele>
        <time>2016-04-08T18:18:27Z</time>
      </trkpt>
      <trkpt lat="47.12739" lon="-1.52946">
        <ele>20</ele>
        <time>2016-04-08T18:20:27Z</time>
      </trkpt>
      <trkpt lat="47.12719" lon="-1.52921">
        <ele>20</ele>
        <time>2016-04-08T18:22:27Z</time>
      </trkpt>
      <trkpt lat="47.12702" lon="-1.52899">
        <ele>20</ele>
        <time>2016-04-08T18:24:27Z</time>
      </trkpt>
      <trkpt lat="47.12675" lon="-1.52867">
        <ele>21</ele>
        <time>2016-04-08T18:26:27Z</time>
      </trkpt>
      <trkpt lat="47.12656" lon="-1.52842">
        <ele>21</ele>
        <time>2016-04-08T18:28:27Z</time>
      </trkpt>
      <trkpt lat="47.12641" lon="-1.52823">
        <ele>21</ele>
        <time>2016-04-08T18:30:27Z</time>
      </trkpt>
      <trkpt lat="47.12631" lon="-1.52811">
        <ele>20</ele>
        <time>2016-04-08T18:32:27Z</time>
      </trkpt>
      <trkpt lat="47.12616" lon="-1.52793">
        <ele>20</ele>
        <time>2016-04-08T18:34:27Z</time>
      </trkpt>
      <trkpt lat="47.12602" lon="-1.52777">
        <ele>20</ele>
        <time>2016-04-08T18:36:27Z</time>
      </trkpt>
      <trkpt lat="47.12589" lon="-1.52761">
        <ele>20</ele>
        <time>2016-04-08T18:38:27Z</time>
      </trkpt>
      <trkpt lat="47.12575" lon="-1.52744">
        <ele>20</ele>
        <time>2016-04-08T18:40:27Z</time>
      </trkpt>
      <trkpt lat="47.12565" lon="-1.52733">
        <ele>20</ele>
        <time>2016-04-08T18:42:27Z</time>
      </trkpt>
      <trkpt lat="47.12564" lon="-1.52733">
        <ele>20</ele>
        <time>2016-04-08T18:44:27Z</time>
      </trkpt>
      <trkpt lat="47.12553" lon="-1.52724">
        <ele>20</ele>
        <time>2016-04-08T18:46:27Z</time>
      </trkpt>
      <trkpt lat="47.12538" lon="-1.52714">
        <ele>20</ele>
        <time>2016-04-08T18:48:27Z</time>
      </trkpt>
      <trkpt lat="47.12525" lon="-1.52707">
        <ele>21</ele>
        <time>2016-04-08T18:50:27Z</time>
      </trkpt>
      <trkpt lat="47.12525" lon="-1.52707">
        <ele>21</ele>
        <time>2016-04-08T18:52:27Z</time>
      </trkpt>
      <trkpt lat="47.12521" lon="-1.52713">
        <ele>21</ele>
        <time>2016-04-08T18:54:27Z</time>
      </trkpt>
      <trkpt lat="47.12519" lon="-1.52717">
        <ele>21</ele>
        <time>2016-04-08T18:56:27Z</time>
      </trkpt>
      <trkpt lat="47.12517" lon="-1.5272">
        <ele>20</ele>
        <time>2016-04-08T18:58:27Z</time>
      </trkpt>
      <trkpt lat="47.12515" lon="-1.52722">
        <ele>20</ele>
        <time>2016-04-08T19:00:27Z</time>
      </trkpt>
      <trkpt lat="47.12509" lon="-1.52727">
        <ele>20</ele>
        <time>2016-04-08T19:02:27Z</time>
      </trkpt>
      <trkpt lat="47.12507" lon="-1.52729">
        <ele>20</ele>
        <time>2016-04-08T19:04:27Z</time>
      </trkpt>
      <trkpt lat="47.12505" lon="-1.5273">
        <ele>20</ele>
        <time>2016-04-08T19:06:27Z</time>
      </trkpt>
      <trkpt lat="47.12496" lon="-1.52733">
        <ele>20</ele>
        <time>2016-04-08T19:08:27Z</time>
      </trkpt>
      <trkpt lat="47.12486" lon="-1.52735">
        <ele>20</ele>
        <time>2016-04-08T19:10:27Z</time>
      </trkpt>
      <trkpt lat="47.12479" lon="-1.52736">
        <ele>20</ele>
        <time>2016-04-08T19:12:27Z</time>
      </trkpt>
      <trkpt lat="47.12459" lon="-1.52742">
        <ele>20</ele>
        <time>2016-04-08T19:14:27Z</time>
      </trkpt>
      <trkpt lat="47.12451" lon="-1.52747">
        <ele>19</ele>
        <time>2016-04-08T19:16:27Z</time>
      </trkpt>
      <trkpt lat="47.1244" lon="-1.52754">
        <ele>19</ele>
        <time>2016-04-08T19:18:27Z</time>
      </trkpt>
      <trkpt lat="47.1243" lon="-1.52762">
        <ele>19</ele>
        <time>2016-04-08T19:20:27Z</time>
      </trkpt>
      <trkpt lat="47.12427" lon="-1.52765">
        <ele>19</ele>
        <time>2016-04-08T19:22:27Z</time>
      </trkpt>
      <trkpt lat="47.12413" lon="-1.52778">
        <ele>18</ele>
        <time>2016-04-08T19:24:27Z</time>
      </trkpt>
      <trkpt lat="47.12395" lon="-1.52795">
        <ele>18</ele>
        <time>2016-04-08T19:26:27Z</time>
      </trkpt>
      <trkpt lat="47.12379" lon="-1.52811">
        <ele>17</ele>
        <time>2016-04-08T19:28:27Z</time>
      </trkpt>
      <trkpt lat="47.12364" lon="-1.52827">
        <ele>16</ele>
        <time>2016-04-08T19:30:27Z</time>
      </trkpt>
      <trkpt lat="47.12346" lon="-1.52846">
        <ele>15</ele>
        <time>2016-04-08T19:32:27Z</time>
      </trkpt>
      <trkpt lat="47.12334" lon="-1.5286">
        <ele>14</ele>
        <time>2016-04-08T19:34:27Z</time>
      </trkpt>
      <trkpt lat="47.1232" lon="-1.52882">
        <ele>14</ele>
        <time>2016-04-08T19:36:27Z</time>
      </trkpt>
      <trkpt lat="47.12305" lon="-1.52908">
        <ele>13</ele>
        <time>2016-04-08T19:38:27Z</time>
      </trkpt>
      <trkpt lat="47.12291" lon="-1.52933">
        <ele>12</ele>
        <time>2016-04-08T19:40:27Z</time>
      </trkpt>
      <trkpt lat="47.12281" lon="-1.5295">
        <ele>12</ele>
        <time>2016-04-08T19:42:27Z</time>
      </trkpt>
      <trkpt lat="47.12262" lon="-1.52985">
        <ele>11</ele>
        <time>2016-04-08T19:44:27Z</time>
      </trkpt>
      <trkpt lat="47.12208" lon="-1.53087">
        <ele>8</ele>
        <time>2016-04-08T19:46:27Z</time>
      </trkpt>
      <trkpt lat="47.12162" lon="-1.53173">
        <ele>7</ele>
        <time>2016-04-08T19:48:27Z</time>
      </trkpt>
      <trkpt lat="47.12158" lon="-1.53183">
        <ele>7</ele>
        <time>2016-04-08T19:50:27Z</time>
      </trkpt>
      <trkpt lat="47.12154" lon="-1.53192">
        <ele>7</ele>
        <time>2016-04-08T19:52:27Z</time>
      </trkpt>
      <trkpt lat="47.12152" lon="-1.53196">
        <ele>7</ele>
        <time>2016-04-08T19:54:27Z</time>
      </trkpt>
      <trkpt lat="47.1215" lon="-1.53199">
        <ele>8</ele>
        <time>2016-04-08T19:56:27Z</time>
      </trkpt>
      <trkpt lat="47.12117" lon="-1.53262">
        <ele>9</ele>
        <time>2016-04-08T19:58:27Z</time>
      </trkpt>
      <trkpt lat="47.12109" lon="-1.53275">
        <ele>10</ele>
        <time>2016-04-08T20:00:27Z</time>
      </trkpt>
      <trkpt lat="47.12077" lon="-1.53336">
        <ele>12</ele>
        <time>2016-04-08T20:02:27Z</time>
      </trkpt>
      <trkpt lat="47.12053" lon="-1.53382">
        <ele>13</ele>
        <time>2016-04-08T20:04:27Z</time>
      </trkpt>
      <trkpt lat="47.12047" lon="-1.53393">
        <ele>13</ele>
        <time>2016-04-08T20:06:27Z</time>
      </trkpt>
      <trkpt lat="47.12035" lon="-1.53415">
        <ele>14</ele>
        <time>2016-04-08T20:08:27Z</time>
      </trkpt>
      <trkpt lat="47.12012" lon="-1.5346">
        <ele>14</ele>
        <time>2016-04-08T20:10:27Z</time>
      </trkpt>
      <trkpt lat="47.1198" lon="-1.5352">
        <ele>14</ele>
        <time>2016-04-08T20:12:27Z</time>
      </trkpt>
      <trkpt lat="47.11948" lon="-1.53581">
        <ele>15</ele>
        <time>2016-04-08T20:14:27Z</time>
      </trkpt>
      <trkpt lat="47.11935" lon="-1.53604">
        <ele>15</ele>
        <time>2016-04-08T20:16:27Z</time>
      </trkpt>
      <trkpt lat="47.11921" lon="-1.5363">
        <ele>16</ele>
        <time>2016-04-08T20:18:27Z</time>
      </trkpt>
      <trkpt lat="47.11898" lon="-1.53671">
        <ele>16</ele>
        <time>2016-04-08T20:20:27Z</time>
      </trkpt>
      <trkpt lat="47.11888" lon="-1.53689">
        <ele>17</ele>
        <time>2016-04-08T20:22:27Z</time>
      </trkpt>
      <trkpt lat="47.11881" lon="-1.53702">
        <ele>17</ele>
        <time>2016-04-08T20:24:27Z</time>
      </trkpt>
      <trkpt lat="47.11876" lon="-1.53715">
        <ele>17</ele>
        <time>2016-04-08T20:26:27Z</time>
      </trkpt>
      <trkpt lat="47.1187" lon="-1.5373">
        <ele>18</ele>
        <time>2016-04-08T20:28:27Z</time>
      </trkpt>
      <trkpt lat="47.11862" lon="-1.53751">
        <ele>18</ele>
        <time>2016-04-08T20:30:27Z</time>
      </trkpt>
      <trkpt lat="47.11857" lon="-1.53764">
        <ele>19</ele>
        <time>2016-04-08T20:32:27Z</time>
      </trkpt>
      <trkpt lat="47.11857" lon="-1.53766">
        <ele>19</ele>
        <time>2016-04-08T20:34:27Z</time>
      </trkpt>
      <trkpt lat="47.11847" lon="-1.5379">
        <ele>20</ele>
        <time>2016-04-08T20:36:27Z</time>
      </trkpt>
      <trkpt lat="47.11839" lon="-1.53809">
        <ele>20</ele>
        <time>2016-04-08T20:38:27Z</time>
      </trkpt>
      <trkpt lat="47.1183" lon="-1.53826">
        <ele>21</ele>
        <time>2016-04-08T20:40:27Z</time>
      </trkpt>
      <trkpt lat="47.11821" lon="-1.53843">
        <ele>21</ele>
        <time>2016-04-08T20:42:27Z</time>
      </trkpt>
      <trkpt lat="47.11809" lon="-1.53863">
        <ele>22</ele>
        <time>2016-04-08T20:44:27Z</time>
      </trkpt>
      <trkpt lat="47.11797" lon="-1.53883">
        <ele>23</ele>
        <time>2016-04-08T20:46:27Z</time>
      </trkpt>
      <trkpt lat="47.11789" lon="-1.539">
        <ele>24</ele>
        <time>2016-04-08T20:48:27Z</time>
      </trkpt>
      <trkpt lat="47.11781" lon="-1.53917">
        <ele>25</ele>
        <time>2016-04-08T20:50:27Z</time>
      </trkpt>
      <trkpt lat="47.11771" lon="-1.53941">
        <ele>25</ele>
        <time>2016-04-08T20:52:27Z</time>
      </trkpt>
      <trkpt lat="47.11753" lon="-1.53987">
        <ele>26</ele>
        <time>2016-04-08T20:54:27Z</time>
      </trkpt>
      <trkpt lat="47.11749" lon="-1.53996">
        <ele>26</ele>
        <time>2016-04-08T20:56:27Z</time>
      </trkpt>
      <trkpt lat="47.11728" lon="-1.54049">
        <ele>26</ele>
        <time>2016-04-08T20:58:27Z</time>
      </trkpt>
      <trkpt lat="47.11716" lon="-1.54078">
        <ele>25</ele>
        <time>2016-04-08T21:00:27Z</time>
      </trkpt>
      <trkpt lat="47.11703" lon="-1.54107">
        <ele>25</ele>
        <time>2016-04-08T21:02:27Z</time>
      </trkpt>
      <trkpt lat="47.11696" lon="-1.54119">
        <ele>24</ele>
        <time>2016-04-08T21:04:27Z</time>
      </trkpt>
      <trkpt lat="47.11694" lon="-1.54122">
        <ele>24</ele>
        <time>2016-04-08T21:06:27Z</time>
      </trkpt>
      <trkpt lat="47.11688" lon="-1.5413">
        <ele>24</ele>
        <time>2016-04-08T21:08:27Z</time>
      </trkpt>
      <trkpt lat="47.11676" lon="-1.54145">
        <ele>24</ele>
        <time>2016-04-08T21:10:27Z</time>
      </trkpt>
      <trkpt lat="47.11669" lon="-1.54154">
        <ele>23</ele>
        <time>2016-04-08T21:12:27Z</time>
      </trkpt>
      <trkpt lat="47.11664" lon="-1.54159">
        <ele>23</ele>
        <time>2016-04-08T21:14:27Z</time>
      </trkpt>
      <trkpt lat="47.11664" lon="-1.5416">
        <ele>23</ele>
        <time>2016-04-08T21:16:27Z</time>
      </trkpt>
      <trkpt lat="47.11664" lon="-1.54161">
        <ele>23</ele>
        <time>2016-04-08T21:18:27Z</time>
      </trkpt>
      <trkpt lat="47.11664" lon="-1.54162">
        <ele>23</ele>
        <time>2016-04-08T21:20:27Z</time>
      </trkpt>
      <trkpt lat="47.11665" lon="-1.54163">
        <ele>23</ele>
        <time>2016-04-08T21:22:27Z</time>
      </trkpt>
      <trkpt lat="47.11665" lon="-1.54164">
        <ele>23</ele>
        <time>2016-04-08T21:24:27Z</time>
      </trkpt>
      <trkpt lat="47.11665" lon="-1.54165">
        <ele>23</ele>
        <time>2016-04-08T21:26:27Z</time>
      </trkpt>
      <trkpt lat="47.11665" lon="-1.54166">
        <ele>23</ele>
        <time>2016-04-08T21:28:27Z</time>
      </trkpt>
      <trkpt lat="47.11665" lon="-1.54167">
        <ele>23</ele>
        <time>2016-04-08T21:30:27Z</time>
      </trkpt>
      <trkpt lat="47.11665" lon="-1.54168">
        <ele>23</ele>
        <time>2016-04-08T21:32:27Z</time>
      </trkpt>
      <trkpt lat="47.11664" lon="-1.54169">
        <ele>23</ele>
        <time>2016-04-08T21:34:27Z</time>
      </trkpt>
      <trkpt lat="47.11664" lon="-1.5417">
        <ele>23</ele>
        <time>2016-04-08T21:36:27Z</time>
      </trkpt>
      <trkpt lat="47.11664" lon="-1.54171">
        <ele>23</ele>
        <time>2016-04-08T21:38:27Z</time>
      </trkpt>
      <trkpt lat="47.11664" lon="-1.54172">
        <ele>23</ele>
        <time>2016-04-08T21:40:27Z</time>
      </trkpt>
      <trkpt lat="47.11663" lon="-1.54173">
        <ele>23</ele>
        <time>2016-04-08T21:42:27Z</time>
      </trkpt>
      <trkpt lat="47.11663" lon="-1.54174">
        <ele>23</ele>
        <time>2016-04-08T21:44:27Z</time>
      </trkpt>
      <trkpt lat="47.11662" lon="-1.54174">
        <ele>23</ele>
        <time>2016-04-08T21:46:27Z</time>
      </trkpt>
      <trkpt lat="47.11662" lon="-1.54175">
        <ele>23</ele>
        <time>2016-04-08T21:48:27Z</time>
      </trkpt>
      <trkpt lat="47.11661" lon="-1.54176">
        <ele>23</ele>
        <time>2016-04-08T21:50:27Z</time>
      </trkpt>
      <trkpt lat="47.11661" lon="-1.54177">
        <ele>23</ele>
        <time>2016-04-08T21:52:27Z</time>
      </trkpt>
      <trkpt lat="47.1166" lon="-1.54177">
        <ele>23</ele>
        <time>2016-04-08T21:54:27Z</time>
      </trkpt>
      <trkpt lat="47.1166" lon="-1.54178">
        <ele>23</ele>
        <time>2016-04-08T21:56:27Z</time>
      </trkpt>
      <trkpt lat="47.11659" lon="-1.54178">
        <ele>23</ele>
        <time>2016-04-08T21:58:27Z</time>
      </trkpt>
      <trkpt lat="47.11658" lon="-1.54178">
        <ele>23</ele>
        <time>2016-04-08T22:00:27Z</time>
      </trkpt>
      <trkpt lat="47.11658" lon="-1.54179">
        <ele>23</ele>
        <time>2016-04-08T22:02:27Z</time>
      </trkpt>
      <trkpt lat="47.11657" lon="-1.54179">
        <ele>23</ele>
        <time>2016-04-08T22:04:27Z</time>
      </trkpt>
      <trkpt lat="47.11656" lon="-1.54179">
        <ele>23</ele>
        <time>2016-04-08T22:06:27Z</time>
      </trkpt>
      <trkpt lat="47.11655" lon="-1.54179">
        <ele>23</ele>
        <time>2016-04-08T22:08:27Z</time>
      </trkpt>
      <trkpt lat="47.11654" lon="-1.54179">
        <ele>23</ele>
        <time>2016-04-08T22:10:27Z</time>
      </trkpt>
      <trkpt lat="47.11653" lon="-1.54178">
        <ele>23</ele>
        <time>2016-04-08T22:12:27Z</time>
      </trkpt>
      <trkpt lat="47.11652" lon="-1.54178">
        <ele>23</ele>
        <time>2016-04-08T22:14:27Z</time>
      </trkpt>
      <trkpt lat="47.11651" lon="-1.54177">
        <ele>23</ele>
        <time>2016-04-08T22:16:27Z</time>
      </trkpt>
      <trkpt lat="47.11638" lon="-1.54203">
        <ele>23</ele>
        <time>2016-04-08T22:18:27Z</time>
      </trkpt>
      <trkpt lat="47.11634" lon="-1.54209">
        <ele>23</ele>
        <time>2016-04-08T22:20:27Z</time>
      </trkpt>
      <trkpt lat="47.11632" lon="-1.5421">
        <ele>23</ele>
        <time>2016-04-08T22:22:27Z</time>
      </trkpt>
      <trkpt lat="47.11627" lon="-1.54216">
        <ele>23</ele>
        <time>2016-04-08T22:24:27Z</time>
      </trkpt>
      <trkpt lat="47.11625" lon="-1.54218">
        <ele>23</ele>
        <time>2016-04-08T22:26:27Z</time>
      </trkpt>
      <trkpt lat="47.1158" lon="-1.54249">
        <ele>22</ele>
        <time>2016-04-08T22:28:27Z</time>
      </trkpt>
      <trkpt lat="47.11557" lon="-1.54264">
        <ele>22</ele>
        <time>2016-04-08T22:30:27Z</time>
      </trkpt>
      <trkpt lat="47.1155" lon="-1.54269">
        <ele>22</ele>
        <time>2016-04-08T22:32:27Z</time>
      </trkpt>
      <trkpt lat="47.11492" lon="-1.5431">
        <ele>22</ele>
        <time>2016-04-08T22:34:27Z</time>
      </trkpt>
      <trkpt lat="47.11491" lon="-1.5431">
        <ele>22</ele>
        <time>2016-04-08T22:36:27Z</time>
      </trkpt>
      <trkpt lat="47.11473" lon="-1.54323">
        <ele>22</ele>
        <time>2016-04-08T22:38:27Z</time>
      </trkpt>
      <trkpt lat="47.11421" lon="-1.54358">
        <ele>21</ele>
        <time>2016-04-08T22:40:27Z</time>
      </trkpt>
      <trkpt lat="47.1142" lon="-1.5436">
        <ele>21</ele>
        <time>2016-04-08T22:42:27Z</time>
      </trkpt>
      <trkpt lat="47.11363" lon="-1.54401">
        <ele>21</ele>
        <time>2016-04-08T22:44:27Z</time>
      </trkpt>
      <trkpt lat="47.11327" lon="-1.54426">
        <ele>21</ele>
        <time>2016-04-08T22:46:27Z</time>
      </trkpt>
      <trkpt lat="47.11313" lon="-1.54436">
        <ele>21</ele>
        <time>2016-04-08T22:48:27Z</time>
      </trkpt>
      <trkpt lat="47.11276" lon="-1.54461">
        <ele>20</ele>
        <time>2016-04-08T22:50:27Z</time>
      </trkpt>
      <trkpt lat="47.11258" lon="-1.54472">
        <ele>20</ele>
        <time>2016-04-08T22:52:27Z</time>
      </trkpt>
      <trkpt lat="47.11246" lon="-1.54478">
        <ele>20</ele>
        <time>2016-04-08T22:54:27Z</time>
      </trkpt>
      <trkpt lat="47.11223" lon="-1.54492">
        <ele>20</ele>
        <time>2016-04-08T22:56:27Z</time>
      </trkpt>
      <trkpt lat="47.11175" lon="-1.54515">
        <ele>20</ele>
        <time>2016-04-08T22:58:27Z</time>
      </trkpt>
      <trkpt lat="47.11143" lon="-1.54531">
        <ele>19</ele>
        <time>2016-04-08T23:00:27Z</time>
      </trkpt>
      <trkpt lat="47.11093" lon="-1.54555">
        <ele>17</ele>
        <time>2016-04-08T23:02:27Z</time>
      </trkpt>
      <trkpt lat="47.11086" lon="-1.54558">
        <ele>17</ele>
        <time>2016-04-08T23:04:27Z</time>
      </trkpt>
      <trkpt lat="47.11038" lon="-1.54582">
        <ele>18</ele>
        <time>2016-04-08T23:06:27Z</time>
      </trkpt>
      <trkpt lat="47.1098" lon="-1.54607">
        <ele>18</ele>
        <time>2016-04-08T23:08:27Z</time>
      </trkpt>
      <trkpt lat="47.10945" lon="-1.54627">
        <ele>18</ele>
        <time>2016-04-08T23:10:27Z</time>
      </trkpt>
      <trkpt lat="47.10902" lon="-1.54648">
        <ele>18</ele>
        <time>2016-04-08T23:12:27Z</time>
      </trkpt>
      <trkpt lat="47.1087" lon="-1.54665">
        <ele>18</ele>
        <time>2016-04-08T23:14:27Z</time>
      </trkpt>
      <trkpt lat="47.10851" lon="-1.54676">
        <ele>18</ele>
        <time>2016-04-08T23:16:27Z</time>
      </trkpt>
      <trkpt lat="47.10842" lon="-1.54682">
        <ele>18</ele>
        <time>2016-04-08T23:18:27Z</time>
      </trkpt>
      <trkpt lat="47.10842" lon="-1.54682">
        <ele>18</ele>
        <time>2016-04-08T23:20:27Z</time>
      </trkpt>
      <trkpt lat="47.10826" lon="-1.54698">
        <ele>18</ele>
        <time>2016-04-08T23:22:27Z</time>
      </trkpt>
      <trkpt lat="47.10802" lon="-1.54721">
        <ele>17</ele>
        <time>2016-04-08T23:24:27Z</time>
      </trkpt>
      <trkpt lat="47.10792" lon="-1.54729">
        <ele>17</ele>
        <time>2016-04-08T23:26:27Z</time>
      </trkpt>
      <trkpt lat="47.10771" lon="-1.54747">
        <ele>16</ele>
        <time>2016-04-08T23:28:27Z</time>
      </trkpt>
      <trkpt lat="47.10754" lon="-1.5476">
        <ele>16</ele>
        <time>2016-04-08T23:30:27Z</time>
      </trkpt>
      <trkpt lat="47.10707" lon="-1.54794">
        <ele>16</ele>
        <time>2016-04-08T23:32:27Z</time>
      </trkpt>
      <trkpt lat="47.10662" lon="-1.54826">
        <ele>17</ele>
        <time>2016-04-08T23:34:27Z</time>
      </trkpt>
      <trkpt lat="47.10638" lon="-1.54842">
        <ele>17</ele>
        <time>2016-04-08T23:36:27Z</time>
      </trkpt>
      <trkpt lat="47.10619" lon="-1.54854">
        <ele>16</ele>
        <time>2016-04-08T23:38:27Z</time>
      </trkpt>
      <trkpt lat="47.10568" lon="-1.54886">
        <ele>16</ele>
        <time>2016-04-08T23:40:27Z</time>
      </trkpt>
      <trkpt lat="47.10545" lon="-1.54901">
        <ele>16</ele>
        <time>2016-04-08T23:42:27Z</time>
      </trkpt>
      <trkpt lat="47.1051" lon="-1.54922">
        <ele>17</ele>
        <time>2016-04-08T23:44:27Z</time>
      </trkpt>
      <trkpt lat="47.10489" lon="-1.54935">
        <ele>17</ele>
        <time>2016-04-08T23:46:27Z</time>
      </trkpt>
      <trkpt lat="47.10473" lon="-1.54945">
        <ele>17</ele>
        <time>2016-04-08T23:48:27Z</time>
      </trkpt>
      <trkpt lat="47.10426" lon="-1.54976">
        <ele>17</ele>
        <time>2016-04-08T23:50:27Z</time>
      </trkpt>
      <trkpt lat="47.10361" lon="-1.5502">
        <ele>18</ele>
        <time>2016-04-08T23:52:27Z</time>
      </trkpt>
      <trkpt lat="47.10293" lon="-1.55067">
        <ele>17</ele>
        <time>2016-04-08T23:54:27Z</time>
      </trkpt>
      <trkpt lat="47.10268" lon="-1.55084">
        <ele>17</ele>
        <time>2016-04-08T23:56:27Z</time>
      </trkpt>
      <trkpt lat="47.10229" lon="-1.5511">
        <ele>16</ele>
        <time>2016-04-08T23:58:27Z</time>
      </trkpt>
      <trkpt lat="47.1019" lon="-1.55136">
        <ele>16</ele>
        <time>2016-04-09T00:00:27Z</time>
      </trkpt>
      <trkpt lat="47.10148" lon="-1.55164">
        <ele>15</ele>
        <time>2016-04-09T00:02:27Z</time>
      </trkpt>
      <trkpt lat="47.10125" lon="-1.5518">
        <ele>15</ele>
        <time>2016-04-09T00:04:27Z</time>
      </trkpt>
      <trkpt lat="47.101" lon="-1.55196">
        <ele>15</ele>
        <time>2016-04-09T00:06:27Z</time>
      </trkpt>
      <trkpt lat="47.10071" lon="-1.55215">
        <ele>15</ele>
        <time>2016-04-09T00:08:27Z</time>
      </trkpt>
      <trkpt lat="47.1005" lon="-1.5523">
        <ele>15</ele>
        <time>2016-04-09T00:10:27Z</time>
      </trkpt>
      <trkpt lat="47.10003" lon="-1.55262">
        <ele>16</ele>
        <time>2016-04-09T00:12:27Z</time>
      </trkpt>
      <trkpt lat="47.09952" lon="-1.55296">
        <ele>15</ele>
        <time>2016-04-09T00:14:27Z</time>
      </trkpt>
      <trkpt lat="47.09917" lon="-1.55319">
        <ele>13</ele>
        <time>2016-04-09T00:16:27Z</time>
      </trkpt>
      <trkpt lat="47.09834" lon="-1.55375">
        <ele>13</ele>
        <time>2016-04-09T00:18:27Z</time>
      </trkpt>
      <trkpt lat="47.0979" lon="-1.55406">
        <ele>13</ele>
        <time>2016-04-09T00:20:27Z</time>
      </trkpt>
      <trkpt lat="47.09785" lon="-1.55411">
        <ele>13</ele>
        <time>2016-04-09T00:22:27Z</time>
      </trkpt>
      <trkpt lat="47.09776" lon="-1.55417">
        <ele>13</ele>
        <time>2016-04-09T00:24:27Z</time>
      </trkpt>
      <trkpt lat="47.09769" lon="-1.55425">
        <ele>13</ele>
        <time>2016-04-09T00:26:27Z</time>
      </trkpt>
      <trkpt lat="47.09754" lon="-1.55443">
        <ele>13</ele>
        <time>2016-04-09T00:28:27Z</time>
      </trkpt>
      <trkpt lat="47.09748" lon="-1.55448">
        <ele>13</ele>
        <time>2016-04-09T00:30:27Z</time>
      </trkpt>
      <trkpt lat="47.09742" lon="-1.5545">
        <ele>13</ele>
        <time>2016-04-09T00:32:27Z</time>
      </trkpt>
      <trkpt lat="47.09742" lon="-1.5545">
        <ele>13</ele>
        <time>2016-04-09T00:34:27Z</time>
      </trkpt>
      <trkpt lat="47.09759" lon="-1.55581">
        <ele>11</ele>
        <time>2016-04-09T00:36:27Z</time>
      </trkpt>
      <trkpt lat="47.09778" lon="-1.55732">
        <ele>12</ele>
        <time>2016-04-09T00:38:27Z</time>
      </trkpt>
      <trkpt lat="47.09778" lon="-1.55735">
        <ele>12</ele>
        <time>2016-04-09T00:40:27Z</time>
      </trkpt>
      <trkpt lat="47.09799" lon="-1.55895">
        <ele>12</ele>
        <time>2016-04-09T00:42:27Z</time>
      </trkpt>
      <trkpt lat="47.09811" lon="-1.55979">
        <ele>12</ele>
        <time>2016-04-09T00:44:27Z</time>
      </trkpt>
      <trkpt lat="47.09827" lon="-1.56116">
        <ele>12</ele>
        <time>2016-04-09T00:46:27Z</time>
      </trkpt>
      <trkpt lat="47.09827" lon="-1.56116">
        <ele>12</ele>
        <time>2016-04-09T00:48:27Z</time>
      </trkpt>
      <trkpt lat="47.09733" lon="-1.56145">
        <ele>11</ele>
        <time>2016-04-09T00:50:27Z</time>
      </trkpt>
      <trkpt lat="47.0972" lon="-1.56148">
        <ele>11</ele>
        <time>2016-04-09T00:52:27Z</time>
      </trkpt>
      <trkpt lat="47.09718" lon="-1.56149">
        <ele>11</ele>
        <time>2016-04-09T00:54:27Z</time>
      </trkpt>
      <trkpt lat="47.09691" lon="-1.56159">
        <ele>10</ele>
        <time>2016-04-09T00:56:27Z</time>
      </trkpt>
      <trkpt lat="47.09681" lon="-1.56166">
        <ele>10</ele>
        <time>2016-04-09T00:58:27Z</time>
      </trkpt>
      <trkpt lat="47.09677" lon="-1.56172">
        <ele>10</ele>
        <time>2016-04-09T01:00:27Z</time>
      </trkpt>
      <trkpt lat="47.09674" lon="-1.56178">
        <ele>10</ele>
        <time>2016-04-09T01:02:27Z</time>
      </trkpt>
      <trkpt lat="47.09668" lon="-1.56199">
        <ele>10</ele>
        <time>2016-04-09T01:04:27Z</time>
      </trkpt>
      <trkpt lat="47.09654" lon="-1.56241">
        <ele>10</ele>
        <time>2016-04-09T01:06:27Z</time>
      </trkpt>
      <trkpt lat="47.09646" lon="-1.56252">
        <ele>10</ele>
        <time>2016-04-09T01:08:27Z</time>
      </trkpt>
      <trkpt lat="47.09635" lon="-1.56264">
        <ele>10</ele>
        <time>2016-04-09T01:10:27Z</time>
      </trkpt>
      <trkpt lat="47.09607" lon="-1.56281">
        <ele>10</ele>
        <time>2016-04-09T01:12:27Z</time>
      </trkpt>
      <trkpt lat="47.0958" lon="-1.563">
        <ele>10</ele>
        <time>2016-04-09T01:14:27Z</time>
      </trkpt>
      <trkpt lat="47.09568" lon="-1.56311">
        <ele>10</ele>
        <time>2016-04-09T01:16:27Z</time>
      </trkpt>
      <trkpt lat="47.09559" lon="-1.56324">
        <ele>10</ele>
        <time>2016-04-09T01:18:27Z</time>
      </trkpt>
      <trkpt lat="47.09539" lon="-1.56356">
        <ele>11</ele>
        <time>2016-04-09T01:20:27Z</time>
      </trkpt>
      <trkpt lat="47.09496" lon="-1.56438">
        <ele>11</ele>
        <time>2016-04-09T01:22:27Z</time>
      </trkpt>
      <trkpt lat="47.09364" lon="-1.56676">
        <ele>11</ele>
        <time>2016-04-09T01:24:27Z</time>
      </trkpt>
      <trkpt lat="47.09289" lon="-1.56812">
        <ele>13</ele>
        <time>2016-04-09T01:26:27Z</time>
      </trkpt>
      <trkpt lat="47.09205" lon="-1.56964">
        <ele>13</ele>
        <time>2016-04-09T01:28:27Z</time>
      </trkpt>
      <trkpt lat="47.09108" lon="-1.5714">
        <ele>10</ele>
        <time>2016-04-09T01:30:27Z</time>
      </trkpt>
      <trkpt lat="47.09047" lon="-1.57251">
        <ele>11</ele>
        <time>2016-04-09T01:32:27Z</time>
      </trkpt>
      <trkpt lat="47.09019" lon="-1.57302">
        <ele>11</ele>
        <time>2016-04-09T01:34:27Z</time>
      </trkpt>
      <trkpt lat="47.08948" lon="-1.5743">
        <ele>13</ele>
        <time>2016-04-09T01:36:27Z</time>
      </trkpt>
      <trkpt lat="47.08948" lon="-1.5743">
        <ele>13</ele>
        <time>2016-04-09T01:38:27Z</time>
      </trkpt>
      <trkpt lat="47.08931" lon="-1.5741">
        <ele>13</ele>
        <time>2016-04-09T01:40:27Z</time>
      </trkpt>
      <trkpt lat="47.08871" lon="-1.57344">
        <ele>12</ele>
        <time>2016-04-09T01:42:27Z</time>
      </trkpt>
      <trkpt lat="47.08871" lon="-1.57344">
        <ele>12</ele>
        <time>2016-04-09T01:44:27Z</time>
      </trkpt>
      <trkpt lat="47.08855" lon="-1.57326">
        <ele>12</ele>
        <time>2016-04-09T01:46:27Z</time>
      </trkpt>
      <trkpt lat="47.08746" lon="-1.57208">
        <ele>12</ele>
        <time>2016-04-09T01:48:27Z</time>
      </trkpt>
      <trkpt lat="47.08717" lon="-1.57173">
        <ele>13</ele>
        <time>2016-04-09T01:50:27Z</time>
      </trkpt>
      <trkpt lat="47.08594" lon="-1.57038">
        <ele>16</ele>
        <time>2016-04-09T01:52:27Z</time>
      </trkpt>
      <trkpt lat="47.08589" lon="-1.57032">
        <ele>16</ele>
        <time>2016-04-09T01:54:27Z</time>
      </trkpt>
      <trkpt lat="47.0855" lon="-1.56991">
        <ele>18</ele>
        <time>2016-04-09T01:56:27Z</time>
      </trkpt>
      <trkpt lat="47.08485" lon="-1.5692">
        <ele>18</ele>
        <time>2016-04-09T01:58:27Z</time>
      </trkpt>
      <trkpt lat="47.08473" lon="-1.56906">
        <ele>17</ele>
        <time>2016-04-09T02:00:27Z</time>
      </trkpt>
      <trkpt lat="47.08334" lon="-1.56751">
        <ele>19</ele>
        <time>2016-04-09T02:02:27Z</time>
      </trkpt>
      <trkpt lat="47.08245" lon="-1.56654">
        <ele>22</ele>
        <time>2016-04-09T02:04:27Z</time>
      </trkpt>
      <trkpt lat="47.08158" lon="-1.56553">
        <ele>19</ele>
        <time>2016-04-09T02:06:27Z</time>
      </trkpt>
      <trkpt lat="47.08133" lon="-1.56527">
        <ele>19</ele>
        <time>2016-04-09T02:08:27Z</time>
      </trkpt>
      <trkpt lat="47.08129" lon="-1.56525">
        <ele>18</ele>
        <time>2016-04-09T02:10:27Z</time>
      </trkpt>
      <trkpt lat="47.08126" lon="-1.56525">
        <ele>18</ele>
        <time>2016-04-09T02:12:27Z</time>
      </trkpt>
      <trkpt lat="47.08126" lon="-1.56525">
        <ele>18</ele>
        <time>2016-04-09T02:14:27Z</time>
      </trkpt>
      <trkpt lat="47.08117" lon="-1.56525">
        <ele>18</ele>
        <time>2016-04-09T02:16:27Z</time>
      </trkpt>
      <trkpt lat="47.0806" lon="-1.56557">
        <ele>18</ele>
        <time>2016-04-09T02:18:27Z</time>
      </trkpt>
      <trkpt lat="47.08007" lon="-1.56586">
        <ele>18</ele>
        <time>2016-04-09T02:20:27Z</time>
      </trkpt>
      <trkpt lat="47.08001" lon="-1.56592">
        <ele>18</ele>
        <time>2016-04-09T02:22:27Z</time>
      </trkpt>
      <trkpt lat="47.07995" lon="-1.56598">
        <ele>18</ele>
        <time>2016-04-09T02:24:27Z</time>
      </trkpt>
      <trkpt lat="47.07987" lon="-1.5661">
        <ele>18</ele>
        <time>2016-04-09T02:26:27Z</time>
      </trkpt>
      <trkpt lat="47.0798" lon="-1.56628">
        <ele>18</ele>
        <time>2016-04-09T02:28:27Z</time>
      </trkpt>
      <trkpt lat="47.07973" lon="-1.56648">
        <ele>17</ele>
        <time>2016-04-09T02:30:27Z</time>
      </trkpt>
      <trkpt lat="47.07965" lon="-1.56672">
        <ele>17</ele>
        <time>2016-04-09T02:32:27Z</time>
      </trkpt>
      <trkpt lat="47.07959" lon="-1.56688">
        <ele>17</ele>
        <time>2016-04-09T02:34:27Z</time>
      </trkpt>
      <trkpt lat="47.07957" lon="-1.56692">
        <ele>17</ele>
        <time>2016-04-09T02:36:27Z</time>
      </trkpt>
      <trkpt lat="47.07955" lon="-1.56698">
        <ele>17</ele>
        <time>2016-04-09T02:38:27Z</time>
      </trkpt>
      <trkpt lat="47.07943" lon="-1.5672">
        <ele>16</ele>
        <time>2016-04-09T02:40:27Z</time>
      </trkpt>
      <trkpt lat="47.07943" lon="-1.5672">
        <ele>16</ele>
        <time>2016-04-09T02:42:27Z</time>
      </trkpt>
      <trkpt lat="47.07943" lon="-1.56723">
        <ele>16</ele>
        <time>2016-04-09T02:44:27Z</time>
      </trkpt>
      <trkpt lat="47.07942" lon="-1.56724">
        <ele>16</ele>
        <time>2016-04-09T02:46:27Z</time>
      </trkpt>
      <trkpt lat="47.07942" lon="-1.56726">
        <ele>16</ele>
        <time>2016-04-09T02:48:27Z</time>
      </trkpt>
      <trkpt lat="47.07942" lon="-1.56727">
        <ele>16</ele>
        <time>2016-04-09T02:50:27Z</time>
      </trkpt>
      <trkpt lat="47.07942" lon="-1.56729">
        <ele>16</ele>
        <time>2016-04-09T02:52:27Z</time>
      </trkpt>
      <trkpt lat="47.07941" lon="-1.5673">
        <ele>16</ele>
        <time>2016-04-09T02:54:27Z</time>
      </trkpt>
      <trkpt lat="47.07941" lon="-1.56731">
        <ele>16</ele>
        <time>2016-04-09T02:56:27Z</time>
      </trkpt>
      <trkpt lat="47.07939" lon="-1.56749">
        <ele>16</ele>
        <time>2016-04-09T02:58:27Z</time>
      </trkpt>
      <trkpt lat="47.07938" lon="-1.56766">
        <ele>16</ele>
        <time>2016-04-09T03:00:27Z</time>
      </trkpt>
      <trkpt lat="47.07938" lon="-1.56784">
        <ele>16</ele>
        <time>2016-04-09T03:02:27Z</time>
      </trkpt>
      <trkpt lat="47.07938" lon="-1.56798">
        <ele>17</ele>
        <time>2016-04-09T03:04:27Z</time>
      </trkpt>
      <trkpt lat="47.07938" lon="-1.56806">
        <ele>17</ele>
        <time>2016-04-09T03:06:27Z</time>
      </trkpt>
      <trkpt lat="47.07936" lon="-1.56817">
        <ele>17</ele>
        <time>2016-04-09T03:08:27Z</time>
      </trkpt>
      <trkpt lat="47.07935" lon="-1.56841">
        <ele>17</ele>
        <time>2016-04-09T03:10:27Z</time>
      </trkpt>
      <trkpt lat="47.07933" lon="-1.5686">
        <ele>16</ele>
        <time>2016-04-09T03:12:27Z</time>
      </trkpt>
      <trkpt lat="47.07925" lon="-1.56904">
        <ele>16</ele>
        <time>2016-04-09T03:14:27Z</time>
      </trkpt>
      <trkpt lat="47.07909" lon="-1.56997">
        <ele>14</ele>
        <time>2016-04-09T03:16:27Z</time>
      </trkpt>
      <trkpt lat="47.07887" lon="-1.57123">
        <ele>13</ele>
        <time>2016-04-09T03:18:27Z</time>
      </trkpt>
      <trkpt lat="47.07879" lon="-1.57168">
        <ele>12</ele>
        <time>2016-04-09T03:20:27Z</time>
      </trkpt>
      <trkpt lat="47.07872" lon="-1.57204">
        <ele>12</ele>
        <time>2016-04-09T03:22:27Z</time>
      </trkpt>
      <trkpt lat="47.07868" lon="-1.57221">
        <ele>12</ele>
        <time>2016-04-09T03:24:27Z</time>
      </trkpt>
      <trkpt lat="47.07865" lon="-1.57232">
        <ele>12</ele>
        <time>2016-04-09T03:26:27Z</time>
      </trkpt>
      <trkpt lat="47.07859" lon="-1.57247">
        <ele>12</ele>
        <time>2016-04-09T03:28:27Z</time>
      </trkpt>
      <trkpt lat="47.07853" lon="-1.5726">
        <ele>12</ele>
        <time>2016-04-09T03:30:27Z</time>
      </trkpt>
      <trkpt lat="47.07843" lon="-1.57274">
        <ele>12</ele>
        <time>2016-04-09T03:32:27Z</time>
      </trkpt>
      <trkpt lat="47.07825" lon="-1.57297">
        <ele>12</ele>
        <time>2016-04-09T03:34:27Z</time>
      </trkpt>
      <trkpt lat="47.07806" lon="-1.57318">
        <ele>11</ele>
        <time>2016-04-09T03:36:27Z</time>
      </trkpt>
      <trkpt lat="47.07775" lon="-1.57354">
        <ele>11</ele>
        <time>2016-04-09T03:38:27Z</time>
      </trkpt>
      <trkpt lat="47.07775" lon="-1.57354">
        <ele>11</ele>
        <time>2016-04-09T03:40:27Z</time>
      </trkpt>
      <trkpt lat="47.07761" lon="-1.57371">
        <ele>11</ele>
        <time>2016-04-09T03:42:27Z</time>
      </trkpt>
      <trkpt lat="47.07741" lon="-1.57396">
        <ele>11</ele>
        <time>2016-04-09T03:44:27Z</time>
      </trkpt>
      <trkpt lat="47.07709" lon="-1.5744">
        <ele>11</ele>
        <time>2016-04-09T03:46:27Z</time>
      </trkpt>
      <trkpt lat="47.07691" lon="-1.57464">
        <ele>12</ele>
        <time>2016-04-09T03:48:27Z</time>
      </trkpt>
      <trkpt lat="47.07682" lon="-1.57475">
        <ele>12</ele>
        <time>2016-04-09T03:50:27Z</time>
      </trkpt>
      <trkpt lat="47.07672" lon="-1.57487">
        <ele>12</ele>
        <time>2016-04-09T03:52:27Z</time>
      </trkpt>
      <trkpt lat="47.07664" lon="-1.57497">
        <ele>12</ele>
        <time>2016-04-09T03:54:27Z</time>
      </trkpt>
      <trkpt lat="47.07654" lon="-1.57508">
        <ele>12</ele>
        <time>2016-04-09T03:56:27Z</time>
      </trkpt>
      <trkpt lat="47.07634" lon="-1.57529">
        <ele>12</ele>
        <time>2016-04-09T03:58:27Z</time>
      </trkpt>
      <trkpt lat="47.07632" lon="-1.57531">
        <ele>12</ele>
        <time>2016-04-09T04:00:27Z</time>
      </trkpt>
      <trkpt lat="47.07566" lon="-1.57604">
        <ele>12</ele>
        <time>2016-04-09T04:02:27Z</time>
      </trkpt>
      <trkpt lat="47.0755" lon="-1.57622">
        <ele>12</ele>
        <time>2016-04-09T04:04:27Z</time>
      </trkpt>
      <trkpt lat="47.07547" lon="-1.57627">
        <ele>12</ele>
        <time>2016-04-09T04:06:27Z</time>
      </trkpt>
      <trkpt lat="47.07541" lon="-1.57635">
        <ele>11</ele>
        <time>2016-04-09T04:08:27Z</time>
      </trkpt>
      <trkpt lat="47.07533" lon="-1.57652">
        <ele>11</ele>
        <time>2016-04-09T04:10:27Z</time>
      </trkpt>
      <trkpt lat="47.07528" lon="-1.57668">
        <ele>10</ele>
        <time>2016-04-09T04:12:27Z</time>
      </trkpt>
      <trkpt lat="47.07524" lon="-1.5769">
        <ele>11</ele>
        <time>2016-04-09T04:14:27Z</time>
      </trkpt>
      <trkpt lat="47.07521" lon="-1.57705">
        <ele>11</ele>
        <time>2016-04-09T04:16:27Z</time>
      </trkpt>
      <trkpt lat="47.07521" lon="-1.57706">
        <ele>11</ele>
        <time>2016-04-09T04:18:27Z</time>
      </trkpt>
      <trkpt lat="47.07519" lon="-1.57733">
        <ele>11</ele>
        <time>2016-04-09T04:20:27Z</time>
      </trkpt>
      <trkpt lat="47.07518" lon="-1.57746">
        <ele>12</ele>
        <time>2016-04-09T04:22:27Z</time>
      </trkpt>
      <trkpt lat="47.07517" lon="-1.57772">
        <ele>12</ele>
        <time>2016-04-09T04:24:27Z</time>
      </trkpt>
      <trkpt lat="47.07515" lon="-1.57796">
        <ele>13</ele>
        <time>2016-04-09T04:26:27Z</time>
      </trkpt>
      <trkpt lat="47.07512" lon="-1.5782">
        <ele>14</ele>
        <time>2016-04-09T04:28:27Z</time>
      </trkpt>
      <trkpt lat="47.07512" lon="-1.57823">
        <ele>14</ele>
        <time>2016-04-09T04:30:27Z</time>
      </trkpt>
      <trkpt lat="47.07503" lon="-1.57887">
        <ele>13</ele>
        <time>2016-04-09T04:32:27Z</time>
      </trkpt>
      <trkpt lat="47.07488" lon="-1.57995">
        <ele>12</ele>
        <time>2016-04-09T04:34:27Z</time>
      </trkpt>
      <trkpt lat="47.0748" lon="-1.58049">
        <ele>12</ele>
        <time>2016-04-09T04:36:27Z</time>
      </trkpt>
      <trkpt lat="47.07472" lon="-1.58086">
        <ele>12</ele>
        <time>2016-04-09T04:38:27Z</time>
      </trkpt>
      <trkpt lat="47.07469" lon="-1.58096">
        <ele>12</ele>
        <time>2016-04-09T04:40:27Z</time>
      </trkpt>
      <trkpt lat="47.07455" lon="-1.58145">
        <ele>12</ele>
        <time>2016-04-09T04:42:27Z</time>
      </trkpt>
      <trkpt lat="47.07436" lon="-1.582">
        <ele>12</ele>
        <time>2016-04-09T04:44:27Z</time>
      </trkpt>
      <trkpt lat="47.07418" lon="-1.58242">
        <ele>12</ele>
        <time>2016-04-09T04:46:27Z</time>
      </trkpt>
      <trkpt lat="47.07398" lon="-1.5828">
        <ele>12</ele>
        <time>2016-04-09T04:48:27Z</time>
      </trkpt>
      <trkpt lat="47.07376" lon="-1.58313">
        <ele>12</ele>
        <time>2016-04-09T04:50:27Z</time>
      </trkpt>
      <trkpt lat="47.07367" lon="-1.58324">
        <ele>12</ele>
        <time>2016-04-09T04:52:27Z</time>
      </trkpt>
      <trkpt lat="47.07356" lon="-1.58337">
        <ele>12</ele>
        <time>2016-04-09T04:54:27Z</time>
      </trkpt>
      <trkpt lat="47.07336" lon="-1.58358">
        <ele>13</ele>
        <time>2016-04-09T04:56:27Z</time>
      </trkpt>
      <trkpt lat="47.07317" lon="-1.58374">
        <ele>12</ele>
        <time>2016-04-09T04:58:27Z</time>
      </trkpt>
      <trkpt lat="47.07295" lon="-1.58391">
        <ele>12</ele>
        <time>2016-04-09T05:00:27Z</time>
      </trkpt>
      <trkpt lat="47.07244" lon="-1.5843">
        <ele>11</ele>
        <time>2016-04-09T05:02:27Z</time>
      </trkpt>
      <trkpt lat="47.07189" lon="-1.58474">
        <ele>12</ele>
        <time>2016-04-09T05:04:27Z</time>
      </trkpt>
      <trkpt lat="47.07157" lon="-1.58506">
        <ele>13</ele>
        <time>2016-04-09T05:06:27Z</time>
      </trkpt>
      <trkpt lat="47.07132" lon="-1.5854">
        <ele>13</ele>
        <time>2016-04-09T05:08:27Z</time>
      </trkpt>
      <trkpt lat="47.0711" lon="-1.58581">
        <ele>12</ele>
        <time>2016-04-09T05:10:27Z</time>
      </trkpt>
      <trkpt lat="47.07095" lon="-1.58619">
        <ele>12</ele>
        <time>2016-04-09T05:12:27Z</time>
      </trkpt>
      <trkpt lat="47.07093" lon="-1.58628">
        <ele>12</ele>
        <time>2016-04-09T05:14:27Z</time>
      </trkpt>
      <trkpt lat="47.07085" lon="-1.58655">
        <ele>12</ele>
        <time>2016-04-09T05:16:27Z</time>
      </trkpt>
      <trkpt lat="47.07075" lon="-1.58698">
        <ele>12</ele>
        <time>2016-04-09T05:18:27Z</time>
      </trkpt>
      <trkpt lat="47.07073" lon="-1.58709">
        <ele>12</ele>
        <time>2016-04-09T05:20:27Z</time>
      </trkpt>
      <trkpt lat="47.07061" lon="-1.58767">
        <ele>11</ele>
        <time>2016-04-09T05:22:27Z</time>
      </trkpt>
      <trkpt lat="47.07051" lon="-1.58811">
        <ele>11</ele>
        <time>2016-04-09T05:24:27Z</time>
      </trkpt>
      <trkpt lat="47.07038" lon="-1.58856">
        <ele>12</ele>
        <time>2016-04-09T05:26:27Z</time>
      </trkpt>
      <trkpt lat="47.07024" lon="-1.589">
        <ele>11</ele>
        <time>2016-04-09T05:28:27Z</time>
      </trkpt>
      <trkpt lat="47.07013" lon="-1.58925">
        <ele>11</ele>
        <time>2016-04-09T05:30:27Z</time>
      </trkpt>
      <trkpt lat="47.06997" lon="-1.58959">
        <ele>12</ele>
        <time>2016-04-09T05:32:27Z</time>
      </trkpt>
      <trkpt lat="47.0698" lon="-1.58984">
        <ele>12</ele>
        <time>2016-04-09T05:34:27Z</time>
      </trkpt>
      <trkpt lat="47.06924" lon="-1.59057">
        <ele>12</ele>
        <time>2016-04-09T05:36:27Z</time>
      </trkpt>
      <trkpt lat="47.06884" lon="-1.59109">
        <ele>12</ele>
        <time>2016-04-09T05:38:27Z</time>
      </trkpt>
      <trkpt lat="47.06869" lon="-1.59126">
        <ele>13</ele>
        <time>2016-04-09T05:40:27Z</time>
      </trkpt>
      <trkpt lat="47.06831" lon="-1.59179">
        <ele>13</ele>
        <time>2016-04-09T05:42:27Z</time>
      </trkpt>
      <trkpt lat="47.06823" lon="-1.5919">
        <ele>13</ele>
        <time>2016-04-09T05:44:27Z</time>
      </trkpt>
      <trkpt lat="47.06787" lon="-1.5924">
        <ele>13</ele>
        <time>2016-04-09T05:46:27Z</time>
      </trkpt>
      <trkpt lat="47.06778" lon="-1.59252">
        <ele>13</ele>
        <time>2016-04-09T05:48:27Z</time>
      </trkpt>
      <trkpt lat="47.06736" lon="-1.59318">
        <ele>13</ele>
        <time>2016-04-09T05:50:27Z</time>
      </trkpt>
      <trkpt lat="47.06692" lon="-1.5939">
        <ele>12</ele>
        <time>2016-04-09T05:52:27Z</time>
      </trkpt>
      <trkpt lat="47.0664" lon="-1.59474">
        <ele>11</ele>
        <time>2016-04-09T05:54:27Z</time>
      </trkpt>
      <trkpt lat="47.0661" lon="-1.59524">
        <ele>11</ele>
        <time>2016-04-09T05:56:27Z</time>
      </trkpt>
      <trkpt lat="47.06592" lon="-1.59557">
        <ele>11</ele>
        <time>2016-04-09T05:58:27Z</time>
      </trkpt>
      <trkpt lat="47.06576" lon="-1.59591">
        <ele>11</ele>
        <time>2016-04-09T06:00:27Z</time>
      </trkpt>
      <trkpt lat="47.06547" lon="-1.59663">
        <ele>10</ele>
        <time>2016-04-09T06:02:27Z</time>
      </trkpt>
      <trkpt lat="47.06527" lon="-1.59715">
        <ele>10</ele>
        <time>2016-04-09T06:04:27Z</time>
      </trkpt>
      <trkpt lat="47.06523" lon="-1.59724">
        <ele>10</ele>
        <time>2016-04-09T06:06:27Z</time>
      </trkpt>
      <trkpt lat="47.06467" lon="-1.59865">
        <ele>10</ele>
        <time>2016-04-09T06:08:27Z</time>
      </trkpt>
      <trkpt lat="47.06423" lon="-1.59976">
        <ele>11</ele>
        <time>2016-04-09T06:10:27Z</time>
      </trkpt>
      <trkpt lat="47.06405" lon="-1.6002">
        <ele>11</ele>
        <time>2016-04-09T06:12:27Z</time>
      </trkpt>
      <trkpt lat="47.06401" lon="-1.6003">
        <ele>11</ele>
        <time>2016-04-09T06:14:27Z</time>
      </trkpt>
      <trkpt lat="47.06386" lon="-1.6006">
        <ele>10</ele>
        <time>2016-04-09T06:16:27Z</time>
      </trkpt>
      <trkpt lat="47.06373" lon="-1.60084">
        <ele>11</ele>
        <time>2016-04-09T06:18:27Z</time>
      </trkpt>
      <trkpt lat="47.06367" lon="-1.60093">
        <ele>10</ele>
        <time>2016-04-09T06:20:27Z</time>
      </trkpt>
      <trkpt lat="47.06351" lon="-1.6012">
        <ele>10</ele>
        <time>2016-04-09T06:22:27Z</time>
      </trkpt>
      <trkpt lat="47.06276" lon="-1.60235">
        <ele>10</ele>
        <time>2016-04-09T06:24:27Z</time>
      </trkpt>
      <trkpt lat="47.06183" lon="-1.60381">
        <ele>10</ele>
        <time>2016-04-09T06:26:27Z</time>
      </trkpt>
      <trkpt lat="47.06176" lon="-1.60394">
        <ele>10</ele>
        <time>2016-04-09T06:28:27Z</time>
      </trkpt>
      <trkpt lat="47.0617" lon="-1.60404">
        <ele>10</ele>
        <time>2016-04-09T06:30:27Z</time>
      </trkpt>
      <trkpt lat="47.06162" lon="-1.60425">
        <ele>10</ele>
        <time>2016-04-09T06:32:27Z</time>
      </trkpt>
      <trkpt lat="47.06158" lon="-1.60448">
        <ele>10</ele>
        <time>2016-04-09T06:34:27Z</time>
      </trkpt>
      <trkpt lat="47.06155" lon="-1.60489">
        <ele>10</ele>
        <time>2016-04-09T06:36:27Z</time>
      </trkpt>
      <trkpt lat="47.06152" lon="-1.60512">
        <ele>10</ele>
        <time>2016-04-09T06:38:27Z</time>
      </trkpt>
      <trkpt lat="47.06149" lon="-1.60528">
        <ele>10</ele>
        <time>2016-04-09T06:40:27Z</time>
      </trkpt>
      <trkpt lat="47.06143" lon="-1.60538">
        <ele>10</ele>
        <time>2016-04-09T06:42:27Z</time>
      </trkpt>
      <trkpt lat="47.06137" lon="-1.60548">
        <ele>10</ele>
        <time>2016-04-09T06:44:27Z</time>
      </trkpt>
      <trkpt lat="47.06126" lon="-1.60557">
        <ele>10</ele>
        <time>2016-04-09T06:46:27Z</time>
      </trkpt>
      <trkpt lat="47.06108" lon="-1.60562">
        <ele>11</ele>
        <time>2016-04-09T06:48:27Z</time>
      </trkpt>
      <trkpt lat="47.06094" lon="-1.60566">
        <ele>11</ele>
        <time>2016-04-09T06:50:27Z</time>
      </trkpt>
      <trkpt lat="47.06092" lon="-1.60566">
        <ele>11</ele>
        <time>2016-04-09T06:52:27Z</time>
      </trkpt>
      <trkpt lat="47.06077" lon="-1.60571">
        <ele>12</ele>
        <time>2016-04-09T06:54:27Z</time>
      </trkpt>
      <trkpt lat="47.06065" lon="-1.60574">
        <ele>11</ele>
        <time>2016-04-09T06:56:27Z</time>
      </trkpt>
      <trkpt lat="47.06012" lon="-1.6059">
        <ele>10</ele>
        <time>2016-04-09T06:58:27Z</time>
      </trkpt>
      <trkpt lat="47.05992" lon="-1.60599">
        <ele>10</ele>
        <time>2016-04-09T07:00:27Z</time>
      </trkpt>
      <trkpt lat="47.05982" lon="-1.60604">
        <ele>10</ele>
        <time>2016-04-09T07:02:27Z</time>
      </trkpt>
      <trkpt lat="47.05967" lon="-1.60616">
        <ele>10</ele>
        <time>2016-04-09T07:04:27Z</time>
      </trkpt>
      <trkpt lat="47.05952" lon="-1.60628">
        <ele>10</ele>
        <time>2016-04-09T07:06:27Z</time>
      </trkpt>
      <trkpt lat="47.05923" lon="-1.60658">
        <ele>10</ele>
        <time>2016-04-09T07:08:27Z</time>
      </trkpt>
      <trkpt lat="47.05923" lon="-1.60658">
        <ele>10</ele>
        <time>2016-04-09T07:10:27Z</time>
      </trkpt>
      <trkpt lat="47.05907" lon="-1.60675">
        <ele>10</ele>
        <time>2016-04-09T07:12:27Z</time>
      </trkpt>
      <trkpt lat="47.05872" lon="-1.60716">
        <ele>10</ele>
        <time>2016-04-09T07:14:27Z</time>
      </trkpt>
      <trkpt lat="47.05825" lon="-1.60776">
        <ele>10</ele>
        <time>2016-04-09T07:16:27Z</time>
      </trkpt>
      <trkpt lat="47.05807" lon="-1.60803">
        <ele>10</ele>
        <time>2016-04-09T07:18:27Z</time>
      </trkpt>
      <trkpt lat="47.05789" lon="-1.60836">
        <ele>9</ele>
        <time>2016-04-09T07:20:27Z</time>
      </trkpt>
      <trkpt lat="47.05744" lon="-1.60918">
        <ele>8</ele>
        <time>2016-04-09T07:22:27Z</time>
      </trkpt>
      <trkpt lat="47.05725" lon="-1.60958">
        <ele>9</ele>
        <time>2016-04-09T07:24:27Z</time>
      </trkpt>
      <trkpt lat="47.05709" lon="-1.61001">
        <ele>9</ele>
        <time>2016-04-09T07:26:27Z</time>
      </trkpt>
      <trkpt lat="47.0569" lon="-1.61042">
        <ele>9</ele>
        <time>2016-04-09T07:28:27Z</time>
      </trkpt>
      <trkpt lat="47.05662" lon="-1.61084">
        <ele>9</ele>
        <time>2016-04-09T07:30:27Z</time>
      </trkpt>
      <trkpt lat="47.05645" lon="-1.61109">
        <ele>9</ele>
        <time>2016-04-09T07:32:27Z</time>
      </trkpt>
      <trkpt lat="47.05645" lon="-1.61109">
        <ele>9</ele>
        <time>2016-04-09T07:34:27Z</time>
      </trkpt>
      <trkpt lat="47.05636" lon="-1.61121">
        <ele>9</ele>
        <time>2016-04-09T07:36:27Z</time>
      </trkpt>
      <trkpt lat="47.05613" lon="-1.61154">
        <ele>9</ele>
        <time>2016-04-09T07:38:27Z</time>
      </trkpt>
      <trkpt lat="47.05605" lon="-1.61166">
        <ele>9</ele>
        <time>2016-04-09T07:40:27Z</time>
      </trkpt>
      <trkpt lat="47.05595" lon="-1.61178">
        <ele>9</ele>
        <time>2016-04-09T07:42:27Z</time>
      </trkpt>
      <trkpt lat="47.05583" lon="-1.61193">
        <ele>9</ele>
        <time>2016-04-09T07:44:27Z</time>
      </trkpt>
      <trkpt lat="47.05571" lon="-1.61206">
        <ele>8</ele>
        <time>2016-04-09T07:46:27Z</time>
      </trkpt>
      <trkpt lat="47.05554" lon="-1.61222">
        <ele>8</ele>
        <time>2016-04-09T07:48:27Z</time>
      </trkpt>
      <trkpt lat="47.05518" lon="-1.61253">
        <ele>7</ele>
        <time>2016-04-09T07:50:27Z</time>
      </trkpt>
      <trkpt lat="47.05498" lon="-1.61272">
        <ele>7</ele>
        <time>2016-04-09T07:52:27Z</time>
      </trkpt>
      <trkpt lat="47.05492" lon="-1.61277">
        <ele>7</ele>
        <time>2016-04-09T07:54:27Z</time>
      </trkpt>
      <trkpt lat="47.05489" lon="-1.61281">
        <ele>7</ele>
        <time>2016-04-09T07:56:27Z</time>
      </trkpt>
      <trkpt lat="47.05487" lon="-1.61286">
        <ele>7</ele>
        <time>2016-04-09T07:58:27Z</time>
      </trkpt>
      <trkpt lat="47.05483" lon="-1.61294">
        <ele>8</ele>
        <time>2016-04-09T08:00:27Z</time>
      </trkpt>
      <trkpt lat="47.05483" lon="-1.61294">
        <ele>8</ele>
        <time>2016-04-09T08:02:27Z</time>
      </trkpt>
      <trkpt lat="47.05474" lon="-1.61288">
        <ele>7</ele>
        <time>2016-04-09T08:04:27Z</time>
      </trkpt>
      <trkpt lat="47.0546" lon="-1.6128">
        <ele>7</ele>
        <time>2016-04-09T08:06:27Z</time>
      </trkpt>
      <trkpt lat="47.05426" lon="-1.61259">
        <ele>8</ele>
        <time>2016-04-09T08:08:27Z</time>
      </trkpt>
      <trkpt lat="47.05424" lon="-1.61258">
        <ele>8</ele>
        <time>2016-04-09T08:10:27Z</time>
      </trkpt>
      <trkpt lat="47.0541" lon="-1.6125">
        <ele>8</ele>
        <time>2016-04-09T08:12:27Z</time>
      </trkpt>
      <trkpt lat="47.05396" lon="-1.61242">
        <ele>8</ele>
        <time>2016-04-09T08:14:27Z</time>
      </trkpt>
      <trkpt lat="47.05375" lon="-1.61233">
        <ele>8</ele>
        <time>2016-04-09T08:16:27Z</time>
      </trkpt>
      <trkpt lat="47.05331" lon="-1.61214">
        <ele>8</ele>
        <time>2016-04-09T08:18:27Z</time>
      </trkpt>
      <trkpt lat="47.05318" lon="-1.61209">
        <ele>8</ele>
        <time>2016-04-09T08:20:27Z</time>
      </trkpt>
      <trkpt lat="47.0531" lon="-1.61206">
        <ele>8</ele>
        <time>2016-04-09T08:22:27Z</time>
      </trkpt>
      <trkpt lat="47.05283" lon="-1.61195">
        <ele>8</ele>
        <time>2016-04-09T08:24:27Z</time>
      </trkpt>
      <trkpt lat="47.05243" lon="-1.61176">
        <ele>9</ele>
        <time>2016-04-09T08:26:27Z</time>
      </trkpt>
      <trkpt lat="47.05201" lon="-1.61153">
        <ele>9</ele>
        <time>2016-04-09T08:28:27Z</time>
      </trkpt>
      <trkpt lat="47.05153" lon="-1.61127">
        <ele>9</ele>
        <time>2016-04-09T08:30:27Z</time>
      </trkpt>
      <trkpt lat="47.05089" lon="-1.61094">
        <ele>10</ele>
        <time>2016-04-09T08:32:27Z</time>
      </trkpt>
      <trkpt lat="47.05061" lon="-1.61079">
        <ele>9</ele>
        <time>2016-04-09T08:34:27Z</time>
      </trkpt>
      <trkpt lat="47.05033" lon="-1.61065">
        <ele>9</ele>
        <time>2016-04-09T08:36:27Z</time>
      </trkpt>
      <trkpt lat="47.05033" lon="-1.61065">
        <ele>9</ele>
        <time>2016-04-09T08:38:27Z</time>
      </trkpt>
      <trkpt lat="47.05024" lon="-1.61093">
        <ele>9</ele>
        <time>2016-04-09T08:40:27Z</time>
      </trkpt>
      <trkpt lat="47.05015" lon="-1.61125">
        <ele>9</ele>
        <time>2016-04-09T08:42:27Z</time>
      </trkpt>
      <trkpt lat="47.05008" lon="-1.61154">
        <ele>10</ele>
        <time>2016-04-09T08:44:27Z</time>
      </trkpt>
      <trkpt lat="47.05004" lon="-1.61172">
        <ele>10</ele>
        <time>2016-04-09T08:46:27Z</time>
      </trkpt>
      <trkpt lat="47.05" lon="-1.61196">
        <ele>9</ele>
        <time>2016-04-09T08:48:27Z</time>
      </trkpt>
      <trkpt lat="47.04996" lon="-1.61238">
        <ele>7</ele>
        <time>2016-04-09T08:50:27Z</time>
      </trkpt>
      <trkpt lat="47.0499" lon="-1.6129">
        <ele>7</ele>
        <time>2016-04-09T08:52:27Z</time>
      </trkpt>
      <trkpt lat="47.04988" lon="-1.61315">
        <ele>8</ele>
        <time>2016-04-09T08:54:27Z</time>
      </trkpt>
      <trkpt lat="47.04986" lon="-1.61337">
        <ele>8</ele>
        <time>2016-04-09T08:56:27Z</time>
      </trkpt>
      <trkpt lat="47.04983" lon="-1.61359">
        <ele>8</ele>
        <time>2016-04-09T08:58:27Z</time>
      </trkpt>
      <trkpt lat="47.04979" lon="-1.6138">
        <ele>7</ele>
        <time>2016-04-09T09:00:27Z</time>
      </trkpt>
      <trkpt lat="47.04974" lon="-1.61405">
        <ele>7</ele>
        <time>2016-04-09T09:02:27Z</time>
      </trkpt>
      <trkpt lat="47.04958" lon="-1.61475">
        <ele>7</ele>
        <time>2016-04-09T09:04:27Z</time>
      </trkpt>
      <trkpt lat="47.04947" lon="-1.61524">
        <ele>7</ele>
        <time>2016-04-09T09:06:27Z</time>
      </trkpt>
      <trkpt lat="47.04947" lon="-1.61524">
        <ele>7</ele>
        <time>2016-04-09T09:08:27Z</time>
      </trkpt>
      <trkpt lat="47.04933" lon="-1.61586">
        <ele>7</ele>
        <time>2016-04-09T09:10:27Z</time>
      </trkpt>
      <trkpt lat="47.04906" lon="-1.61705">
        <ele>6</ele>
        <time>2016-04-09T09:12:27Z</time>
      </trkpt>
      <trkpt lat="47.04891" lon="-1.61773">
        <ele>6</ele>
        <time>2016-04-09T09:14:27Z</time>
      </trkpt>
      <trkpt lat="47.04885" lon="-1.61803">
        <ele>6</ele>
        <time>2016-04-09T09:16:27Z</time>
      </trkpt>
      <trkpt lat="47.04882" lon="-1.61817">
        <ele>6</ele>
        <time>2016-04-09T09:18:27Z</time>
      </trkpt>
      <trkpt lat="47.04881" lon="-1.61834">
        <ele>5</ele>
        <time>2016-04-09T09:20:27Z</time>
      </trkpt>
      <trkpt lat="47.0488" lon="-1.6185">
        <ele>5</ele>
        <time>2016-04-09T09:22:27Z</time>
      </trkpt>
      <trkpt lat="47.0488" lon="-1.61868">
        <ele>5</ele>
        <time>2016-04-09T09:24:27Z</time>
      </trkpt>
      <trkpt lat="47.04881" lon="-1.61885">
        <ele>5</ele>
        <time>2016-04-09T09:26:27Z</time>
      </trkpt>
      <trkpt lat="47.04901" lon="-1.62118">
        <ele>6</ele>
        <time>2016-04-09T09:28:27Z</time>
      </trkpt>
      <trkpt lat="47.04903" lon="-1.62134">
        <ele>5</ele>
        <time>2016-04-09T09:30:27Z</time>
      </trkpt>
      <trkpt lat="47.04907" lon="-1.62171">
        <ele>5</ele>
        <time>2016-04-09T09:32:27Z</time>
      </trkpt>
      <trkpt lat="47.04909" lon="-1.62197">
        <ele>5</ele>
        <time>2016-04-09T09:34:27Z</time>
      </trkpt>
      <trkpt lat="47.0491" lon="-1.6222">
        <ele>6</ele>
        <time>2016-04-09T09:36:27Z</time>
      </trkpt>
      <trkpt lat="47.0491" lon="-1.62242">
        <ele>6</ele>
        <time>2016-04-09T09:38:27Z</time>
      </trkpt>
      <trkpt lat="47.04909" lon="-1.62266">
        <ele>6</ele>
        <time>2016-04-09T09:40:27Z</time>
      </trkpt>
      <trkpt lat="47.04908" lon="-1.62285">
        <ele>6</ele>
        <time>2016-04-09T09:42:27Z</time>
      </trkpt>
      <trkpt lat="47.04907" lon="-1.62299">
        <ele>5</ele>
        <time>2016-04-09T09:44:27Z</time>
      </trkpt>
      <trkpt lat="47.04904" lon="-1.62317">
        <ele>5</ele>
        <time>2016-04-09T09:46:27Z</time>
      </trkpt>
      <trkpt lat="47.04896" lon="-1.62362">
        <ele>5</ele>
        <time>2016-04-09T09:48:27Z</time>
      </trkpt>
      <trkpt lat="47.04886" lon="-1.62416">
        <ele>5</ele>
        <time>2016-04-09T09:50:27Z</time>
      </trkpt>
      <trkpt lat="47.04885" lon="-1.62422">
        <ele>5</ele>
        <time>2016-04-09T09:52:27Z</time>
      </trkpt>
      <trkpt lat="47.04874" lon="-1.62479">
        <ele>5</ele>
        <time>2016-04-09T09:54:27Z</time>
      </trkpt>
      <trkpt lat="47.0486" lon="-1.62552">
        <ele>5</ele>
        <time>2016-04-09T09:56:27Z</time>
      </trkpt>
      <trkpt lat="47.04847" lon="-1.6262">
        <ele>5</ele>
        <time>2016-04-09T09:58:27Z</time>
      </trkpt>
      <trkpt lat="47.04842" lon="-1.62642">
        <ele>5</ele>
        <time>2016-04-09T10:00:27Z</time>
      </trkpt>
      <trkpt lat="47.04836" lon="-1.62664">
        <ele>5</ele>
        <time>2016-04-09T10:02:27Z</time>
      </trkpt>
      <trkpt lat="47.0483" lon="-1.6268">
        <ele>5</ele>
        <time>2016-04-09T10:04:27Z</time>
      </trkpt>
      <trkpt lat="47.04811" lon="-1.62726">
        <ele>6</ele>
        <time>2016-04-09T10:06:27Z</time>
      </trkpt>
      <trkpt lat="47.04801" lon="-1.62743">
        <ele>6</ele>
        <time>2016-04-09T10:08:27Z</time>
      </trkpt>
      <trkpt lat="47.04801" lon="-1.62743">
        <ele>6</ele>
        <time>2016-04-09T10:10:27Z</time>
      </trkpt>
      <trkpt lat="47.04803" lon="-1.62753">
        <ele>6</ele>
        <time>2016-04-09T10:12:27Z</time>
      </trkpt>
      <trkpt lat="47.04807" lon="-1.62776">
        <ele>5</ele>
        <time>2016-04-09T10:14:27Z</time>
      </trkpt>
      <trkpt lat="47.04811" lon="-1.62803">
        <ele>5</ele>
        <time>2016-04-09T10:16:27Z</time>
      </trkpt>
      <trkpt lat="47.04814" lon="-1.62849">
        <ele>4</ele>
        <time>2016-04-09T10:18:27Z</time>
      </trkpt>
      <trkpt lat="47.04815" lon="-1.6287">
        <ele>4</ele>
        <time>2016-04-09T10:20:27Z</time>
      </trkpt>
      <trkpt lat="47.04816" lon="-1.62996">
        <ele>5</ele>
        <time>2016-04-09T10:22:27Z</time>
      </trkpt>
      <trkpt lat="47.04817" lon="-1.63017">
        <ele>5</ele>
        <time>2016-04-09T10:24:27Z</time>
      </trkpt>
      <trkpt lat="47.04818" lon="-1.63052">
        <ele>5</ele>
        <time>2016-04-09T10:26:27Z</time>
      </trkpt>
      <trkpt lat="47.0482" lon="-1.63124">
        <ele>5</ele>
        <time>2016-04-09T10:28:27Z</time>
      </trkpt>
      <trkpt lat="47.0482" lon="-1.6314">
        <ele>5</ele>
        <time>2016-04-09T10:30:27Z</time>
      </trkpt>
      <trkpt lat="47.04823" lon="-1.63242">
        <ele>4</ele>
        <time>2016-04-09T10:32:27Z</time>
      </trkpt>
      <trkpt lat="47.04824" lon="-1.63314">
        <ele>4</ele>
        <time>2016-04-09T10:34:27Z</time>
      </trkpt>
      <trkpt lat="47.04826" lon="-1.63402">
        <ele>3</ele>
        <time>2016-04-09T10:36:27Z</time>
      </trkpt>
      <trkpt lat="47.04827" lon="-1.63436">
        <ele>3</ele>
        <time>2016-04-09T10:38:27Z</time>
      </trkpt>
      <trkpt lat="47.04829" lon="-1.63449">
        <ele>3</ele>
        <time>2016-04-09T10:40:27Z</time>
      </trkpt>
      <trkpt lat="47.04834" lon="-1.6346">
        <ele>4</ele>
        <time>2016-04-09T10:42:27Z</time>
      </trkpt>
      <trkpt lat="47.04834" lon="-1.63459">
        <ele>4</ele>
        <time>2016-04-09T10:44:27Z</time>
      </trkpt>
      <trkpt lat="47.04835" lon="-1.63459">
        <ele>3</ele>
        <time>2016-04-09T10:46:27Z</time>
      </trkpt>
      <trkpt lat="47.04836" lon="-1.63459">
        <ele>3</ele>
        <time>2016-04-09T10:48:27Z</time>
      </trkpt>
      <trkpt lat="47.04836" lon="-1.63458">
        <ele>3</ele>
        <time>2016-04-09T10:50:27Z</time>
      </trkpt>
      <trkpt lat="47.04837" lon="-1.63458">
        <ele>3</ele>
        <time>2016-04-09T10:52:27Z</time>
      </trkpt>
      <trkpt lat="47.04838" lon="-1.63458">
        <ele>3</ele>
        <time>2016-04-09T10:54:27Z</time>
      </trkpt>
      <trkpt lat="47.04839" lon="-1.63458">
        <ele>3</ele>
        <time>2016-04-09T10:56:27Z</time>
      </trkpt>
      <trkpt lat="47.0484" lon="-1.63458">
        <ele>3</ele>
        <time>2016-04-09T10:58:27Z</time>
      </trkpt>
      <trkpt lat="47.04841" lon="-1.63458">
        <ele>3</ele>
        <time>2016-04-09T11:00:27Z</time>
      </trkpt>
      <trkpt lat="47.04841" lon="-1.63459">
        <ele>3</ele>
        <time>2016-04-09T11:02:27Z</time>
      </trkpt>
      <trkpt lat="47.04842" lon="-1.63459">
        <ele>3</ele>
        <time>2016-04-09T11:04:27Z</time>
      </trkpt>
      <trkpt lat="47.04842" lon="-1.6346">
        <ele>3</ele>
        <time>2016-04-09T11:06:27Z</time>
      </trkpt>
      <trkpt lat="47.04843" lon="-1.6346">
        <ele>3</ele>
        <time>2016-04-09T11:08:27Z</time>
      </trkpt>
      <trkpt lat="47.04843" lon="-1.63461">
        <ele>3</ele>
        <time>2016-04-09T11:10:27Z</time>
      </trkpt>
      <trkpt lat="47.04844" lon="-1.63461">
        <ele>3</ele>
        <time>2016-04-09T11:12:27Z</time>
      </trkpt>
      <trkpt lat="47.04844" lon="-1.63462">
        <ele>3</ele>
        <time>2016-04-09T11:14:27Z</time>
      </trkpt>
      <trkpt lat="47.04845" lon="-1.63462">
        <ele>3</ele>
        <time>2016-04-09T11:16:27Z</time>
      </trkpt>
      <trkpt lat="47.04845" lon="-1.63463">
        <ele>3</ele>
        <time>2016-04-09T11:18:27Z</time>
      </trkpt>
      <trkpt lat="47.04845" lon="-1.63464">
        <ele>3</ele>
        <time>2016-04-09T11:20:27Z</time>
      </trkpt>
      <trkpt lat="47.04846" lon="-1.63464">
        <ele>3</ele>
        <time>2016-04-09T11:22:27Z</time>
      </trkpt>
      <trkpt lat="47.04846" lon="-1.63465">
        <ele>3</ele>
        <time>2016-04-09T11:24:27Z</time>
      </trkpt>
      <trkpt lat="47.04846" lon="-1.63466">
        <ele>4</ele>
        <time>2016-04-09T11:26:27Z</time>
      </trkpt>
      <trkpt lat="47.04846" lon="-1.63467">
        <ele>4</ele>
        <time>2016-04-09T11:28:27Z</time>
      </trkpt>
      <trkpt lat="47.04846" lon="-1.63468">
        <ele>4</ele>
        <time>2016-04-09T11:30:27Z</time>
      </trkpt>
      <trkpt lat="47.04847" lon="-1.63468">
        <ele>4</ele>
        <time>2016-04-09T11:32:27Z</time>
      </trkpt>
      <trkpt lat="47.04847" lon="-1.63469">
        <ele>4</ele>
        <time>2016-04-09T11:34:27Z</time>
      </trkpt>
      <trkpt lat="47.04847" lon="-1.6347">
        <ele>4</ele>
        <time>2016-04-09T11:36:27Z</time>
      </trkpt>
      <trkpt lat="47.04847" lon="-1.63471">
        <ele>4</ele>
        <time>2016-04-09T11:38:27Z</time>
      </trkpt>
      <trkpt lat="47.04847" lon="-1.63472">
        <ele>4</ele>
        <time>2016-04-09T11:40:27Z</time>
      </trkpt>
      <trkpt lat="47.04846" lon="-1.63473">
        <ele>4</ele>
        <time>2016-04-09T11:42:27Z</time>
      </trkpt>
      <trkpt lat="47.04846" lon="-1.63474">
        <ele>4</ele>
        <time>2016-04-09T11:44:27Z</time>
      </trkpt>
      <trkpt lat="47.04846" lon="-1.63475">
        <ele>4</ele>
        <time>2016-04-09T11:46:27Z</time>
      </trkpt>
      <trkpt lat="47.04846" lon="-1.63476">
        <ele>4</ele>
        <time>2016-04-09T11:48:27Z</time>
      </trkpt>
      <trkpt lat="47.04845" lon="-1.63477">
        <ele>4</ele>
        <time>2016-04-09T11:50:27Z</time>
      </trkpt>
      <trkpt lat="47.04845" lon="-1.63478">
        <ele>4</ele>
        <time>2016-04-09T11:52:27Z</time>
      </trkpt>
      <trkpt lat="47.04844" lon="-1.63479">
        <ele>4</ele>
        <time>2016-04-09T11:54:27Z</time>
      </trkpt>
      <trkpt lat="47.04844" lon="-1.6348">
        <ele>4</ele>
        <time>2016-04-09T11:56:27Z</time>
      </trkpt>
      <trkpt lat="47.04843" lon="-1.6348">
        <ele>4</ele>
        <time>2016-04-09T11:58:27Z</time>
      </trkpt>
      <trkpt lat="47.04843" lon="-1.63481">
        <ele>4</ele>
        <time>2016-04-09T12:00:27Z</time>
      </trkpt>
      <trkpt lat="47.04842" lon="-1.63481">
        <ele>4</ele>
        <time>2016-04-09T12:02:27Z</time>
      </trkpt>
      <trkpt lat="47.04842" lon="-1.63482">
        <ele>4</ele>
        <time>2016-04-09T12:04:27Z</time>
      </trkpt>
      <trkpt lat="47.04841" lon="-1.63482">
        <ele>4</ele>
        <time>2016-04-09T12:06:27Z</time>
      </trkpt>
      <trkpt lat="47.0484" lon="-1.63482">
        <ele>4</ele>
        <time>2016-04-09T12:08:27Z</time>
      </trkpt>
      <trkpt lat="47.04839" lon="-1.63482">
        <ele>4</ele>
        <time>2016-04-09T12:10:27Z</time>
      </trkpt>
      <trkpt lat="47.04839" lon="-1.63483">
        <ele>4</ele>
        <time>2016-04-09T12:12:27Z</time>
      </trkpt>
      <trkpt lat="47.04838" lon="-1.63483">
        <ele>4</ele>
        <time>2016-04-09T12:14:27Z</time>
      </trkpt>
      <trkpt lat="47.04838" lon="-1.63482">
        <ele>4</ele>
        <time>2016-04-09T12:16:27Z</time>
      </trkpt>
      <trkpt lat="47.04837" lon="-1.63482">
        <ele>4</ele>
        <time>2016-04-09T12:18:27Z</time>
      </trkpt>
      <trkpt lat="47.04825" lon="-1.6353">
        <ele>4</ele>
        <time>2016-04-09T12:20:27Z</time>
      </trkpt>
      <trkpt lat="47.04813" lon="-1.63564">
        <ele>5</ele>
        <time>2016-04-09T12:22:27Z</time>
      </trkpt>
      <trkpt lat="47.04793" lon="-1.63621">
        <ele>5</ele>
        <time>2016-04-09T12:24:27Z</time>
      </trkpt>
      <trkpt lat="47.0478" lon="-1.63654">
        <ele>4</ele>
        <time>2016-04-09T12:26:27Z</time>
      </trkpt>
      <trkpt lat="47.04773" lon="-1.6367">
        <ele>4</ele>
        <time>2016-04-09T12:28:27Z</time>
      </trkpt>
      <trkpt lat="47.04763" lon="-1.6369">
        <ele>4</ele>
        <time>2016-04-09T12:30:27Z</time>
      </trkpt>
      <trkpt lat="47.04752" lon="-1.63711">
        <ele>5</ele>
        <time>2016-04-09T12:32:27Z</time>
      </trkpt>
      <trkpt lat="47.04741" lon="-1.63734">
        <ele>5</ele>
        <time>2016-04-09T12:34:27Z</time>
      </trkpt>
      <trkpt lat="47.04729" lon="-1.63771">
        <ele>5</ele>
        <time>2016-04-09T12:36:27Z</time>
      </trkpt>
      <trkpt lat="47.04727" lon="-1.63782">
        <ele>5</ele>
        <time>2016-04-09T12:38:27Z</time>
      </trkpt>
      <trkpt lat="47.04727" lon="-1.63789">
        <ele>5</ele>
        <time>2016-04-09T12:40:27Z</time>
      </trkpt>
      <trkpt lat="47.04728" lon="-1.63801">
        <ele>5</ele>
        <time>2016-04-09T12:42:27Z</time>
      </trkpt>
      <trkpt lat="47.04728" lon="-1.63801">
        <ele>5</ele>
        <time>2016-04-09T12:44:27Z</time>
      </trkpt>
      <trkpt lat="47.04729" lon="-1.63801">
        <ele>5</ele>
        <time>2016-04-09T12:46:27Z</time>
      </trkpt>
      <trkpt lat="47.0473" lon="-1.63801">
        <ele>5</ele>
        <time>2016-04-09T12:48:27Z</time>
      </trkpt>
      <trkpt lat="47.0473" lon="-1.63802">
        <ele>5</ele>
        <time>2016-04-09T12:50:27Z</time>
      </trkpt>
      <trkpt lat="47.04731" lon="-1.63802">
        <ele>5</ele>
        <time>2016-04-09T12:52:27Z</time>
      </trkpt>
      <trkpt lat="47.04732" lon="-1.63803">
        <ele>5</ele>
        <time>2016-04-09T12:54:27Z</time>
      </trkpt>
      <trkpt lat="47.04733" lon="-1.63804">
        <ele>6</ele>
        <time>2016-04-09T12:56:27Z</time>
      </trkpt>
      <trkpt lat="47.04734" lon="-1.63805">
        <ele>6</ele>
        <time>2016-04-09T12:58:27Z</time>
      </trkpt>
      <trkpt lat="47.04735" lon="-1.63807">
        <ele>6</ele>
        <time>2016-04-09T13:00:27Z</time>
      </trkpt>
      <trkpt lat="47.04736" lon="-1.63808">
        <ele>6</ele>
        <time>2016-04-09T13:02:27Z</time>
      </trkpt>
      <trkpt lat="47.04737" lon="-1.6381">
        <ele>6</ele>
        <time>2016-04-09T13:04:27Z</time>
      </trkpt>
      <trkpt lat="47.04738" lon="-1.63811">
        <ele>6</ele>
        <time>2016-04-09T13:06:27Z</time>
      </trkpt>
      <trkpt lat="47.04738" lon="-1.63813">
        <ele>6</ele>
        <time>2016-04-09T13:08:27Z</time>
      </trkpt>
      <trkpt lat="47.04739" lon="-1.63814">
        <ele>6</ele>
        <time>2016-04-09T13:10:27Z</time>
      </trkpt>
      <trkpt lat="47.04739" lon="-1.63816">
        <ele>6</ele>
        <time>2016-04-09T13:12:27Z</time>
      </trkpt>
      <trkpt lat="47.04739" lon="-1.63818">
        <ele>6</ele>
        <time>2016-04-09T13:14:27Z</time>
      </trkpt>
      <trkpt lat="47.0474" lon="-1.6382">
        <ele>6</ele>
        <time>2016-04-09T13:16:27Z</time>
      </trkpt>
      <trkpt lat="47.0474" lon="-1.63822">
        <ele>6</ele>
        <time>2016-04-09T13:18:27Z</time>
      </trkpt>
      <trkpt lat="47.0474" lon="-1.63824">
        <ele>6</ele>
        <time>2016-04-09T13:20:27Z</time>
      </trkpt>
      <trkpt lat="47.0474" lon="-1.63825">
        <ele>6</ele>
        <time>2016-04-09T13:22:27Z</time>
      </trkpt>
      <trkpt lat="47.0474" lon="-1.63828">
        <ele>6</ele>
        <time>2016-04-09T13:24:27Z</time>
      </trkpt>
      <trkpt lat="47.04735" lon="-1.63841">
        <ele>6</ele>
        <time>2016-04-09T13:26:27Z</time>
      </trkpt>
      <trkpt lat="47.04733" lon="-1.63845">
        <ele>6</ele>
        <time>2016-04-09T13:28:27Z</time>
      </trkpt>
      <trkpt lat="47.04731" lon="-1.63847">
        <ele>6</ele>
        <time>2016-04-09T13:30:27Z</time>
      </trkpt>
      <trkpt lat="47.04728" lon="-1.63848">
        <ele>6</ele>
        <time>2016-04-09T13:32:27Z</time>
      </trkpt>
      <trkpt lat="47.04725" lon="-1.6385">
        <ele>6</ele>
        <time>2016-04-09T13:34:27Z</time>
      </trkpt>
      <trkpt lat="47.04722" lon="-1.63849">
        <ele>6</ele>
        <time>2016-04-09T13:36:27Z</time>
      </trkpt>
      <trkpt lat="47.04717" lon="-1.63847">
        <ele>6</ele>
        <time>2016-04-09T13:38:27Z</time>
      </trkpt>
      <trkpt lat="47.04709" lon="-1.63838">
        <ele>5</ele>
        <time>2016-04-09T13:40:27Z</time>
      </trkpt>
      <trkpt lat="47.04708" lon="-1.63837">
        <ele>5</ele>
        <time>2016-04-09T13:42:27Z</time>
      </trkpt>
      <trkpt lat="47.04708" lon="-1.63836">
        <ele>5</ele>
        <time>2016-04-09T13:44:27Z</time>
      </trkpt>
      <trkpt lat="47.04708" lon="-1.63835">
        <ele>5</ele>
        <time>2016-04-09T13:46:27Z</time>
      </trkpt>
      <trkpt lat="47.04707" lon="-1.63835">
        <ele>5</ele>
        <time>2016-04-09T13:48:27Z</time>
      </trkpt>
      <trkpt lat="47.04707" lon="-1.63834">
        <ele>5</ele>
        <time>2016-04-09T13:50:27Z</time>
      </trkpt>
      <trkpt lat="47.04707" lon="-1.63833">
        <ele>5</ele>
        <time>2016-04-09T13:52:27Z</time>
      </trkpt>
      <trkpt lat="47.04707" lon="-1.63831">
        <ele>5</ele>
        <time>2016-04-09T13:54:27Z</time>
      </trkpt>
      <trkpt lat="47.04697" lon="-1.63825">
        <ele>5</ele>
        <time>2016-04-09T13:56:27Z</time>
      </trkpt>
      <trkpt lat="47.04688" lon="-1.63823">
        <ele>5</ele>
        <time>2016-04-09T13:58:27Z</time>
      </trkpt>
      <trkpt lat="47.04679" lon="-1.63823">
        <ele>5</ele>
        <time>2016-04-09T14:00:27Z</time>
      </trkpt>
      <trkpt lat="47.04665" lon="-1.63833">
        <ele>5</ele>
        <time>2016-04-09T14:02:27Z</time>
      </trkpt>
      <trkpt lat="47.04655" lon="-1.6384">
        <ele>5</ele>
        <time>2016-04-09T14:04:27Z</time>
      </trkpt>
      <trkpt lat="47.04647" lon="-1.63843">
        <ele>5</ele>
        <time>2016-04-09T14:06:27Z</time>
      </trkpt>
      <trkpt lat="47.04639" lon="-1.63845">
        <ele>5</ele>
        <time>2016-04-09T14:08:27Z</time>
      </trkpt>
      <trkpt lat="47.04623" lon="-1.63844">
        <ele>4</ele>
        <time>2016-04-09T14:10:27Z</time>
      </trkpt>
      <trkpt lat="47.04607" lon="-1.63846">
        <ele>4</ele>
        <time>2016-04-09T14:12:27Z</time>
      </trkpt>
      <trkpt lat="47.04591" lon="-1.6385">
        <ele>4</ele>
        <time>2016-04-09T14:14:27Z</time>
      </trkpt>
      <trkpt lat="47.04577" lon="-1.63855">
        <ele>4</ele>
        <time>2016-04-09T14:16:27Z</time>
      </trkpt>
      <trkpt lat="47.04548" lon="-1.63872">
        <ele>4</ele>
        <time>2016-04-09T14:18:27Z</time>
      </trkpt>
      <trkpt lat="47.04522" lon="-1.63887">
        <ele>4</ele>
        <time>2016-04-09T14:20:27Z</time>
      </trkpt>
      <trkpt lat="47.04511" lon="-1.63894">
        <ele>4</ele>
        <time>2016-04-09T14:22:27Z</time>
      </trkpt>
      <trkpt lat="47.04476" lon="-1.63914">
        <ele>5</ele>
        <time>2016-04-09T14:24:27Z</time>
      </trkpt>
      <trkpt lat="47.04477" lon="-1.63915">
        <ele>5</ele>
        <time>2016-04-09T14:26:27Z</time>
      </trkpt>
      <trkpt lat="47.04477" lon="-1.63916">
        <ele>5</ele>
        <time>2016-04-09T14:28:27Z</time>
      </trkpt>
      <trkpt lat="47.04477" lon="-1.63917">
        <ele>5</ele>
        <time>2016-04-09T14:30:27Z</time>
      </trkpt>
      <trkpt lat="47.04477" lon="-1.63918">
        <ele>5</ele>
        <time>2016-04-09T14:32:27Z</time>
      </trkpt>
      <trkpt lat="47.04477" lon="-1.63919">
        <ele>5</ele>
        <time>2016-04-09T14:34:27Z</time>
      </trkpt>
      <trkpt lat="47.04477" lon="-1.6392">
        <ele>5</ele>
        <time>2016-04-09T14:36:27Z</time>
      </trkpt>
      <trkpt lat="47.04477" lon="-1.63921">
        <ele>4</ele>
        <time>2016-04-09T14:38:27Z</time>
      </trkpt>
      <trkpt lat="47.04477" lon="-1.63922">
        <ele>4</ele>
        <time>2016-04-09T14:40:27Z</time>
      </trkpt>
      <trkpt lat="47.04477" lon="-1.63923">
        <ele>4</ele>
        <time>2016-04-09T14:42:27Z</time>
      </trkpt>
      <trkpt lat="47.04477" lon="-1.63924">
        <ele>4</ele>
        <time>2016-04-09T14:44:27Z</time>
      </trkpt>
      <trkpt lat="47.04477" lon="-1.63925">
        <ele>4</ele>
        <time>2016-04-09T14:46:27Z</time>
      </trkpt>
      <trkpt lat="47.04476" lon="-1.63925">
        <ele>4</ele>
        <time>2016-04-09T14:48:27Z</time>
      </trkpt>
      <trkpt lat="47.04476" lon="-1.63926">
        <ele>4</ele>
        <time>2016-04-09T14:50:27Z</time>
      </trkpt>
      <trkpt lat="47.04476" lon="-1.63927">
        <ele>4</ele>
        <time>2016-04-09T14:52:27Z</time>
      </trkpt>
      <trkpt lat="47.04475" lon="-1.63927">
        <ele>4</ele>
        <time>2016-04-09T14:54:27Z</time>
      </trkpt>
      <trkpt lat="47.04475" lon="-1.63928">
        <ele>4</ele>
        <time>2016-04-09T14:56:27Z</time>
      </trkpt>
      <trkpt lat="47.04475" lon="-1.63929">
        <ele>4</ele>
        <time>2016-04-09T14:58:27Z</time>
      </trkpt>
      <trkpt lat="47.04474" lon="-1.63929">
        <ele>4</ele>
        <time>2016-04-09T15:00:27Z</time>
      </trkpt>
      <trkpt lat="47.04474" lon="-1.6393">
        <ele>4</ele>
        <time>2016-04-09T15:02:27Z</time>
      </trkpt>
      <trkpt lat="47.04473" lon="-1.6393">
        <ele>4</ele>
        <time>2016-04-09T15:04:27Z</time>
      </trkpt>
      <trkpt lat="47.04473" lon="-1.63931">
        <ele>4</ele>
        <time>2016-04-09T15:06:27Z</time>
      </trkpt>
      <trkpt lat="47.04472" lon="-1.63931">
        <ele>4</ele>
        <time>2016-04-09T15:08:27Z</time>
      </trkpt>
      <trkpt lat="47.04472" lon="-1.63932">
        <ele>4</ele>
        <time>2016-04-09T15:10:27Z</time>
      </trkpt>
      <trkpt lat="47.04471" lon="-1.63932">
        <ele>4</ele>
        <time>2016-04-09T15:12:27Z</time>
      </trkpt>
      <trkpt lat="47.0447" lon="-1.63932">
        <ele>4</ele>
        <time>2016-04-09T15:14:27Z</time>
      </trkpt>
      <trkpt lat="47.04469" lon="-1.63933">
        <ele>4</ele>
        <time>2016-04-09T15:16:27Z</time>
      </trkpt>
      <trkpt lat="47.04468" lon="-1.63933">
        <ele>4</ele>
        <time>2016-04-09T15:18:27Z</time>
      </trkpt>
      <trkpt lat="47.04467" lon="-1.63932">
        <ele>5</ele>
        <time>2016-04-09T15:20:27Z</time>
      </trkpt>
      <trkpt lat="47.04466" lon="-1.63932">
        <ele>5</ele>
        <time>2016-04-09T15:22:27Z</time>
      </trkpt>
      <trkpt lat="47.04465" lon="-1.63932">
        <ele>5</ele>
        <time>2016-04-09T15:24:27Z</time>
      </trkpt>
      <trkpt lat="47.04465" lon="-1.63931">
        <ele>5</ele>
        <time>2016-04-09T15:26:27Z</time>
      </trkpt>
      <trkpt lat="47.04464" lon="-1.63931">
        <ele>5</ele>
        <time>2016-04-09T15:28:27Z</time>
      </trkpt>
      <trkpt lat="47.04463" lon="-1.6393">
        <ele>5</ele>
        <time>2016-04-09T15:30:27Z</time>
      </trkpt>
      <trkpt lat="47.04463" lon="-1.63929">
        <ele>5</ele>
        <time>2016-04-09T15:32:27Z</time>
      </trkpt>
      <trkpt lat="47.04462" lon="-1.63929">
        <ele>5</ele>
        <time>2016-04-09T15:34:27Z</time>
      </trkpt>
      <trkpt lat="47.04462" lon="-1.63928">
        <ele>5</ele>
        <time>2016-04-09T15:36:27Z</time>
      </trkpt>
      <trkpt lat="47.04461" lon="-1.63927">
        <ele>5</ele>
        <time>2016-04-09T15:38:27Z</time>
      </trkpt>
      <trkpt lat="47.04461" lon="-1.63926">
        <ele>5</ele>
        <time>2016-04-09T15:40:27Z</time>
      </trkpt>
      <trkpt lat="47.04356" lon="-1.63973">
        <ele>5</ele>
        <time>2016-04-09T15:42:27Z</time>
      </trkpt>
      <trkpt lat="47.0435" lon="-1.63976">
        <ele>5</ele>
        <time>2016-04-09T15:44:27Z</time>
      </trkpt>
      <trkpt lat="47.04324" lon="-1.63988">
        <ele>5</ele>
        <time>2016-04-09T15:46:27Z</time>
      </trkpt>
      <trkpt lat="47.04318" lon="-1.63991">
        <ele>5</ele>
        <time>2016-04-09T15:48:27Z</time>
      </trkpt>
      <trkpt lat="47.04313" lon="-1.63993">
        <ele>5</ele>
        <time>2016-04-09T15:50:27Z</time>
      </trkpt>
      <trkpt lat="47.04221" lon="-1.64035">
        <ele>4</ele>
        <time>2016-04-09T15:52:27Z</time>
      </trkpt>
      <trkpt lat="47.04216" lon="-1.64037">
        <ele>4</ele>
        <time>2016-04-09T15:54:27Z</time>
      </trkpt>
      <trkpt lat="47.04206" lon="-1.64041">
        <ele>4</ele>
        <time>2016-04-09T15:56:27Z</time>
      </trkpt>
      <trkpt lat="47.04196" lon="-1.64045">
        <ele>4</ele>
        <time>2016-04-09T15:58:27Z</time>
      </trkpt>
      <trkpt lat="47.04137" lon="-1.64072">
        <ele>4</ele>
        <time>2016-04-09T16:00:27Z</time>
      </trkpt>
      <trkpt lat="47.04069" lon="-1.64103">
        <ele>5</ele>
        <time>2016-04-09T16:02:27Z</time>
      </trkpt>
      <trkpt lat="47.0404" lon="-1.64117">
        <ele>4</ele>
        <time>2016-04-09T16:04:27Z</time>
      </trkpt>
      <trkpt lat="47.04037" lon="-1.64118">
        <ele>4</ele>
        <time>2016-04-09T16:06:27Z</time>
      </trkpt>
      <trkpt lat="47.04024" lon="-1.64124">
        <ele>4</ele>
        <time>2016-04-09T16:08:27Z</time>
      </trkpt>
      <trkpt lat="47.04022" lon="-1.64125">
        <ele>4</ele>
        <time>2016-04-09T16:10:27Z</time>
      </trkpt>
      <trkpt lat="47.04017" lon="-1.64129">
        <ele>4</ele>
        <time>2016-04-09T16:12:27Z</time>
      </trkpt>
      <trkpt lat="47.03987" lon="-1.64143">
        <ele>4</ele>
        <time>2016-04-09T16:14:27Z</time>
      </trkpt>
      <trkpt lat="47.0398" lon="-1.64146">
        <ele>4</ele>
        <time>2016-04-09T16:16:27Z</time>
      </trkpt>
      <trkpt lat="47.03981" lon="-1.64148">
        <ele>4</ele>
        <time>2016-04-09T16:18:27Z</time>
      </trkpt>
      <trkpt lat="47.03981" lon="-1.64151">
        <ele>4</ele>
        <time>2016-04-09T16:20:27Z</time>
      </trkpt>
      <trkpt lat="47.0398" lon="-1.64152">
        <ele>4</ele>
        <time>2016-04-09T16:22:27Z</time>
      </trkpt>
      <trkpt lat="47.0398" lon="-1.64154">
        <ele>4</ele>
        <time>2016-04-09T16:24:27Z</time>
      </trkpt>
      <trkpt lat="47.03979" lon="-1.64156">
        <ele>3</ele>
        <time>2016-04-09T16:26:27Z</time>
      </trkpt>
      <trkpt lat="47.03977" lon="-1.64156">
        <ele>3</ele>
        <time>2016-04-09T16:28:27Z</time>
      </trkpt>
      <trkpt lat="47.03976" lon="-1.64156">
        <ele>4</ele>
        <time>2016-04-09T16:30:27Z</time>
      </trkpt>
      <trkpt lat="47.03975" lon="-1.64156">
        <ele>4</ele>
        <time>2016-04-09T16:32:27Z</time>
      </trkpt>
      <trkpt lat="47.03973" lon="-1.64154">
        <ele>4</ele>
        <time>2016-04-09T16:34:27Z</time>
      </trkpt>
      <trkpt lat="47.03972" lon="-1.64152">
        <ele>4</ele>
        <time>2016-04-09T16:36:27Z</time>
      </trkpt>
      <trkpt lat="47.03972" lon="-1.6415">
        <ele>4</ele>
        <time>2016-04-09T16:38:27Z</time>
      </trkpt>
      <trkpt lat="47.03972" lon="-1.64148">
        <ele>4</ele>
        <time>2016-04-09T16:40:27Z</time>
      </trkpt>
      <trkpt lat="47.03965" lon="-1.64146">
        <ele>4</ele>
        <time>2016-04-09T16:42:27Z</time>
      </trkpt>
      <trkpt lat="47.03961" lon="-1.64145">
        <ele>4</ele>
        <time>2016-04-09T16:44:27Z</time>
      </trkpt>
      <trkpt lat="47.03954" lon="-1.64143">
        <ele>4</ele>
        <time>2016-04-09T16:46:27Z</time>
      </trkpt>
      <trkpt lat="47.03948" lon="-1.64141">
        <ele>4</ele>
        <time>2016-04-09T16:48:27Z</time>
      </trkpt>
      <trkpt lat="47.03938" lon="-1.64136">
        <ele>4</ele>
        <time>2016-04-09T16:50:27Z</time>
      </trkpt>
      <trkpt lat="47.03929" lon="-1.6413">
        <ele>4</ele>
        <time>2016-04-09T16:52:27Z</time>
      </trkpt>
      <trkpt lat="47.03905" lon="-1.64115">
        <ele>5</ele>
        <time>2016-04-09T16:54:27Z</time>
      </trkpt>
      <trkpt lat="47.03899" lon="-1.64111">
        <ele>5</ele>
        <time>2016-04-09T16:56:27Z</time>
      </trkpt>
      <trkpt lat="47.03895" lon="-1.64108">
        <ele>5</ele>
        <time>2016-04-09T16:58:27Z</time>
      </trkpt>
      <trkpt lat="47.03889" lon="-1.64105">
        <ele>5</ele>
        <time>2016-04-09T17:00:27Z</time>
      </trkpt>
      <trkpt lat="47.03885" lon="-1.64103">
        <ele>5</ele>
        <time>2016-04-09T17:02:27Z</time>
      </trkpt>
      <trkpt lat="47.03866" lon="-1.64113">
        <ele>6</ele>
        <time>2016-04-09T17:04:27Z</time>
      </trkpt>
      <trkpt lat="47.03847" lon="-1.64127">
        <ele>6</ele>
        <time>2016-04-09T17:06:27Z</time>
      </trkpt>
      <trkpt lat="47.0384" lon="-1.64133">
        <ele>6</ele>
        <time>2016-04-09T17:08:27Z</time>
      </trkpt>
      <trkpt lat="47.0383" lon="-1.64142">
        <ele>6</ele>
        <time>2016-04-09T17:10:27Z</time>
      </trkpt>
      <trkpt lat="47.03798" lon="-1.64175">
        <ele>5</ele>
        <time>2016-04-09T17:12:27Z</time>
      </trkpt>
      <trkpt lat="47.03787" lon="-1.64186">
        <ele>6</ele>
        <time>2016-04-09T17:14:27Z</time>
      </trkpt>
      <trkpt lat="47.03746" lon="-1.64221">
        <ele>6</ele>
        <time>2016-04-09T17:16:27Z</time>
      </trkpt>
      <trkpt lat="47.03734" lon="-1.64232">
        <ele>6</ele>
        <time>2016-04-09T17:18:27Z</time>
      </trkpt>
      <trkpt lat="47.03707" lon="-1.64256">
        <ele>6</ele>
        <time>2016-04-09T17:20:27Z</time>
      </trkpt>
      <trkpt lat="47.03705" lon="-1.64259">
        <ele>6</ele>
        <time>2016-04-09T17:22:27Z</time>
      </trkpt>
      <trkpt lat="47.03695" lon="-1.64267">
        <ele>6</ele>
        <time>2016-04-09T17:24:27Z</time>
      </trkpt>
      <trkpt lat="47.03687" lon="-1.64271">
        <ele>6</ele>
        <time>2016-04-09T17:26:27Z</time>
      </trkpt>
      <trkpt lat="47.03679" lon="-1.64275">
        <ele>6</ele>
        <time>2016-04-09T17:28:27Z</time>
      </trkpt>
      <trkpt lat="47.03662" lon="-1.6428">
        <ele>6</ele>
        <time>2016-04-09T17:30:27Z</time>
      </trkpt>
      <trkpt lat="47.03618" lon="-1.64292">
        <ele>7</ele>
        <time>2016-04-09T17:32:27Z</time>
      </trkpt>
      <trkpt lat="47.03615" lon="-1.64293">
        <ele>7</ele>
        <time>2016-04-09T17:34:27Z</time>
      </trkpt>
      <trkpt lat="47.03602" lon="-1.64296">
        <ele>7</ele>
        <time>2016-04-09T17:36:27Z</time>
      </trkpt>
      <trkpt lat="47.03589" lon="-1.643">
        <ele>7</ele>
        <time>2016-04-09T17:38:27Z</time>
      </trkpt>
      <trkpt lat="47.03579" lon="-1.64302">
        <ele>8</ele>
        <time>2016-04-09T17:40:27Z</time>
      </trkpt>
      <trkpt lat="47.03577" lon="-1.64302">
        <ele>8</ele>
        <time>2016-04-09T17:42:27Z</time>
      </trkpt>
      <trkpt lat="47.03563" lon="-1.64307">
        <ele>8</ele>
        <time>2016-04-09T17:44:27Z</time>
      </trkpt>
      <trkpt lat="47.03553" lon="-1.64308">
        <ele>8</ele>
        <time>2016-04-09T17:46:27Z</time>
      </trkpt>
      <trkpt lat="47.03539" lon="-1.64308">
        <ele>9</ele>
        <time>2016-04-09T17:48:27Z</time>
      </trkpt>
      <trkpt lat="47.03528" lon="-1.64305">
        <ele>9</ele>
        <time>2016-04-09T17:50:27Z</time>
      </trkpt>
      <trkpt lat="47.03504" lon="-1.64295">
        <ele>10</ele>
        <time>2016-04-09T17:52:27Z</time>
      </trkpt>
      <trkpt lat="47.03473" lon="-1.64284">
        <ele>9</ele>
        <time>2016-04-09T17:54:27Z</time>
      </trkpt>
      <trkpt lat="47.03473" lon="-1.64284">
        <ele>9</ele>
        <time>2016-04-09T17:56:27Z</time>
      </trkpt>
      <trkpt lat="47.03455" lon="-1.64277">
        <ele>9</ele>
        <time>2016-04-09T17:58:27Z</time>
      </trkpt>
      <trkpt lat="47.03437" lon="-1.64269">
        <ele>8</ele>
        <time>2016-04-09T18:00:27Z</time>
      </trkpt>
      <trkpt lat="47.0339" lon="-1.6425">
        <ele>8</ele>
        <time>2016-04-09T18:02:27Z</time>
      </trkpt>
      <trkpt lat="47.03362" lon="-1.64242">
        <ele>9</ele>
        <time>2016-04-09T18:04:27Z</time>
      </trkpt>
      <trkpt lat="47.03343" lon="-1.64239">
        <ele>9</ele>
        <time>2016-04-09T18:06:27Z</time>
      </trkpt>
      <trkpt lat="47.03323" lon="-1.64238">
        <ele>9</ele>
        <time>2016-04-09T18:08:27Z</time>
      </trkpt>
      <trkpt lat="47.03295" lon="-1.64241">
        <ele>10</ele>
        <time>2016-04-09T18:10:27Z</time>
      </trkpt>
      <trkpt lat="47.03275" lon="-1.6424">
        <ele>11</ele>
        <time>2016-04-09T18:12:27Z</time>
      </trkpt>
      <trkpt lat="47.03237" lon="-1.64241">
        <ele>11</ele>
        <time>2016-04-09T18:14:27Z</time>
      </trkpt>
      <trkpt lat="47.03212" lon="-1.64241">
        <ele>12</ele>
        <time>2016-04-09T18:16:27Z</time>
      </trkpt>
      <trkpt lat="47.03192" lon="-1.6424">
        <ele>12</ele>
        <time>2016-04-09T18:18:27Z</time>
      </trkpt>
      <trkpt lat="47.03164" lon="-1.64235">
        <ele>12</ele>
        <time>2016-04-09T18:20:27Z</time>
      </trkpt>
      <trkpt lat="47.03153" lon="-1.64231">
        <ele>13</ele>
        <time>2016-04-09T18:22:27Z</time>
      </trkpt>
      <trkpt lat="47.03135" lon="-1.64226">
        <ele>13</ele>
        <time>2016-04-09T18:24:27Z</time>
      </trkpt>
      <trkpt lat="47.03106" lon="-1.64218">
        <ele>14</ele>
        <time>2016-04-09T18:26:27Z</time>
      </trkpt>
      <trkpt lat="47.031" lon="-1.64217">
        <ele>14</ele>
        <time>2016-04-09T18:28:27Z</time>
      </trkpt>
      <trkpt lat="47.0309" lon="-1.64218">
        <ele>14</ele>
        <time>2016-04-09T18:30:27Z</time>
      </trkpt>
      <trkpt lat="47.03075" lon="-1.6422">
        <ele>14</ele>
        <time>2016-04-09T18:32:27Z</time>
      </trkpt>
      <trkpt lat="47.03069" lon="-1.64222">
        <ele>14</ele>
        <time>2016-04-09T18:34:27Z</time>
      </trkpt>
      <trkpt lat="47.0306" lon="-1.64226">
        <ele>14</ele>
        <time>2016-04-09T18:36:27Z</time>
      </trkpt>
      <trkpt lat="47.03049" lon="-1.64231">
        <ele>14</ele>
        <time>2016-04-09T18:38:27Z</time>
      </trkpt>
      <trkpt lat="47.03042" lon="-1.64234">
        <ele>15</ele>
        <time>2016-04-09T18:40:27Z</time>
      </trkpt>
      <trkpt lat="47.03032" lon="-1.64239">
        <ele>15</ele>
        <time>2016-04-09T18:42:27Z</time>
      </trkpt>
      <trkpt lat="47.02999" lon="-1.64256">
        <ele>15</ele>
        <time>2016-04-09T18:44:27Z</time>
      </trkpt>
      <trkpt lat="47.02988" lon="-1.64265">
        <ele>16</ele>
        <time>2016-04-09T18:46:27Z</time>
      </trkpt>
      <trkpt lat="47.02985" lon="-1.64267">
        <ele>16</ele>
        <time>2016-04-09T18:48:27Z</time>
      </trkpt>
      <trkpt lat="47.0293" lon="-1.64307">
        <ele>19</ele>
        <time>2016-04-09T18:50:27Z</time>
      </trkpt>
      <trkpt lat="47.02912" lon="-1.64318">
        <ele>19</ele>
        <time>2016-04-09T18:52:27Z</time>
      </trkpt>
      <trkpt lat="47.02899" lon="-1.64328">
        <ele>20</ele>
        <time>2016-04-09T18:54:27Z</time>
      </trkpt>
      <trkpt lat="47.02895" lon="-1.6433">
        <ele>20</ele>
        <time>2016-04-09T18:56:27Z</time>
      </trkpt>
      <trkpt lat="47.02891" lon="-1.64333">
        <ele>20</ele>
        <time>2016-04-09T18:58:27Z</time>
      </trkpt>
      <trkpt lat="47.02887" lon="-1.64334">
        <ele>20</ele>
        <time>2016-04-09T19:00:27Z</time>
      </trkpt>
      <trkpt lat="47.02881" lon="-1.64337">
        <ele>20</ele>
        <time>2016-04-09T19:02:27Z</time>
      </trkpt>
      <trkpt lat="47.02874" lon="-1.64338">
        <ele>20</ele>
        <time>2016-04-09T19:04:27Z</time>
      </trkpt>
      <trkpt lat="47.02862" lon="-1.64338">
        <ele>20</ele>
        <time>2016-04-09T19:06:27Z</time>
      </trkpt>
      <trkpt lat="47.02846" lon="-1.64338">
        <ele>19</ele>
        <time>2016-04-09T19:08:27Z</time>
      </trkpt>
      <trkpt lat="47.02842" lon="-1.64338">
        <ele>19</ele>
        <time>2016-04-09T19:10:27Z</time>
      </trkpt>
      <trkpt lat="47.02826" lon="-1.64343">
        <ele>19</ele>
        <time>2016-04-09T19:12:27Z</time>
      </trkpt>
      <trkpt lat="47.02819" lon="-1.64346">
        <ele>20</ele>
        <time>2016-04-09T19:14:27Z</time>
      </trkpt>
      <trkpt lat="47.0278" lon="-1.64363">
        <ele>20</ele>
        <time>2016-04-09T19:16:27Z</time>
      </trkpt>
      <trkpt lat="47.02781" lon="-1.64364">
        <ele>20</ele>
        <time>2016-04-09T19:18:27Z</time>
      </trkpt>
      <trkpt lat="47.02781" lon="-1.64365">
        <ele>20</ele>
        <time>2016-04-09T19:20:27Z</time>
      </trkpt>
      <trkpt lat="47.02782" lon="-1.64367">
        <ele>20</ele>
        <time>2016-04-09T19:22:27Z</time>
      </trkpt>
      <trkpt lat="47.02782" lon="-1.64368">
        <ele>20</ele>
        <time>2016-04-09T19:24:27Z</time>
      </trkpt>
      <trkpt lat="47.02783" lon="-1.6437">
        <ele>20</ele>
        <time>2016-04-09T19:26:27Z</time>
      </trkpt>
      <trkpt lat="47.02783" lon="-1.64372">
        <ele>21</ele>
        <time>2016-04-09T19:28:27Z</time>
      </trkpt>
      <trkpt lat="47.02783" lon="-1.64373">
        <ele>21</ele>
        <time>2016-04-09T19:30:27Z</time>
      </trkpt>
      <trkpt lat="47.02783" lon="-1.64375">
        <ele>21</ele>
        <time>2016-04-09T19:32:27Z</time>
      </trkpt>
      <trkpt lat="47.02783" lon="-1.64377">
        <ele>21</ele>
        <time>2016-04-09T19:34:27Z</time>
      </trkpt>
      <trkpt lat="47.02783" lon="-1.64379">
        <ele>21</ele>
        <time>2016-04-09T19:36:27Z</time>
      </trkpt>
      <trkpt lat="47.02783" lon="-1.64381">
        <ele>21</ele>
        <time>2016-04-09T19:38:27Z</time>
      </trkpt>
      <trkpt lat="47.02783" lon="-1.64382">
        <ele>21</ele>
        <time>2016-04-09T19:40:27Z</time>
      </trkpt>
      <trkpt lat="47.02782" lon="-1.64384">
        <ele>21</ele>
        <time>2016-04-09T19:42:27Z</time>
      </trkpt>
      <trkpt lat="47.02782" lon="-1.64386">
        <ele>21</ele>
        <time>2016-04-09T19:44:27Z</time>
      </trkpt>
      <trkpt lat="47.02782" lon="-1.64387">
        <ele>21</ele>
        <time>2016-04-09T19:46:27Z</time>
      </trkpt>
      <trkpt lat="47.02781" lon="-1.64389">
        <ele>21</ele>
        <time>2016-04-09T19:48:27Z</time>
      </trkpt>
      <trkpt lat="47.0278" lon="-1.6439">
        <ele>21</ele>
        <time>2016-04-09T19:50:27Z</time>
      </trkpt>
      <trkpt lat="47.0278" lon="-1.64392">
        <ele>21</ele>
        <time>2016-04-09T19:52:27Z</time>
      </trkpt>
      <trkpt lat="47.02779" lon="-1.64393">
        <ele>21</ele>
        <time>2016-04-09T19:54:27Z</time>
      </trkpt>
      <trkpt lat="47.02778" lon="-1.64394">
        <ele>21</ele>
        <time>2016-04-09T19:56:27Z</time>
      </trkpt>
      <trkpt lat="47.02777" lon="-1.64395">
        <ele>21</ele>
        <time>2016-04-09T19:58:27Z</time>
      </trkpt>
      <trkpt lat="47.02776" lon="-1.64396">
        <ele>21</ele>
        <time>2016-04-09T20:00:27Z</time>
      </trkpt>
      <trkpt lat="47.02775" lon="-1.64397">
        <ele>22</ele>
        <time>2016-04-09T20:02:27Z</time>
      </trkpt>
      <trkpt lat="47.02774" lon="-1.64398">
        <ele>22</ele>
        <time>2016-04-09T20:04:27Z</time>
      </trkpt>
      <trkpt lat="47.02773" lon="-1.64399">
        <ele>22</ele>
        <time>2016-04-09T20:06:27Z</time>
      </trkpt>
      <trkpt lat="47.02772" lon="-1.644">
        <ele>22</ele>
        <time>2016-04-09T20:08:27Z</time>
      </trkpt>
      <trkpt lat="47.0277" lon="-1.644">
        <ele>22</ele>
        <time>2016-04-09T20:10:27Z</time>
      </trkpt>
      <trkpt lat="47.02769" lon="-1.64401">
        <ele>22</ele>
        <time>2016-04-09T20:12:27Z</time>
      </trkpt>
      <trkpt lat="47.02768" lon="-1.64401">
        <ele>22</ele>
        <time>2016-04-09T20:14:27Z</time>
      </trkpt>
      <trkpt lat="47.02766" lon="-1.64401">
        <ele>22</ele>
        <time>2016-04-09T20:16:27Z</time>
      </trkpt>
      <trkpt lat="47.02765" lon="-1.64401">
        <ele>22</ele>
        <time>2016-04-09T20:18:27Z</time>
      </trkpt>
      <trkpt lat="47.02764" lon="-1.64401">
        <ele>22</ele>
        <time>2016-04-09T20:20:27Z</time>
      </trkpt>
      <trkpt lat="47.02763" lon="-1.644">
        <ele>22</ele>
        <time>2016-04-09T20:22:27Z</time>
      </trkpt>
      <trkpt lat="47.02762" lon="-1.644">
        <ele>22</ele>
        <time>2016-04-09T20:24:27Z</time>
      </trkpt>
      <trkpt lat="47.02761" lon="-1.64399">
        <ele>21</ele>
        <time>2016-04-09T20:26:27Z</time>
      </trkpt>
      <trkpt lat="47.0276" lon="-1.64398">
        <ele>21</ele>
        <time>2016-04-09T20:28:27Z</time>
      </trkpt>
      <trkpt lat="47.02759" lon="-1.64398">
        <ele>21</ele>
        <time>2016-04-09T20:30:27Z</time>
      </trkpt>
      <trkpt lat="47.02758" lon="-1.64397">
        <ele>21</ele>
        <time>2016-04-09T20:32:27Z</time>
      </trkpt>
      <trkpt lat="47.02757" lon="-1.64396">
        <ele>21</ele>
        <time>2016-04-09T20:34:27Z</time>
      </trkpt>
      <trkpt lat="47.02756" lon="-1.64394">
        <ele>21</ele>
        <time>2016-04-09T20:36:27Z</time>
      </trkpt>
      <trkpt lat="47.02755" lon="-1.64393">
        <ele>21</ele>
        <time>2016-04-09T20:38:27Z</time>
      </trkpt>
      <trkpt lat="47.02754" lon="-1.64392">
        <ele>21</ele>
        <time>2016-04-09T20:40:27Z</time>
      </trkpt>
      <trkpt lat="47.02754" lon="-1.64391">
        <ele>21</ele>
        <time>2016-04-09T20:42:27Z</time>
      </trkpt>
      <trkpt lat="47.02749" lon="-1.64396">
        <ele>21</ele>
        <time>2016-04-09T20:44:27Z</time>
      </trkpt>
      <trkpt lat="47.02744" lon="-1.644">
        <ele>21</ele>
        <time>2016-04-09T20:46:27Z</time>
      </trkpt>
      <trkpt lat="47.02736" lon="-1.64405">
        <ele>22</ele>
        <time>2016-04-09T20:48:27Z</time>
      </trkpt>
      <trkpt lat="47.02729" lon="-1.64408">
        <ele>22</ele>
        <time>2016-04-09T20:50:27Z</time>
      </trkpt>
      <trkpt lat="47.02721" lon="-1.64411">
        <ele>22</ele>
        <time>2016-04-09T20:52:27Z</time>
      </trkpt>
      <trkpt lat="47.02698" lon="-1.64418">
        <ele>22</ele>
        <time>2016-04-09T20:54:27Z</time>
      </trkpt>
      <trkpt lat="47.02693" lon="-1.64419">
        <ele>22</ele>
        <time>2016-04-09T20:56:27Z</time>
      </trkpt>
      <trkpt lat="47.02667" lon="-1.64421">
        <ele>22</ele>
        <time>2016-04-09T20:58:27Z</time>
      </trkpt>
      <trkpt lat="47.02632" lon="-1.64426">
        <ele>22</ele>
        <time>2016-04-09T21:00:27Z</time>
      </trkpt>
      <trkpt lat="47.02614" lon="-1.64427">
        <ele>22</ele>
        <time>2016-04-09T21:02:27Z</time>
      </trkpt>
      <trkpt lat="47.02569" lon="-1.64432">
        <ele>22</ele>
        <time>2016-04-09T21:04:27Z</time>
      </trkpt>
      <trkpt lat="47.0256" lon="-1.64434">
        <ele>23</ele>
        <time>2016-04-09T21:06:27Z</time>
      </trkpt>
      <trkpt lat="47.02553" lon="-1.64435">
        <ele>23</ele>
        <time>2016-04-09T21:08:27Z</time>
      </trkpt>
      <trkpt lat="47.02547" lon="-1.64437">
        <ele>24</ele>
        <time>2016-04-09T21:10:27Z</time>
      </trkpt>
      <trkpt lat="47.02536" lon="-1.64442">
        <ele>24</ele>
        <time>2016-04-09T21:12:27Z</time>
      </trkpt>
      <trkpt lat="47.0252" lon="-1.64451">
        <ele>25</ele>
        <time>2016-04-09T21:14:27Z</time>
      </trkpt>
      <trkpt lat="47.02503" lon="-1.64463">
        <ele>26</ele>
        <time>2016-04-09T21:16:27Z</time>
      </trkpt>
      <trkpt lat="47.02483" lon="-1.64479">
        <ele>28</ele>
        <time>2016-04-09T21:18:27Z</time>
      </trkpt>
      <trkpt lat="47.02472" lon="-1.64485">
        <ele>28</ele>
        <time>2016-04-09T21:20:27Z</time>
      </trkpt>
      <trkpt lat="47.02459" lon="-1.6449">
        <ele>29</ele>
        <time>2016-04-09T21:22:27Z</time>
      </trkpt>
      <trkpt lat="47.02435" lon="-1.64496">
        <ele>31</ele>
        <time>2016-04-09T21:24:27Z</time>
      </trkpt>
      <trkpt lat="47.02344" lon="-1.64506">
        <ele>32</ele>
        <time>2016-04-09T21:26:27Z</time>
      </trkpt>
      <trkpt lat="47.02303" lon="-1.64511">
        <ele>32</ele>
        <time>2016-04-09T21:28:27Z</time>
      </trkpt>
      <trkpt lat="47.02287" lon="-1.64515">
        <ele>32</ele>
        <time>2016-04-09T21:30:27Z</time>
      </trkpt>
      <trkpt lat="47.02274" lon="-1.64518">
        <ele>32</ele>
        <time>2016-04-09T21:32:27Z</time>
      </trkpt>
      <trkpt lat="47.02243" lon="-1.6453">
        <ele>32</ele>
        <time>2016-04-09T21:34:27Z</time>
      </trkpt>
      <trkpt lat="47.022" lon="-1.64552">
        <ele>33</ele>
        <time>2016-04-09T21:36:27Z</time>
      </trkpt>
      <trkpt lat="47.02173" lon="-1.64565">
        <ele>34</ele>
        <time>2016-04-09T21:38:27Z</time>
      </trkpt>
      <trkpt lat="47.02158" lon="-1.64571">
        <ele>34</ele>
        <time>2016-04-09T21:40:27Z</time>
      </trkpt>
      <trkpt lat="47.02149" lon="-1.64574">
        <ele>34</ele>
        <time>2016-04-09T21:42:27Z</time>
      </trkpt>
      <trkpt lat="47.02144" lon="-1.64575">
        <ele>34</ele>
        <time>2016-04-09T21:44:27Z</time>
      </trkpt>
      <trkpt lat="47.02143" lon="-1.64575">
        <ele>34</ele>
        <time>2016-04-09T21:46:27Z</time>
      </trkpt>
      <trkpt lat="47.02135" lon="-1.64576">
        <ele>34</ele>
        <time>2016-04-09T21:48:27Z</time>
      </trkpt>
      <trkpt lat="47.02127" lon="-1.64577">
        <ele>33</ele>
        <time>2016-04-09T21:50:27Z</time>
      </trkpt>
      <trkpt lat="47.02125" lon="-1.64577">
        <ele>33</ele>
        <time>2016-04-09T21:52:27Z</time>
      </trkpt>
      <trkpt lat="47.02119" lon="-1.64578">
        <ele>33</ele>
        <time>2016-04-09T21:54:27Z</time>
      </trkpt>
      <trkpt lat="47.02076" lon="-1.64579">
        <ele>32</ele>
        <time>2016-04-09T21:56:27Z</time>
      </trkpt>
      <trkpt lat="47.02057" lon="-1.6458">
        <ele>32</ele>
        <time>2016-04-09T21:58:27Z</time>
      </trkpt>
      <trkpt lat="47.02046" lon="-1.64582">
        <ele>32</ele>
        <time>2016-04-09T22:00:27Z</time>
      </trkpt>
      <trkpt lat="47.02031" lon="-1.64586">
        <ele>32</ele>
        <time>2016-04-09T22:02:27Z</time>
      </trkpt>
      <trkpt lat="47.02015" lon="-1.64594">
        <ele>32</ele>
        <time>2016-04-09T22:04:27Z</time>
      </trkpt>
      <trkpt lat="47.02012" lon="-1.64596">
        <ele>32</ele>
        <time>2016-04-09T22:06:27Z</time>
      </trkpt>
      <trkpt lat="47.0198" lon="-1.64617">
        <ele>33</ele>
        <time>2016-04-09T22:08:27Z</time>
      </trkpt>
      <trkpt lat="47.01949" lon="-1.64638">
        <ele>34</ele>
        <time>2016-04-09T22:10:27Z</time>
      </trkpt>
      <trkpt lat="47.01914" lon="-1.64661">
        <ele>34</ele>
        <time>2016-04-09T22:12:27Z</time>
      </trkpt>
      <trkpt lat="47.01881" lon="-1.64684">
        <ele>35</ele>
        <time>2016-04-09T22:14:27Z</time>
      </trkpt>
      <trkpt lat="47.01845" lon="-1.64708">
        <ele>36</ele>
        <time>2016-04-09T22:16:27Z</time>
      </trkpt>
      <trkpt lat="47.01809" lon="-1.64732">
        <ele>37</ele>
        <time>2016-04-09T22:18:27Z</time>
      </trkpt>
      <trkpt lat="47.0177" lon="-1.64758">
        <ele>38</ele>
        <time>2016-04-09T22:20:27Z</time>
      </trkpt>
      <trkpt lat="47.01739" lon="-1.6478">
        <ele>38</ele>
        <time>2016-04-09T22:22:27Z</time>
      </trkpt>
      <trkpt lat="47.01703" lon="-1.64804">
        <ele>38</ele>
        <time>2016-04-09T22:24:27Z</time>
      </trkpt>
      <trkpt lat="47.01676" lon="-1.6482">
        <ele>39</ele>
        <time>2016-04-09T22:26:27Z</time>
      </trkpt>
      <trkpt lat="47.01657" lon="-1.64835">
        <ele>39</ele>
        <time>2016-04-09T22:28:27Z</time>
      </trkpt>
      <trkpt lat="47.01642" lon="-1.64845">
        <ele>39</ele>
        <time>2016-04-09T22:30:27Z</time>
      </trkpt>
      <trkpt lat="47.01628" lon="-1.64855">
        <ele>40</ele>
        <time>2016-04-09T22:32:27Z</time>
      </trkpt>
      <trkpt lat="47.01616" lon="-1.64867">
        <ele>40</ele>
        <time>2016-04-09T22:34:27Z</time>
      </trkpt>
      <trkpt lat="47.01603" lon="-1.64879">
        <ele>40</ele>
        <time>2016-04-09T22:36:27Z</time>
      </trkpt>
      <trkpt lat="47.01592" lon="-1.6489">
        <ele>41</ele>
        <time>2016-04-09T22:38:27Z</time>
      </trkpt>
      <trkpt lat="47.01569" lon="-1.64914">
        <ele>42</ele>
        <time>2016-04-09T22:40:27Z</time>
      </trkpt>
      <trkpt lat="47.01561" lon="-1.64922">
        <ele>41</ele>
        <time>2016-04-09T22:42:27Z</time>
      </trkpt>
      <trkpt lat="47.01553" lon="-1.6493">
        <ele>41</ele>
        <time>2016-04-09T22:44:27Z</time>
      </trkpt>
      <trkpt lat="47.01548" lon="-1.64935">
        <ele>41</ele>
        <time>2016-04-09T22:46:27Z</time>
      </trkpt>
      <trkpt lat="47.01517" lon="-1.64967">
        <ele>41</ele>
        <time>2016-04-09T22:48:27Z</time>
      </trkpt>
      <trkpt lat="47.01488" lon="-1.64995">
        <ele>42</ele>
        <time>2016-04-09T22:50:27Z</time>
      </trkpt>
      <trkpt lat="47.01462" lon="-1.65022">
        <ele>43</ele>
        <time>2016-04-09T22:52:27Z</time>
      </trkpt>
      <trkpt lat="47.01435" lon="-1.65049">
        <ele>43</ele>
        <time>2016-04-09T22:54:27Z</time>
      </trkpt>
      <trkpt lat="47.01428" lon="-1.65056">
        <ele>43</ele>
        <time>2016-04-09T22:56:27Z</time>
      </trkpt>
      <trkpt lat="47.01421" lon="-1.65063">
        <ele>43</ele>
        <time>2016-04-09T22:58:27Z</time>
      </trkpt>
      <trkpt lat="47.01418" lon="-1.65067">
        <ele>43</ele>
        <time>2016-04-09T23:00:27Z</time>
      </trkpt>
      <trkpt lat="47.01415" lon="-1.65069">
        <ele>43</ele>
        <time>2016-04-09T23:02:27Z</time>
      </trkpt>
      <trkpt lat="47.01401" lon="-1.65084">
        <ele>43</ele>
        <time>2016-04-09T23:04:27Z</time>
      </trkpt>
      <trkpt lat="47.01376" lon="-1.65109">
        <ele>44</ele>
        <time>2016-04-09T23:06:27Z</time>
      </trkpt>
      <trkpt lat="47.01356" lon="-1.6513">
        <ele>45</ele>
        <time>2016-04-09T23:08:27Z</time>
      </trkpt>
      <trkpt lat="47.01336" lon="-1.65152">
        <ele>45</ele>
        <time>2016-04-09T23:10:27Z</time>
      </trkpt>
      <trkpt lat="47.01319" lon="-1.65167">
        <ele>45</ele>
        <time>2016-04-09T23:12:27Z</time>
      </trkpt>
      <trkpt lat="47.01306" lon="-1.65178">
        <ele>45</ele>
        <time>2016-04-09T23:14:27Z</time>
      </trkpt>
      <trkpt lat="47.01292" lon="-1.65188">
        <ele>46</ele>
        <time>2016-04-09T23:16:27Z</time>
      </trkpt>
      <trkpt lat="47.01273" lon="-1.65201">
        <ele>46</ele>
        <time>2016-04-09T23:18:27Z</time>
      </trkpt>
      <trkpt lat="47.01239" lon="-1.6522">
        <ele>46</ele>
        <time>2016-04-09T23:20:27Z</time>
      </trkpt>
      <trkpt lat="47.01193" lon="-1.65245">
        <ele>46</ele>
        <time>2016-04-09T23:22:27Z</time>
      </trkpt>
      <trkpt lat="47.01153" lon="-1.65268">
        <ele>46</ele>
        <time>2016-04-09T23:24:27Z</time>
      </trkpt>
      <trkpt lat="47.01107" lon="-1.65294">
        <ele>46</ele>
        <time>2016-04-09T23:26:27Z</time>
      </trkpt>
      <trkpt lat="47.01072" lon="-1.65314">
        <ele>45</ele>
        <time>2016-04-09T23:28:27Z</time>
      </trkpt>
      <trkpt lat="47.01026" lon="-1.65339">
        <ele>45</ele>
        <time>2016-04-09T23:30:27Z</time>
      </trkpt>
      <trkpt lat="47.00984" lon="-1.65363">
        <ele>45</ele>
        <time>2016-04-09T23:32:27Z</time>
      </trkpt>
      <trkpt lat="47.00952" lon="-1.65379">
        <ele>44</ele>
        <time>2016-04-09T23:34:27Z</time>
      </trkpt>
      <trkpt lat="47.00917" lon="-1.65399">
        <ele>44</ele>
        <time>2016-04-09T23:36:27Z</time>
      </trkpt>
      <trkpt lat="47.00885" lon="-1.65416">
        <ele>44</ele>
        <time>2016-04-09T23:38:27Z</time>
      </trkpt>
      <trkpt lat="47.00868" lon="-1.65426">
        <ele>43</ele>
        <time>2016-04-09T23:40:27Z</time>
      </trkpt>
      <trkpt lat="47.00863" lon="-1.6543">
        <ele>43</ele>
        <time>2016-04-09T23:42:27Z</time>
      </trkpt>
      <trkpt lat="47.00847" lon="-1.65444">
        <ele>43</ele>
        <time>2016-04-09T23:44:27Z</time>
      </trkpt>
      <trkpt lat="47.00837" lon="-1.65456">
        <ele>43</ele>
        <time>2016-04-09T23:46:27Z</time>
      </trkpt>
      <trkpt lat="47.00833" lon="-1.65461">
        <ele>43</ele>
        <time>2016-04-09T23:48:27Z</time>
      </trkpt>
      <trkpt lat="47.00827" lon="-1.6547">
        <ele>43</ele>
        <time>2016-04-09T23:50:27Z</time>
      </trkpt>
      <trkpt lat="47.0082" lon="-1.65481">
        <ele>42</ele>
        <time>2016-04-09T23:52:27Z</time>
      </trkpt>
      <trkpt lat="47.00816" lon="-1.6549">
        <ele>42</ele>
        <time>2016-04-09T23:54:27Z</time>
      </trkpt>
      <trkpt lat="47.00812" lon="-1.65498">
        <ele>42</ele>
        <time>2016-04-09T23:56:27Z</time>
      </trkpt>
      <trkpt lat="47.008" lon="-1.65528">
        <ele>41</ele>
        <time>2016-04-09T23:58:27Z</time>
      </trkpt>
      <trkpt lat="47.0079" lon="-1.65558">
        <ele>40</ele>
        <time>2016-04-10T00:00:27Z</time>
      </trkpt>
      <trkpt lat="47.00787" lon="-1.65567">
        <ele>40</ele>
        <time>2016-04-10T00:02:27Z</time>
      </trkpt>
      <trkpt lat="47.00775" lon="-1.65608">
        <ele>39</ele>
        <time>2016-04-10T00:04:27Z</time>
      </trkpt>
      <trkpt lat="47.00761" lon="-1.65653">
        <ele>37</ele>
        <time>2016-04-10T00:06:27Z</time>
      </trkpt>
      <trkpt lat="47.00757" lon="-1.65666">
        <ele>36</ele>
        <time>2016-04-10T00:08:27Z</time>
      </trkpt>
      <trkpt lat="47.00751" lon="-1.65686">
        <ele>36</ele>
        <time>2016-04-10T00:10:27Z</time>
      </trkpt>
      <trkpt lat="47.0075" lon="-1.65687">
        <ele>36</ele>
        <time>2016-04-10T00:12:27Z</time>
      </trkpt>
      <trkpt lat="47.0074" lon="-1.65717">
        <ele>36</ele>
        <time>2016-04-10T00:14:27Z</time>
      </trkpt>
      <trkpt lat="47.00736" lon="-1.6573">
        <ele>36</ele>
        <time>2016-04-10T00:16:27Z</time>
      </trkpt>
      <trkpt lat="47.00731" lon="-1.65739">
        <ele>36</ele>
        <time>2016-04-10T00:18:27Z</time>
      </trkpt>
      <trkpt lat="47.00724" lon="-1.65754">
        <ele>36</ele>
        <time>2016-04-10T00:20:27Z</time>
      </trkpt>
      <trkpt lat="47.007" lon="-1.65796">
        <ele>35</ele>
        <time>2016-04-10T00:22:27Z</time>
      </trkpt>
      <trkpt lat="47.00678" lon="-1.65833">
        <ele>34</ele>
        <time>2016-04-10T00:24:27Z</time>
      </trkpt>
      <trkpt lat="47.00654" lon="-1.65875">
        <ele>35</ele>
        <time>2016-04-10T00:26:27Z</time>
      </trkpt>
      <trkpt lat="47.00639" lon="-1.65896">
        <ele>35</ele>
        <time>2016-04-10T00:28:27Z</time>
      </trkpt>
      <trkpt lat="47.00619" lon="-1.65921">
        <ele>37</ele>
        <time>2016-04-10T00:30:27Z</time>
      </trkpt>
      <trkpt lat="47.00601" lon="-1.65939">
        <ele>38</ele>
        <time>2016-04-10T00:32:27Z</time>
      </trkpt>
      <trkpt lat="47.00567" lon="-1.65971">
        <ele>37</ele>
        <time>2016-04-10T00:34:27Z</time>
      </trkpt>
      <trkpt lat="47.00535" lon="-1.66001">
        <ele>36</ele>
        <time>2016-04-10T00:36:27Z</time>
      </trkpt>
      <trkpt lat="47.00499" lon="-1.66036">
        <ele>35</ele>
        <time>2016-04-10T00:38:27Z</time>
      </trkpt>
      <trkpt lat="47.00488" lon="-1.66045">
        <ele>35</ele>
        <time>2016-04-10T00:40:27Z</time>
      </trkpt>
      <trkpt lat="47.0046" lon="-1.66072">
        <ele>35</ele>
        <time>2016-04-10T00:42:27Z</time>
      </trkpt>
      <trkpt lat="47.00442" lon="-1.66089">
        <ele>35</ele>
        <time>2016-04-10T00:44:27Z</time>
      </trkpt>
      <trkpt lat="47.0043" lon="-1.661">
        <ele>35</ele>
        <time>2016-04-10T00:46:27Z</time>
      </trkpt>
      <trkpt lat="47.00405" lon="-1.66125">
        <ele>35</ele>
        <time>2016-04-10T00:48:27Z</time>
      </trkpt>
      <trkpt lat="47.00379" lon="-1.6615">
        <ele>35</ele>
        <time>2016-04-10T00:50:27Z</time>
      </trkpt>
      <trkpt lat="47.00356" lon="-1.66174">
        <ele>35</ele>
        <time>2016-04-10T00:52:27Z</time>
      </trkpt>
      <trkpt lat="47.00337" lon="-1.66191">
        <ele>35</ele>
        <time>2016-04-10T00:54:27Z</time>
      </trkpt>
      <trkpt lat="47.00318" lon="-1.66205">
        <ele>35</ele>
        <time>2016-04-10T00:56:27Z</time>
      </trkpt>
      <trkpt lat="47.00299" lon="-1.66216">
        <ele>35</ele>
        <time>2016-04-10T00:58:27Z</time>
      </trkpt>
      <trkpt lat="47.00282" lon="-1.66223">
        <ele>35</ele>
        <time>2016-04-10T01:00:27Z</time>
      </trkpt>
      <trkpt lat="47.00269" lon="-1.66228">
        <ele>35</ele>
        <time>2016-04-10T01:02:27Z</time>
      </trkpt>
      <trkpt lat="47.00252" lon="-1.66232">
        <ele>35</ele>
        <time>2016-04-10T01:04:27Z</time>
      </trkpt>
      <trkpt lat="47.00212" lon="-1.6624">
        <ele>35</ele>
        <time>2016-04-10T01:06:27Z</time>
      </trkpt>
      <trkpt lat="47.00164" lon="-1.6625">
        <ele>35</ele>
        <time>2016-04-10T01:08:27Z</time>
      </trkpt>
      <trkpt lat="47.00125" lon="-1.66257">
        <ele>34</ele>
        <time>2016-04-10T01:10:27Z</time>
      </trkpt>
      <trkpt lat="47.0012" lon="-1.66258">
        <ele>34</ele>
        <time>2016-04-10T01:12:27Z</time>
      </trkpt>
      <trkpt lat="47.00079" lon="-1.66266">
        <ele>34</ele>
        <time>2016-04-10T01:14:27Z</time>
      </trkpt>
      <trkpt lat="47.00035" lon="-1.66273">
        <ele>33</ele>
        <time>2016-04-10T01:16:27Z</time>
      </trkpt>
      <trkpt lat="46.99988" lon="-1.66282">
        <ele>33</ele>
        <time>2016-04-10T01:18:27Z</time>
      </trkpt>
      <trkpt lat="46.99944" lon="-1.6629">
        <ele>33</ele>
        <time>2016-04-10T01:20:27Z</time>
      </trkpt>
      <trkpt lat="46.9991" lon="-1.66297">
        <ele>33</ele>
        <time>2016-04-10T01:22:27Z</time>
      </trkpt>
      <trkpt lat="46.99879" lon="-1.66302">
        <ele>33</ele>
        <time>2016-04-10T01:24:27Z</time>
      </trkpt>
      <trkpt lat="46.99859" lon="-1.66307">
        <ele>34</ele>
        <time>2016-04-10T01:26:27Z</time>
      </trkpt>
      <trkpt lat="46.99835" lon="-1.66311">
        <ele>34</ele>
        <time>2016-04-10T01:28:27Z</time>
      </trkpt>
      <trkpt lat="46.99811" lon="-1.66315">
        <ele>34</ele>
        <time>2016-04-10T01:30:27Z</time>
      </trkpt>
      <trkpt lat="46.99793" lon="-1.66317">
        <ele>34</ele>
        <time>2016-04-10T01:32:27Z</time>
      </trkpt>
      <trkpt lat="46.99776" lon="-1.66317">
        <ele>34</ele>
        <time>2016-04-10T01:34:27Z</time>
      </trkpt>
      <trkpt lat="46.99764" lon="-1.66317">
        <ele>35</ele>
        <time>2016-04-10T01:36:27Z</time>
      </trkpt>
      <trkpt lat="46.99748" lon="-1.66315">
        <ele>35</ele>
        <time>2016-04-10T01:38:27Z</time>
      </trkpt>
      <trkpt lat="46.99725" lon="-1.6631">
        <ele>35</ele>
        <time>2016-04-10T01:40:27Z</time>
      </trkpt>
      <trkpt lat="46.99697" lon="-1.66303">
        <ele>35</ele>
        <time>2016-04-10T01:42:27Z</time>
      </trkpt>
      <trkpt lat="46.99676" lon="-1.66298">
        <ele>35</ele>
        <time>2016-04-10T01:44:27Z</time>
      </trkpt>
      <trkpt lat="46.99647" lon="-1.66292">
        <ele>35</ele>
        <time>2016-04-10T01:46:27Z</time>
      </trkpt>
      <trkpt lat="46.99619" lon="-1.66285">
        <ele>35</ele>
        <time>2016-04-10T01:48:27Z</time>
      </trkpt>
      <trkpt lat="46.99592" lon="-1.66278">
        <ele>34</ele>
        <time>2016-04-10T01:50:27Z</time>
      </trkpt>
      <trkpt lat="46.99568" lon="-1.66274">
        <ele>35</ele>
        <time>2016-04-10T01:52:27Z</time>
      </trkpt>
      <trkpt lat="46.99542" lon="-1.66272">
        <ele>35</ele>
        <time>2016-04-10T01:54:27Z</time>
      </trkpt>
      <trkpt lat="46.99513" lon="-1.66273">
        <ele>35</ele>
        <time>2016-04-10T01:56:27Z</time>
      </trkpt>
      <trkpt lat="46.99488" lon="-1.66276">
        <ele>36</ele>
        <time>2016-04-10T01:58:27Z</time>
      </trkpt>
      <trkpt lat="46.9946" lon="-1.66281">
        <ele>36</ele>
        <time>2016-04-10T02:00:27Z</time>
      </trkpt>
      <trkpt lat="46.99437" lon="-1.66287">
        <ele>36</ele>
        <time>2016-04-10T02:02:27Z</time>
      </trkpt>
      <trkpt lat="46.99406" lon="-1.66295">
        <ele>36</ele>
        <time>2016-04-10T02:04:27Z</time>
      </trkpt>
      <trkpt lat="46.99377" lon="-1.66302">
        <ele>36</ele>
        <time>2016-04-10T02:06:27Z</time>
      </trkpt>
      <trkpt lat="46.99354" lon="-1.66308">
        <ele>36</ele>
        <time>2016-04-10T02:08:27Z</time>
      </trkpt>
      <trkpt lat="46.99316" lon="-1.66318">
        <ele>36</ele>
        <time>2016-04-10T02:10:27Z</time>
      </trkpt>
      <trkpt lat="46.99279" lon="-1.66327">
        <ele>35</ele>
        <time>2016-04-10T02:12:27Z</time>
      </trkpt>
      <trkpt lat="46.99241" lon="-1.66336">
        <ele>34</ele>
        <time>2016-04-10T02:14:27Z</time>
      </trkpt>
      <trkpt lat="46.99224" lon="-1.66341">
        <ele>33</ele>
        <time>2016-04-10T02:16:27Z</time>
      </trkpt>
      <trkpt lat="46.99215" lon="-1.66343">
        <ele>32</ele>
        <time>2016-04-10T02:18:27Z</time>
      </trkpt>
      <trkpt lat="46.9919" lon="-1.6635">
        <ele>31</ele>
        <time>2016-04-10T02:20:27Z</time>
      </trkpt>
      <trkpt lat="46.9916" lon="-1.66357">
        <ele>30</ele>
        <time>2016-04-10T02:22:27Z</time>
      </trkpt>
      <trkpt lat="46.99139" lon="-1.66363">
        <ele>30</ele>
        <time>2016-04-10T02:24:27Z</time>
      </trkpt>
      <trkpt lat="46.99121" lon="-1.66368">
        <ele>31</ele>
        <time>2016-04-10T02:26:27Z</time>
      </trkpt>
      <trkpt lat="46.99107" lon="-1.66373">
        <ele>31</ele>
        <time>2016-04-10T02:28:27Z</time>
      </trkpt>
      <trkpt lat="46.99091" lon="-1.6638">
        <ele>30</ele>
        <time>2016-04-10T02:30:27Z</time>
      </trkpt>
      <trkpt lat="46.9907" lon="-1.66391">
        <ele>30</ele>
        <time>2016-04-10T02:32:27Z</time>
      </trkpt>
      <trkpt lat="46.9905" lon="-1.66402">
        <ele>30</ele>
        <time>2016-04-10T02:34:27Z</time>
      </trkpt>
      <trkpt lat="46.99029" lon="-1.66415">
        <ele>29</ele>
        <time>2016-04-10T02:36:27Z</time>
      </trkpt>
      <trkpt lat="46.98997" lon="-1.66434">
        <ele>29</ele>
        <time>2016-04-10T02:38:27Z</time>
      </trkpt>
      <trkpt lat="46.98974" lon="-1.66446">
        <ele>28</ele>
        <time>2016-04-10T02:40:27Z</time>
      </trkpt>
      <trkpt lat="46.98958" lon="-1.66454">
        <ele>28</ele>
        <time>2016-04-10T02:42:27Z</time>
      </trkpt>
      <trkpt lat="46.98944" lon="-1.66458">
        <ele>28</ele>
        <time>2016-04-10T02:44:27Z</time>
      </trkpt>
      <trkpt lat="46.98928" lon="-1.66459">
        <ele>28</ele>
        <time>2016-04-10T02:46:27Z</time>
      </trkpt>
      <trkpt lat="46.98915" lon="-1.66458">
        <ele>27</ele>
        <time>2016-04-10T02:48:27Z</time>
      </trkpt>
      <trkpt lat="46.98907" lon="-1.66456">
        <ele>27</ele>
        <time>2016-04-10T02:50:27Z</time>
      </trkpt>
      <trkpt lat="46.98901" lon="-1.66454">
        <ele>27</ele>
        <time>2016-04-10T02:52:27Z</time>
      </trkpt>
      <trkpt lat="46.98894" lon="-1.66451">
        <ele>27</ele>
        <time>2016-04-10T02:54:27Z</time>
      </trkpt>
      <trkpt lat="46.98881" lon="-1.66445">
        <ele>27</ele>
        <time>2016-04-10T02:56:27Z</time>
      </trkpt>
      <trkpt lat="46.98871" lon="-1.66441">
        <ele>27</ele>
        <time>2016-04-10T02:58:27Z</time>
      </trkpt>
      <trkpt lat="46.98863" lon="-1.66438">
        <ele>27</ele>
        <time>2016-04-10T03:00:27Z</time>
      </trkpt>
      <trkpt lat="46.98844" lon="-1.66432">
        <ele>26</ele>
        <time>2016-04-10T03:02:27Z</time>
      </trkpt>
      <trkpt lat="46.98821" lon="-1.66429">
        <ele>26</ele>
        <time>2016-04-10T03:04:27Z</time>
      </trkpt>
      <trkpt lat="46.98817" lon="-1.66428">
        <ele>26</ele>
        <time>2016-04-10T03:06:27Z</time>
      </trkpt>
      <trkpt lat="46.98809" lon="-1.66427">
        <ele>26</ele>
        <time>2016-04-10T03:08:27Z</time>
      </trkpt>
      <trkpt lat="46.98798" lon="-1.66427">
        <ele>26</ele>
        <time>2016-04-10T03:10:27Z</time>
      </trkpt>
      <trkpt lat="46.98775" lon="-1.6643">
        <ele>26</ele>
        <time>2016-04-10T03:12:27Z</time>
      </trkpt>
      <trkpt lat="46.98758" lon="-1.66437">
        <ele>26</ele>
        <time>2016-04-10T03:14:27Z</time>
      </trkpt>
      <trkpt lat="46.98744" lon="-1.66446">
        <ele>25</ele>
        <time>2016-04-10T03:16:27Z</time>
      </trkpt>
      <trkpt lat="46.9873" lon="-1.66457">
        <ele>25</ele>
        <time>2016-04-10T03:18:27Z</time>
      </trkpt>
      <trkpt lat="46.98716" lon="-1.6647">
        <ele>24</ele>
        <time>2016-04-10T03:20:27Z</time>
      </trkpt>
      <trkpt lat="46.98697" lon="-1.66492">
        <ele>23</ele>
        <time>2016-04-10T03:22:27Z</time>
      </trkpt>
      <trkpt lat="46.98684" lon="-1.66508">
        <ele>23</ele>
        <time>2016-04-10T03:24:27Z</time>
      </trkpt>
      <trkpt lat="46.98682" lon="-1.66511">
        <ele>23</ele>
        <time>2016-04-10T03:26:27Z</time>
      </trkpt>
      <trkpt lat="46.98674" lon="-1.66521">
        <ele>22</ele>
        <time>2016-04-10T03:28:27Z</time>
      </trkpt>
      <trkpt lat="46.98656" lon="-1.66542">
        <ele>23</ele>
        <time>2016-04-10T03:30:27Z</time>
      </trkpt>
      <trkpt lat="46.98622" lon="-1.66583">
        <ele>24</ele>
        <time>2016-04-10T03:32:27Z</time>
      </trkpt>
      <trkpt lat="46.9859" lon="-1.66621">
        <ele>25</ele>
        <time>2016-04-10T03:34:27Z</time>
      </trkpt>
      <trkpt lat="46.98558" lon="-1.66661">
        <ele>25</ele>
        <time>2016-04-10T03:36:27Z</time>
      </trkpt>
      <trkpt lat="46.98524" lon="-1.66701">
        <ele>25</ele>
        <time>2016-04-10T03:38:27Z</time>
      </trkpt>
      <trkpt lat="46.98486" lon="-1.66748">
        <ele>25</ele>
        <time>2016-04-10T03:40:27Z</time>
      </trkpt>
      <trkpt lat="46.98457" lon="-1.66782">
        <ele>25</ele>
        <time>2016-04-10T03:42:27Z</time>
      </trkpt>
      <trkpt lat="46.98435" lon="-1.66811">
        <ele>25</ele>
        <time>2016-04-10T03:44:27Z</time>
      </trkpt>
      <trkpt lat="46.98418" lon="-1.6683">
        <ele>26</ele>
        <time>2016-04-10T03:46:27Z</time>
      </trkpt>
      <trkpt lat="46.98393" lon="-1.66859">
        <ele>26</ele>
        <time>2016-04-10T03:48:27Z</time>
      </trkpt>
      <trkpt lat="46.98373" lon="-1.66876">
        <ele>25</ele>
        <time>2016-04-10T03:50:27Z</time>
      </trkpt>
      <trkpt lat="46.98358" lon="-1.66888">
        <ele>25</ele>
        <time>2016-04-10T03:52:27Z</time>
      </trkpt>
      <trkpt lat="46.98345" lon="-1.66895">
        <ele>25</ele>
        <time>2016-04-10T03:54:27Z</time>
      </trkpt>
      <trkpt lat="46.9831" lon="-1.66909">
        <ele>24</ele>
        <time>2016-04-10T03:56:27Z</time>
      </trkpt>
      <trkpt lat="46.98273" lon="-1.66921">
        <ele>24</ele>
        <time>2016-04-10T03:58:27Z</time>
      </trkpt>
      <trkpt lat="46.98259" lon="-1.66925">
        <ele>24</ele>
        <time>2016-04-10T04:00:27Z</time>
      </trkpt>
      <trkpt lat="46.9824" lon="-1.66931">
        <ele>25</ele>
        <time>2016-04-10T04:02:27Z</time>
      </trkpt>
      <trkpt lat="46.98236" lon="-1.66933">
        <ele>25</ele>
        <time>2016-04-10T04:04:27Z</time>
      </trkpt>
      <trkpt lat="46.98228" lon="-1.66935">
        <ele>25</ele>
        <time>2016-04-10T04:06:27Z</time>
      </trkpt>
      <trkpt lat="46.98228" lon="-1.66935">
        <ele>25</ele>
        <time>2016-04-10T04:08:27Z</time>
      </trkpt>
      <trkpt lat="46.98227" lon="-1.66916">
        <ele>24</ele>
        <time>2016-04-10T04:10:27Z</time>
      </trkpt>
      <trkpt lat="46.98227" lon="-1.6691">
        <ele>24</ele>
        <time>2016-04-10T04:12:27Z</time>
      </trkpt>
      <trkpt lat="46.98226" lon="-1.66864">
        <ele>23</ele>
        <time>2016-04-10T04:14:27Z</time>
      </trkpt>
      <trkpt lat="46.98223" lon="-1.66787">
        <ele>23</ele>
        <time>2016-04-10T04:16:27Z</time>
      </trkpt>
      <trkpt lat="46.98221" lon="-1.66728">
        <ele>22</ele>
        <time>2016-04-10T04:18:27Z</time>
      </trkpt>
      <trkpt lat="46.98219" lon="-1.66681">
        <ele>21</ele>
        <time>2016-04-10T04:20:27Z</time>
      </trkpt>
      <trkpt lat="46.98218" lon="-1.66653">
        <ele>21</ele>
        <time>2016-04-10T04:22:27Z</time>
      </trkpt>
      <trkpt lat="46.98217" lon="-1.66634">
        <ele>21</ele>
        <time>2016-04-10T04:24:27Z</time>
      </trkpt>
      <trkpt lat="46.98217" lon="-1.6663">
        <ele>21</ele>
        <time>2016-04-10T04:26:27Z</time>
      </trkpt>
      <trkpt lat="46.98218" lon="-1.6662">
        <ele>21</ele>
        <time>2016-04-10T04:28:27Z</time>
      </trkpt>
      <trkpt lat="46.98218" lon="-1.66606">
        <ele>20</ele>
        <time>2016-04-10T04:30:27Z</time>
      </trkpt>
      <trkpt lat="46.98219" lon="-1.66603">
        <ele>20</ele>
        <time>2016-04-10T04:32:27Z</time>
      </trkpt>
      <trkpt lat="46.9822" lon="-1.66591">
        <ele>20</ele>
        <time>2016-04-10T04:34:27Z</time>
      </trkpt>
      <trkpt lat="46.98224" lon="-1.66565">
        <ele>21</ele>
        <time>2016-04-10T04:36:27Z</time>
      </trkpt>
      <trkpt lat="46.98227" lon="-1.6654">
        <ele>21</ele>
        <time>2016-04-10T04:38:27Z</time>
      </trkpt>
      <trkpt lat="46.98229" lon="-1.66519">
        <ele>22</ele>
        <time>2016-04-10T04:40:27Z</time>
      </trkpt>
      <trkpt lat="46.98232" lon="-1.66508">
        <ele>22</ele>
        <time>2016-04-10T04:42:27Z</time>
      </trkpt>
      <trkpt lat="46.98233" lon="-1.665">
        <ele>22</ele>
        <time>2016-04-10T04:44:27Z</time>
      </trkpt>
      <trkpt lat="46.98236" lon="-1.6649">
        <ele>22</ele>
        <time>2016-04-10T04:46:27Z</time>
      </trkpt>
      <trkpt lat="46.98241" lon="-1.66475">
        <ele>23</ele>
        <time>2016-04-10T04:48:27Z</time>
      </trkpt>
      <trkpt lat="46.9825" lon="-1.66443">
        <ele>24</ele>
        <time>2016-04-10T04:50:27Z</time>
      </trkpt>
      <trkpt lat="46.98258" lon="-1.66409">
        <ele>25</ele>
        <time>2016-04-10T04:52:27Z</time>
      </trkpt>
      <trkpt lat="46.98268" lon="-1.66352">
        <ele>27</ele>
        <time>2016-04-10T04:54:27Z</time>
      </trkpt>
      <trkpt lat="46.98281" lon="-1.66285">
        <ele>27</ele>
        <time>2016-04-10T04:56:27Z</time>
      </trkpt>
      <trkpt lat="46.98291" lon="-1.66232">
        <ele>27</ele>
        <time>2016-04-10T04:58:27Z</time>
      </trkpt>
      <trkpt lat="46.983" lon="-1.66178">
        <ele>27</ele>
        <time>2016-04-10T05:00:27Z</time>
      </trkpt>
      <trkpt lat="46.98305" lon="-1.66154">
        <ele>27</ele>
        <time>2016-04-10T05:02:27Z</time>
      </trkpt>
      <trkpt lat="46.98307" lon="-1.66142">
        <ele>27</ele>
        <time>2016-04-10T05:04:27Z</time>
      </trkpt>
      <trkpt lat="46.98307" lon="-1.66142">
        <ele>27</ele>
        <time>2016-04-10T05:06:27Z</time>
      </trkpt>
      <trkpt lat="46.98308" lon="-1.66133">
        <ele>26</ele>
        <time>2016-04-10T05:08:27Z</time>
      </trkpt>
      <trkpt lat="46.98309" lon="-1.66122">
        <ele>26</ele>
        <time>2016-04-10T05:10:27Z</time>
      </trkpt>
      <trkpt lat="46.98307" lon="-1.6611">
        <ele>26</ele>
        <time>2016-04-10T05:12:27Z</time>
      </trkpt>
      <trkpt lat="46.98306" lon="-1.66101">
        <ele>26</ele>
        <time>2016-04-10T05:14:27Z</time>
      </trkpt>
      <trkpt lat="46.98297" lon="-1.66087">
        <ele>26</ele>
        <time>2016-04-10T05:16:27Z</time>
      </trkpt>
      <trkpt lat="46.98282" lon="-1.66058">
        <ele>27</ele>
        <time>2016-04-10T05:18:27Z</time>
      </trkpt>
      <trkpt lat="46.98266" lon="-1.66032">
        <ele>27</ele>
        <time>2016-04-10T05:20:27Z</time>
      </trkpt>
      <trkpt lat="46.98259" lon="-1.66021">
        <ele>27</ele>
        <time>2016-04-10T05:22:27Z</time>
      </trkpt>
      <trkpt lat="46.98255" lon="-1.66015">
        <ele>27</ele>
        <time>2016-04-10T05:24:27Z</time>
      </trkpt>
      <trkpt lat="46.98229" lon="-1.65994">
        <ele>27</ele>
        <time>2016-04-10T05:26:27Z</time>
      </trkpt>
      <trkpt lat="46.98192" lon="-1.65967">
        <ele>28</ele>
        <time>2016-04-10T05:28:27Z</time>
      </trkpt>
      <trkpt lat="46.98148" lon="-1.65933">
        <ele>29</ele>
        <time>2016-04-10T05:30:27Z</time>
      </trkpt>
      <trkpt lat="46.98113" lon="-1.65904">
        <ele>29</ele>
        <time>2016-04-10T05:32:27Z</time>
      </trkpt>
      <trkpt lat="46.98093" lon="-1.65886">
        <ele>30</ele>
        <time>2016-04-10T05:34:27Z</time>
      </trkpt>
      <trkpt lat="46.98084" lon="-1.6588">
        <ele>30</ele>
        <time>2016-04-10T05:36:27Z</time>
      </trkpt>
      <trkpt lat="46.98072" lon="-1.65877">
        <ele>29</ele>
        <time>2016-04-10T05:38:27Z</time>
      </trkpt>
      <trkpt lat="46.9805" lon="-1.65876">
        <ele>29</ele>
        <time>2016-04-10T05:40:27Z</time>
      </trkpt>
      <trkpt lat="46.98024" lon="-1.65875">
        <ele>29</ele>
        <time>2016-04-10T05:42:27Z</time>
      </trkpt>
      <trkpt lat="46.98005" lon="-1.65877">
        <ele>29</ele>
        <time>2016-04-10T05:44:27Z</time>
      </trkpt>
      <trkpt lat="46.98005" lon="-1.65877">
        <ele>29</ele>
        <time>2016-04-10T05:46:27Z</time>
      </trkpt>
      <trkpt lat="46.97992" lon="-1.65876">
        <ele>29</ele>
        <time>2016-04-10T05:48:27Z</time>
      </trkpt>
      <trkpt lat="46.97986" lon="-1.65876">
        <ele>29</ele>
        <time>2016-04-10T05:50:27Z</time>
      </trkpt>
      <trkpt lat="46.97953" lon="-1.65875">
        <ele>28</ele>
        <time>2016-04-10T05:52:27Z</time>
      </trkpt>
      <trkpt lat="46.97928" lon="-1.65875">
        <ele>28</ele>
        <time>2016-04-10T05:54:27Z</time>
      </trkpt>
      <trkpt lat="46.97917" lon="-1.65875">
        <ele>28</ele>
        <time>2016-04-10T05:56:27Z</time>
      </trkpt>
      <trkpt lat="46.97898" lon="-1.65874">
        <ele>28</ele>
        <time>2016-04-10T05:58:27Z</time>
      </trkpt>
      <trkpt lat="46.97882" lon="-1.65871">
        <ele>28</ele>
        <time>2016-04-10T06:00:27Z</time>
      </trkpt>
      <trkpt lat="46.97863" lon="-1.65868">
        <ele>28</ele>
        <time>2016-04-10T06:02:27Z</time>
      </trkpt>
      <trkpt lat="46.97853" lon="-1.65865">
        <ele>28</ele>
        <time>2016-04-10T06:04:27Z</time>
      </trkpt>
      <trkpt lat="46.97842" lon="-1.65864">
        <ele>28</ele>
        <time>2016-04-10T06:06:27Z</time>
      </trkpt>
      <trkpt lat="46.97828" lon="-1.65865">
        <ele>28</ele>
        <time>2016-04-10T06:08:27Z</time>
      </trkpt>
      <trkpt lat="46.97814" lon="-1.65869">
        <ele>29</ele>
        <time>2016-04-10T06:10:27Z</time>
      </trkpt>
      <trkpt lat="46.97809" lon="-1.6587">
        <ele>29</ele>
        <time>2016-04-10T06:12:27Z</time>
      </trkpt>
    </trkseg>
  </trk>
</gpx>